[[{"header":{"parameterUnit":"m.s-1","parameterCategory":1,"la1":31.0,"la2":29.5877,"lo1":-88.7671,"lo2":-86.6584,"dy":0.0162,"dx":0.0185,"nx":115,"ny":88,"refTime":"2023-06-19T00:00:00:Z","depth":0,"parameterNumber":2,"parameterNumberName":"U-component_of_WINDS"},"data":[0.0,0.0,0.0,0.0,0.0,0.0,0.0,0.0,0.0,0.0,0.0,0.0,0.0,0.0,0.0,0.0,0.0,0.0,0.0,0.0,0.0,0.0,0.0,0.0,0.0,0.0,0.0,0.0,0.0,0.0,0.0,0.0,0.0,0.0,0.0,0.0,0.0,0.0,0.0,0.0,0.0,0.0,0.0,0.0,0.0,0.0,0.0,0.0,0.0,0.0,0.0,0.0,0.0,0.0,0.0,0.0,0.0,0.0,0.0,0.0,0.0,0.0,0.0,0.0,0.0,0.0,0.0,0.0,0.0,0.0,0.0,0.0,0.0,0.0,0.0,0.0,0.0,0.0,0.0,0.0,0.0,0.0,0.0,0.0,0.0,0.0,0.0,0.0,0.0,0.0,0.0,0.0,0.0,0.0,0.0,0.0,0.0,0.0,0.0,0.0,0.0,0.0,0.0,0.0,0.0,0.0,0.0,0.0,0.0,0.0,0.0,0.0,0.0,0.0,0.0,0.0,0.0,0.0,0.0,0.0,0.0,0.0,0.0,0.0,0.0,0.0,0.0,0.0,0.0,0.0,0.0,0.0,0.0,0.0,0.0,0.0,0.0,0.0,0.0,0.0,0.0,0.0,0.0,0.0,0.0,0.0,0.0,0.0,0.0,0.0,0.0,0.0,0.0,0.0,0.0,0.0,0.0,0.0,0.0,0.0,0.0,0.0,0.0,0.0,0.0,0.0,0.0,0.0,0.0,0.0,0.0,0.0,0.0,0.0,0.0,0.0,0.0,0.0,0.0,0.0,0.0,0.0,0.0,0.0,0.0,0.0,0.0,0.0,0.0,0.0,0.0,0.0,0.0,0.0,0.0,0.0,0.0,0.0,0.0,0.0,0.0,0.0,0.0,0.0,0.0,0.0,0.0,0.0,0.0,0.0,0.0,0.0,0.0,0.0,0.0,0.0,0.0,0.0,0.0,0.0,0.0,0.0,0.0,0.0,0.0,0.0,0.0,0.0,0.0,0.0,0.0,0.0,0.0,0.0,0.0,0.0,0.0,0.0,0.0,0.0,0.0,0.0,0.0,0.0,0.0,0.0,0.0,0.0,0.0,0.0,0.0,0.0,0.0,0.0,0.0,0.0,0.0,0.0,0.0,0.0,0.0,0.0,0.0,0.0,0.0,0.0,0.0,0.0,0.0,0.0,0.0,0.0,0.0,0.0,0.0,0.0,0.0,0.0,0.0,0.0,0.0,0.0,0.0,0.0,0.0,0.0,0.0,0.0,0.0,0.0,0.0,0.0,0.0,0.0,0.0,0.0,0.0,0.0,0.0,0.0,0.0,0.0,0.0,0.0,0.0,0.0,0.0,0.0,0.0,0.0,0.0,0.0,0.0,0.0,0.0,0.0,0.0,0.0,0.0,0.0,0.0,0.0,0.0,0.0,0.0,0.0,0.0,0.0,0.0,0.0,0.0,0.0,0.0,0.0,0.0,0.0,0.0,0.0,0.0,0.0,0.0,0.0,0.0,0.0,0.0,0.0,0.0,0.0,0.0,0.0,0.0,0.0,0.0,0.0,0.0,0.0,0.0,0.0,0.0,0.0,0.0,0.0,0.0,0.0,0.0,0.0,0.0,0.0,0.0,0.0,0.0,0.0,0.0,0.0,0.0,0.0,0.0,0.0,0.0,0.0,0.0,0.0,0.0,0.0,0.0,0.0,0.0,0.0,0.0,0.0,0.0,0.0,0.0,0.0,0.0,0.0,0.0,0.0,0.0,0.0,0.0,0.0,0.0,0.0,0.0,0.0,0.0,0.0,0.0,0.0,0.0,0.0,0.0,0.0,0.0,0.0,0.0,0.0,0.0,0.0,0.0,0.0,0.0,0.0,0.0,0.0,0.0,0.0,0.0,0.0,0.0,0.0,0.0,0.0,0.0,0.0,0.0,0.0,0.0,0.0,0.0,0.0,0.0,0.0,0.0,0.0,0.0,0.0,0.0,0.0,0.0,0.0,0.0,0.0,0.0,0.0,0.0,0.0,0.0,0.0,0.0,0.0,0.0,0.0,0.0,0.0,0.0,0.0,0.0,0.0,0.0,0.0,0.0,0.0,0.0,0.0,0.0,0.0,0.0,0.0,0.0,0.0,0.0,0.0,0.0,0.0,0.0,0.0,0.0,0.0,0.0,0.0,0.0,0.0,0.0,0.0,0.0,0.0,0.0,0.0,0.0,0.0,0.0,0.0,0.0,0.0,0.0,0.0,0.0,0.0,0.0,0.0,0.0,0.0,0.0,0.0,0.0,0.0,0.0,0.0,0.0,0.0,0.0,0.0,0.0,0.0,0.0,0.0,0.0,0.0,0.0,0.0,0.0,0.0,0.0,0.0,0.0,0.0,0.0,0.0,0.0,0.0,0.0,0.0,0.0,0.0,0.0,0.0,0.0,0.0,0.0,0.0,0.0,0.0,0.0,0.0,0.0,0.0,0.0,0.0,0.0,0.0,0.0,0.0,0.0,0.0,0.0,0.0,0.0,0.0,0.0,0.0,0.0,0.0,0.0,0.0,0.0,0.0,0.0,0.0,0.0,0.0,0.0,0.0,0.0,0.0,0.0,0.0,0.0,0.0,0.0,0.0,0.0,0.0,0.0,0.0,0.0,0.0,0.0,0.0,0.0,0.0,0.0,0.0,0.0,0.0,0.0,0.0,0.0,0.0,0.0,0.0,0.0,0.0,0.0,0.0,0.0,0.0,0.0,0.0,0.0,0.0,0.0,0.0,0.0,0.0,0.0,0.0,0.0,0.0,0.0,0.0,0.0,0.0,0.0,0.0,0.0,0.0,0.0,0.0,0.0,0.0,0.0,0.0,0.0,0.0,0.0,0.0,0.0,0.0,0.0,0.0,0.0,0.0,0.0,0.0,0.0,0.0,0.0,0.0,0.0,0.0,0.0,0.0,0.0,0.0,0.0,0.0,0.0,0.0,0.0,0.0,0.0,0.0,0.0,0.0,0.0,0.0,0.0,0.0,0.0,0.0,0.0,0.0,0.0,0.0,0.0,0.0,0.0,0.0,0.0,0.0,0.0,0.0,0.0,0.0,0.0,0.0,0.0,0.0,0.0,0.0,0.0,0.0,0.0,0.0,0.0,0.0,0.0,0.0,0.0,0.0,0.0,0.0,0.0,0.0,0.0,0.0,0.0,0.0,0.0,0.0,0.0,0.0,0.0,0.0,0.0,0.0,0.0,0.0,0.0,0.0,0.0,0.0,0.0,0.0,0.0,0.0,0.0,0.0,0.0,0.0,0.0,0.0,0.0,0.0,0.0,0.0,0.0,0.0,0.0,0.0,0.0,0.0,0.0,0.0,0.0,0.0,0.0,0.0,0.0,0.0,0.0,0.0,0.0,0.0,0.0,0.0,0.0,0.0,0.0,0.0,0.0,0.0,0.0,0.0,0.0,0.0,0.0,0.0,0.0,0.0,0.0,0.0,0.0,0.0,0.0,0.0,0.0,0.0,0.0,0.0,0.0,0.0,0.0,0.0,0.0,0.0,0.0,0.0,0.0,0.0,0.0,0.0,0.0,0.0,0.0,0.0,0.0,0.0,0.0,0.0,0.0,0.0,0.0,0.0,0.0,0.0,0.0,0.0,0.0,0.0,0.0,0.0,0.0,0.0,0.0,0.0,0.0,0.0,0.0,0.0,0.0,0.0,0.0,0.0,0.0,0.0,0.0,0.0,0.0,0.0,0.0,0.0,0.0,0.0,0.0,0.0,0.0,0.0,0.0,0.0,0.0,0.0,0.0,0.0,0.0,0.0,0.0,0.0,0.0,0.0,0.0,0.0,0.0,0.0,0.0,0.0,0.0,0.0,0.0,0.0,0.0,0.0,0.0,0.0,0.0,0.0,0.0,0.0,0.0,0.0,0.0,0.0,0.0,0.0,0.0,0.0,0.0,0.0,0.0,0.0,0.0,0.0,0.0,0.0,0.0,0.0,0.0,0.0,0.0,0.0,0.0,0.0,0.0,0.0,0.0,0.0,0.0,0.0,0.0,0.0,0.0,0.0,0.0,0.0,0.0,0.0,0.0,0.0,0.0,0.0,0.0,0.0,0.0,0.0,0.0,0.0,0.0,0.0,0.0,0.0,0.0,0.0,0.0,0.0,0.0,0.0,0.0,0.0,0.0,0.0,0.0,0.0,0.0,0.0,0.0,0.0,0.0,0.0,0.0,0.0,0.0,0.0,0.0,0.0,0.0,0.0,0.0,0.0,0.0,0.0,0.0,0.0,0.0,0.0,-1.7988,0.0,0.0,0.0,0.0,0.0,0.0,0.0,0.0,0.0,0.0,0.0,0.0,0.0,0.0,0.0,0.0,0.0,0.0,0.0,0.0,0.0,0.0,0.0,0.0,0.0,0.0,0.0,0.0,0.0,0.0,0.0,0.0,0.0,0.0,0.0,0.0,0.0,0.0,0.0,0.0,0.0,0.0,0.0,0.0,0.0,0.0,0.0,0.0,0.0,0.0,0.0,0.0,0.0,0.0,0.0,0.0,0.0,0.0,0.0,0.0,0.0,0.0,0.0,0.0,0.0,0.0,0.0,0.0,0.0,0.0,0.0,0.0,0.0,0.0,0.0,0.0,0.0,0.0,0.0,0.0,0.0,0.0,0.0,0.0,0.0,0.0,0.0,0.0,0.0,0.0,0.0,0.0,0.0,0.0,0.0,0.0,0.0,0.0,0.0,0.0,0.0,0.0,0.0,0.0,0.0,0.0,0.0,0.0,0.0,0.0,-1.811,-1.811,-1.8003,-1.7935,-1.7935,0.0,0.0,0.0,0.0,0.0,0.0,0.0,0.0,0.0,0.0,0.0,0.0,0.0,0.0,0.0,0.0,0.0,0.0,0.0,0.0,0.0,0.0,0.0,0.0,0.0,0.0,0.0,0.0,0.0,0.0,0.0,0.0,0.0,0.0,0.0,0.0,0.0,0.0,0.0,0.0,0.0,0.0,0.0,0.0,0.0,0.0,0.0,0.0,0.0,0.0,0.0,0.0,0.0,0.0,0.0,0.0,0.0,0.0,0.0,0.0,0.0,0.0,0.0,0.0,0.0,0.0,0.0,0.0,0.0,0.0,0.0,0.0,0.0,0.0,0.0,0.0,0.0,0.0,0.0,0.0,0.0,0.0,0.0,0.0,0.0,0.0,0.0,0.0,0.0,0.0,0.0,0.0,0.0,0.0,0.0,0.0,0.0,0.0,0.0,0.0,0.0,0.0,0.0,0.0,0.0,0.0,0.0,0.0,0.0,0.0,0.0,0.0,-1.8413,-1.8413,-1.833,0.0,0.0,0.0,0.0,0.0,0.0,0.0,0.0,0.0,0.0,0.0,0.0,0.0,0.0,0.0,0.0,0.0,0.0,0.0,0.0,0.0,0.0,0.0,0.0,0.0,0.0,0.0,0.0,0.0,0.0,0.0,0.0,0.0,0.0,0.0,0.0,0.0,0.0,0.0,0.0,0.0,0.0,0.0,0.0,0.0,0.0,0.0,0.0,0.0,0.0,0.0,0.0,0.0,0.0,0.0,0.0,0.0,0.0,0.0,0.0,0.0,0.0,0.0,0.0,0.0,0.0,0.0,0.0,0.0,0.0,0.0,0.0,0.0,0.0,0.0,0.0,0.0,0.0,0.0,0.0,0.0,0.0,0.0,0.0,0.0,0.0,0.0,0.0,0.0,0.0,0.0,0.0,0.0,0.0,0.0,0.0,0.0,0.0,0.0,0.0,0.0,0.0,0.0,0.0,0.0,0.0,0.0,0.0,0.0,0.0,-1.9083,-1.9615,-1.9875,0.0,-1.9658,0.0,0.0,0.0,0.0,0.0,0.0,0.0,0.0,0.0,0.0,0.0,0.0,0.0,0.0,0.0,0.0,0.0,0.0,0.0,0.0,0.0,0.0,0.0,0.0,0.0,0.0,0.0,0.0,0.0,0.0,0.0,0.0,0.0,0.0,0.0,0.0,0.0,0.0,0.0,0.0,0.0,0.0,0.0,0.0,0.0,0.0,0.0,0.0,0.0,0.0,0.0,0.0,0.0,0.0,0.0,0.0,0.0,0.0,0.0,0.0,0.0,0.0,0.0,0.0,0.0,0.0,0.0,0.0,0.0,0.0,0.0,0.0,0.0,0.0,0.0,0.0,0.0,0.0,0.0,0.0,0.0,0.0,0.0,0.0,0.0,0.0,0.0,0.0,0.0,0.0,0.0,0.0,0.0,0.0,0.0,0.0,0.0,0.0,0.0,0.0,0.0,0.0,0.0,0.0,0.0,0.0,0.0,0.0,0.0,0.0,-1.9287,-1.9512,-1.9762,-2.0059,0.0,0.0,0.0,0.0,0.0,0.0,0.0,0.0,0.0,0.0,0.0,0.0,0.0,0.0,0.0,0.0,0.0,0.0,0.0,0.0,0.0,0.0,0.0,0.0,0.0,0.0,0.0,0.0,0.0,0.0,0.0,0.0,0.0,0.0,0.0,0.0,0.0,0.0,0.0,0.0,0.0,0.0,0.0,0.0,0.0,0.0,0.0,0.0,0.0,0.0,0.0,0.0,0.0,0.0,0.0,0.0,0.0,0.0,0.0,0.0,0.0,0.0,0.0,0.0,0.0,0.0,0.0,0.0,0.0,0.0,0.0,0.0,0.0,0.0,0.0,0.0,0.0,0.0,0.0,0.0,0.0,0.0,0.0,0.0,0.0,0.0,0.0,0.0,0.0,0.0,0.0,0.0,0.0,0.0,0.0,0.0,0.0,0.0,0.0,0.0,0.0,0.0,0.0,0.0,0.0,0.0,0.0,0.0,0.0,0.0,-1.9397,-1.9718,-2.0043,-2.0207,-2.0489,-2.0945,0.0,0.0,0.0,0.0,0.0,0.0,0.0,0.0,0.0,0.0,0.0,0.0,0.0,0.0,0.0,0.0,0.0,0.0,0.0,0.0,0.0,0.0,0.0,0.0,0.0,0.0,0.0,0.0,0.0,0.0,0.0,0.0,0.0,0.0,0.0,0.0,0.0,0.0,0.0,0.0,0.0,0.0,0.0,0.0,0.0,0.0,0.0,0.0,0.0,0.0,0.0,0.0,0.0,0.0,0.0,0.0,0.0,0.0,0.0,0.0,0.0,0.0,0.0,0.0,0.0,0.0,0.0,0.0,0.0,0.0,0.0,0.0,0.0,0.0,0.0,0.0,0.0,0.0,0.0,0.0,0.0,0.0,0.0,0.0,0.0,0.0,0.0,0.0,0.0,0.0,0.0,0.0,0.0,0.0,0.0,0.0,0.0,0.0,0.0,0.0,0.0,0.0,0.0,0.0,0.0,0.0,0.0,0.0,-1.8809,-1.959,-2.059,-2.1777,-2.1758,-2.1643,0.0,0.0,0.0,0.0,0.0,0.0,0.0,0.0,0.0,0.0,0.0,0.0,0.0,0.0,0.0,0.0,0.0,0.0,0.0,0.0,0.0,0.0,0.0,0.0,0.0,0.0,0.0,0.0,0.0,0.0,0.0,0.0,0.0,0.0,0.0,0.0,0.0,0.0,0.0,0.0,0.0,0.0,0.0,0.0,0.0,0.0,0.0,0.0,0.0,0.0,0.0,0.0,0.0,0.0,0.0,0.0,0.0,0.0,0.0,0.0,0.0,0.0,0.0,0.0,0.0,0.0,0.0,0.0,0.0,0.0,0.0,0.0,0.0,0.0,0.0,0.0,0.0,0.0,0.0,0.0,0.0,0.0,0.0,0.0,0.0,0.0,0.0,0.0,0.0,0.0,0.0,0.0,0.0,0.0,0.0,0.0,0.0,0.0,0.0,0.0,0.0,0.0,0.0,0.0,0.0,0.0,0.0,0.0,0.0,-1.9204,-1.9737,-2.0414,-2.1313,-2.1313,-2.1291,0.0,0.0,0.0,0.0,0.0,0.0,0.0,0.0,0.0,0.0,0.0,0.0,0.0,0.0,0.0,0.0,0.0,0.0,0.0,0.0,0.0,0.0,0.0,0.0,0.0,0.0,0.0,0.0,0.0,0.0,0.0,0.0,0.0,0.0,0.0,0.0,0.0,0.0,0.0,0.0,0.0,0.0,0.0,0.0,0.0,0.0,0.0,0.0,0.0,0.0,0.0,0.0,0.0,0.0,0.0,0.0,0.0,0.0,0.0,0.0,0.0,0.0,0.0,0.0,0.0,0.0,0.0,0.0,0.0,0.0,0.0,0.0,0.0,0.0,0.0,0.0,0.0,0.0,0.0,0.0,0.0,0.0,0.0,0.0,0.0,0.0,0.0,0.0,0.0,0.0,0.0,0.0,0.0,0.0,0.0,0.0,0.0,0.0,0.0,0.0,0.0,0.0,0.0,0.0,0.0,0.0,0.0,0.0,0.0,-1.9525,0.0,-2.0169,-2.0822,-2.0947,-2.097,0.0,0.0,0.0,0.0,0.0,0.0,0.0,0.0,0.0,0.0,0.0,0.0,0.0,0.0,0.0,0.0,0.0,0.0,0.0,0.0,0.0,0.0,0.0,0.0,0.0,0.0,0.0,0.0,0.0,0.0,0.0,0.0,0.0,0.0,0.0,0.0,0.0,0.0,0.0,0.0,0.0,0.0,0.0,0.0,0.0,0.0,0.0,0.0,0.0,0.0,0.0,0.0,0.0,0.0,0.0,0.0,0.0,0.0,0.0,0.0,0.0,0.0,0.0,0.0,0.0,0.0,0.0,0.0,0.0,0.0,0.0,0.0,0.0,0.0,0.0,0.0,0.0,0.0,0.0,0.0,0.0,0.0,0.0,0.0,0.0,0.0,0.0,0.0,0.0,0.0,0.0,0.0,0.0,0.0,0.0,0.0,0.0,0.0,0.0,0.0,0.0,0.0,0.0,0.0,0.0,0.0,0.0,0.0,-1.9393,-1.9759,-1.9656,-1.9939,-2.0573,-2.0723,-2.0822,0.0,0.0,0.0,0.0,0.0,0.0,0.0,0.0,0.0,0.0,0.0,0.0,0.0,0.0,0.0,0.0,0.0,0.0,0.0,0.0,0.0,0.0,0.0,0.0,0.0,0.0,0.0,0.0,0.0,0.0,0.0,0.0,0.0,0.0,0.0,0.0,0.0,0.0,0.0,0.0,0.0,0.0,0.0,0.0,0.0,0.0,0.0,0.0,0.0,0.0,0.0,0.0,0.0,0.0,0.0,0.0,0.0,0.0,0.0,0.0,0.0,0.0,0.0,0.0,0.0,0.0,0.0,0.0,0.0,0.0,0.0,0.0,0.0,0.0,0.0,0.0,0.0,0.0,0.0,0.0,0.0,0.0,0.0,0.0,0.0,0.0,0.0,0.0,0.0,0.0,0.0,0.0,0.0,0.0,0.0,0.0,0.0,0.0,0.0,0.0,0.0,0.0,0.0,0.0,0.0,0.0,0.0,0.0,0.0,-1.942,-1.9368,-1.9698,-2.0391,-2.0322,-2.0399,0.0,0.0,0.0,0.0,0.0,0.0,0.0,0.0,0.0,0.0,0.0,0.0,0.0,0.0,0.0,0.0,0.0,0.0,0.0,0.0,0.0,0.0,0.0,0.0,0.0,0.0,0.0,0.0,0.0,0.0,0.0,0.0,0.0,0.0,0.0,0.0,0.0,0.0,0.0,0.0,0.0,0.0,0.0,0.0,0.0,0.0,0.0,0.0,0.0,0.0,0.0,0.0,0.0,0.0,0.0,0.0,0.0,0.0,0.0,0.0,0.0,0.0,0.0,0.0,0.0,0.0,0.0,0.0,0.0,0.0,0.0,0.0,0.0,0.0,0.0,0.0,0.0,0.0,0.0,0.0,0.0,0.0,0.0,0.0,0.0,0.0,0.0,0.0,0.0,0.0,0.0,0.0,0.0,0.0,0.0,0.0,0.0,0.0,0.0,0.0,0.0,0.0,0.0,0.0,0.0,0.0,0.0,0.0,0.0,-1.9569,-1.9655,-1.9964,-2.0502,-2.0332,-2.0441,-2.1053,0.0,0.0,0.0,0.0,0.0,0.0,0.0,0.0,0.0,0.0,0.0,0.0,0.0,0.0,0.0,0.0,0.0,0.0,0.0,0.0,0.0,0.0,0.0,0.0,0.0,0.0,0.0,0.0,0.0,0.0,0.0,0.0,0.0,0.0,0.0,0.0,0.0,0.0,0.0,0.0,0.0,0.0,0.0,0.0,0.0,0.0,0.0,0.0,0.0,0.0,0.0,0.0,0.0,0.0,0.0,0.0,0.0,0.0,0.0,0.0,0.0,0.0,0.0,0.0,0.0,0.0,0.0,0.0,0.0,0.0,0.0,0.0,0.0,0.0,0.0,0.0,0.0,0.0,0.0,0.0,0.0,0.0,0.0,0.0,0.0,0.0,0.0,0.0,0.0,0.0,0.0,0.0,0.0,0.0,0.0,0.0,0.0,0.0,0.0,0.0,0.0,0.0,0.0,0.0,0.0,0.0,0.0,0.0,-1.9982,-2.0416,-2.0682,-2.0807,-2.0551,-2.0886,0.0,0.0,0.0,0.0,0.0,0.0,0.0,0.0,0.0,0.0,0.0,0.0,0.0,0.0,0.0,0.0,0.0,0.0,0.0,0.0,0.0,0.0,0.0,0.0,0.0,0.0,0.0,0.0,0.0,0.0,0.0,0.0,0.0,0.0,0.0,0.0,0.0,0.0,0.0,0.0,0.0,0.0,0.0,0.0,0.0,0.0,0.0,0.0,0.0,0.0,0.0,0.0,0.0,0.0,0.0,0.0,0.0,0.0,0.0,0.0,0.0,0.0,0.0,0.0,0.0,0.0,0.0,0.0,0.0,0.0,0.0,0.0,0.0,0.0,0.0,0.0,0.0,0.0,0.0,0.0,0.0,0.0,0.0,0.0,0.0,0.0,0.0,0.0,0.0,0.0,0.0,0.0,0.0,0.0,0.0,0.0,0.0,0.0,0.0,0.0,0.0,0.0,0.0,0.0,0.0,0.0,0.0,0.0,0.0,-2.1105,-2.1337,-2.1233,-2.0867,-2.0658,-2.0668,0.0,0.0,0.0,0.0,0.0,0.0,0.0,0.0,0.0,0.0,0.0,0.0,0.0,0.0,0.0,0.0,0.0,0.0,0.0,0.0,0.0,0.0,0.0,0.0,0.0,0.0,0.0,0.0,0.0,0.0,0.0,0.0,0.0,0.0,0.0,0.0,0.0,0.0,0.0,0.0,0.0,0.0,0.0,0.0,0.0,0.0,0.0,0.0,0.0,0.0,0.0,0.0,0.0,0.0,0.0,0.0,0.0,0.0,0.0,0.0,0.0,0.0,0.0,0.0,0.0,0.0,0.0,0.0,0.0,0.0,0.0,0.0,0.0,0.0,0.0,0.0,0.0,0.0,0.0,0.0,0.0,0.0,0.0,0.0,0.0,0.0,0.0,0.0,0.0,0.0,0.0,0.0,0.0,0.0,0.0,0.0,0.0,0.0,0.0,0.0,0.0,0.0,0.0,0.0,0.0,0.0,0.0,0.0,-2.0764,-2.1509,-2.1475,-2.1376,-2.1221,-2.0889,-2.0926,0.0,0.0,0.0,0.0,0.0,0.0,0.0,0.0,0.0,0.0,0.0,0.0,0.0,0.0,0.0,0.0,0.0,0.0,0.0,0.0,0.0,0.0,0.0,0.0,0.0,0.0,0.0,0.0,0.0,0.0,0.0,0.0,0.0,0.0,0.0,0.0,0.0,0.0,0.0,0.0,0.0,0.0,0.0,0.0,0.0,0.0,0.0,0.0,0.0,0.0,0.0,0.0,0.0,0.0,0.0,0.0,0.0,0.0,0.0,0.0,0.0,0.0,0.0,0.0,0.0,0.0,0.0,0.0,0.0,0.0,0.0,0.0,0.0,0.0,0.0,0.0,0.0,0.0,0.0,0.0,0.0,0.0,0.0,0.0,0.0,0.0,0.0,0.0,0.0,0.0,0.0,0.0,0.0,0.0,0.0,0.0,0.0,0.0,0.0,0.0,0.0,0.0,0.0,0.0,0.0,0.0,0.0,0.0,-2.0773,-2.1486,-2.1407,-2.1518,-2.1843,-2.1244,-2.1303,0.0,0.0,0.0,0.0,0.0,0.0,0.0,0.0,0.0,0.0,0.0,0.0,0.0,0.0,0.0,0.0,0.0,0.0,0.0,0.0,0.0,0.0,0.0,0.0,0.0,0.0,0.0,0.0,0.0,0.0,0.0,0.0,0.0,0.0,0.0,0.0,0.0,0.0,0.0,0.0,0.0,0.0,0.0,0.0,0.0,0.0,0.0,0.0,0.0,0.0,0.0,0.0,0.0,0.0,0.0,0.0,0.0,0.0,0.0,0.0,0.0,0.0,0.0,0.0,0.0,0.0,0.0,0.0,0.0,0.0,0.0,0.0,0.0,0.0,0.0,0.0,0.0,0.0,0.0,0.0,0.0,0.0,0.0,0.0,0.0,0.0,0.0,0.0,0.0,0.0,0.0,0.0,0.0,0.0,0.0,0.0,0.0,0.0,0.0,0.0,0.0,0.0,0.0,0.0,0.0,0.0,0.0,0.0,-2.1297,-2.2411,-2.2409,-2.2593,-2.3029,-2.1809,-2.1181,0.0,0.0,0.0,0.0,0.0,0.0,0.0,0.0,0.0,0.0,0.0,0.0,0.0,0.0,0.0,0.0,0.0,0.0,0.0,0.0,0.0,0.0,0.0,0.0,0.0,0.0,0.0,0.0,0.0,0.0,0.0,0.0,0.0,0.0,0.0,0.0,0.0,0.0,0.0,0.0,0.0,0.0,0.0,0.0,0.0,0.0,0.0,0.0,-3.1141,0.0,0.0,0.0,0.0,0.0,0.0,0.0,0.0,0.0,0.0,0.0,0.0,0.0,0.0,0.0,0.0,0.0,0.0,0.0,0.0,0.0,0.0,0.0,0.0,0.0,0.0,0.0,0.0,0.0,0.0,0.0,0.0,0.0,0.0,0.0,0.0,0.0,0.0,0.0,0.0,0.0,0.0,0.0,0.0,0.0,0.0,0.0,0.0,0.0,0.0,0.0,0.0,0.0,0.0,0.0,0.0,0.0,0.0,0.0,-2.0577,-2.1973,-2.1935,-2.2205,-2.2786,-2.2139,-2.1635,0.0,0.0,0.0,0.0,0.0,0.0,0.0,0.0,0.0,0.0,0.0,0.0,0.0,0.0,0.0,0.0,0.0,0.0,0.0,0.0,0.0,0.0,0.0,0.0,0.0,0.0,0.0,0.0,0.0,0.0,0.0,0.0,0.0,0.0,0.0,0.0,0.0,0.0,0.0,0.0,0.0,0.0,0.0,0.0,0.0,0.0,0.0,0.0,0.0,0.0,0.0,0.0,0.0,0.0,0.0,0.0,0.0,0.0,0.0,0.0,0.0,0.0,0.0,0.0,0.0,0.0,0.0,0.0,0.0,0.0,0.0,0.0,0.0,0.0,0.0,0.0,0.0,0.0,0.0,0.0,0.0,0.0,0.0,0.0,0.0,0.0,0.0,0.0,0.0,0.0,0.0,0.0,0.0,0.0,0.0,0.0,0.0,0.0,0.0,0.0,0.0,0.0,0.0,0.0,0.0,0.0,0.0,-1.919,-1.9695,-2.1013,-2.1107,-2.1468,-2.2165,-2.2447,-2.2366,-2.1932,0.0,0.0,0.0,0.0,0.0,0.0,0.0,0.0,0.0,0.0,0.0,0.0,0.0,0.0,0.0,0.0,0.0,0.0,0.0,0.0,0.0,0.0,0.0,0.0,0.0,0.0,0.0,0.0,0.0,0.0,0.0,0.0,0.0,0.0,0.0,0.0,0.0,0.0,-2.7032,-2.8368,0.0,0.0,0.0,0.0,0.0,0.0,0.0,0.0,-3.095,0.0,0.0,0.0,0.0,0.0,0.0,0.0,0.0,0.0,0.0,0.0,0.0,0.0,0.0,0.0,0.0,0.0,0.0,0.0,0.0,0.0,0.0,0.0,0.0,0.0,0.0,0.0,0.0,0.0,0.0,0.0,0.0,0.0,0.0,0.0,0.0,0.0,0.0,0.0,0.0,0.0,0.0,0.0,0.0,0.0,0.0,0.0,0.0,0.0,0.0,0.0,0.0,0.0,0.0,0.0,0.0,-1.9041,-1.9813,-2.0211,-2.0133,-2.147,-2.2029,-2.1867,-2.2659,-2.2778,-2.1956,0.0,0.0,0.0,0.0,0.0,0.0,0.0,0.0,0.0,0.0,0.0,0.0,0.0,0.0,0.0,0.0,0.0,0.0,0.0,0.0,0.0,0.0,0.0,0.0,0.0,0.0,0.0,0.0,0.0,0.0,0.0,0.0,0.0,0.0,0.0,0.0,0.0,0.0,0.0,-2.7611,-2.814,0.0,0.0,0.0,0.0,0.0,0.0,0.0,0.0,-3.1772,0.0,0.0,0.0,0.0,0.0,0.0,0.0,0.0,0.0,0.0,0.0,0.0,0.0,0.0,0.0,0.0,0.0,0.0,0.0,0.0,0.0,0.0,0.0,0.0,0.0,0.0,0.0,0.0,0.0,0.0,0.0,0.0,0.0,0.0,0.0,0.0,0.0,0.0,0.0,0.0,0.0,0.0,0.0,0.0,0.0,0.0,0.0,0.0,0.0,0.0,0.0,0.0,0.0,0.0,0.0,-1.9274,-1.9644,-2.0245,-2.0892,-2.1795,-2.2284,-2.221,-2.2652,-2.2628,0.0,0.0,0.0,0.0,0.0,0.0,0.0,0.0,0.0,0.0,0.0,0.0,0.0,0.0,0.0,0.0,0.0,0.0,0.0,0.0,0.0,0.0,0.0,0.0,0.0,0.0,0.0,0.0,0.0,0.0,0.0,0.0,0.0,0.0,0.0,0.0,0.0,0.0,0.0,0.0,-2.8184,-2.8821,-2.8922,0.0,0.0,0.0,0.0,0.0,0.0,-3.1152,-3.1556,0.0,0.0,0.0,0.0,0.0,0.0,0.0,0.0,0.0,0.0,0.0,0.0,0.0,0.0,0.0,0.0,0.0,0.0,0.0,0.0,0.0,0.0,0.0,0.0,0.0,0.0,0.0,0.0,0.0,0.0,0.0,0.0,0.0,0.0,0.0,0.0,0.0,0.0,0.0,0.0,0.0,0.0,0.0,0.0,0.0,0.0,0.0,0.0,0.0,0.0,0.0,0.0,0.0,0.0,0.0,-1.9448,-1.9442,-2.0226,-2.1709,-2.1786,-2.1977,-2.2232,-2.2293,-2.239,0.0,0.0,0.0,0.0,0.0,0.0,0.0,0.0,0.0,0.0,0.0,0.0,0.0,0.0,0.0,0.0,0.0,0.0,0.0,0.0,0.0,0.0,0.0,0.0,0.0,0.0,0.0,0.0,0.0,0.0,0.0,0.0,0.0,0.0,0.0,0.0,0.0,0.0,0.0,0.0,0.0,-2.9535,-2.9469,-2.9577,0.0,0.0,0.0,0.0,-3.0679,-3.1199,0.0,0.0,0.0,0.0,0.0,0.0,0.0,0.0,0.0,0.0,0.0,0.0,0.0,0.0,0.0,0.0,0.0,0.0,0.0,0.0,0.0,0.0,0.0,0.0,0.0,0.0,0.0,0.0,0.0,0.0,0.0,0.0,0.0,0.0,0.0,0.0,0.0,0.0,0.0,0.0,0.0,0.0,0.0,0.0,0.0,0.0,0.0,0.0,0.0,0.0,0.0,0.0,0.0,0.0,0.0,0.0,-1.9222,-1.96,-2.0466,-2.1678,-2.112,-2.0791,-2.0731,-2.1678,-2.2126,0.0,0.0,0.0,0.0,0.0,0.0,0.0,0.0,0.0,0.0,0.0,0.0,0.0,0.0,0.0,0.0,0.0,0.0,0.0,0.0,0.0,0.0,0.0,0.0,0.0,0.0,0.0,0.0,0.0,0.0,0.0,0.0,0.0,0.0,0.0,0.0,0.0,0.0,0.0,0.0,0.0,-2.9268,-2.9201,-2.9821,-3.0337,0.0,0.0,-3.1167,-3.1178,-3.1826,0.0,0.0,0.0,0.0,0.0,0.0,0.0,0.0,0.0,0.0,0.0,0.0,0.0,0.0,0.0,0.0,0.0,0.0,0.0,0.0,0.0,0.0,0.0,0.0,0.0,0.0,0.0,0.0,0.0,0.0,0.0,0.0,0.0,0.0,0.0,0.0,0.0,0.0,0.0,0.0,0.0,0.0,0.0,0.0,0.0,0.0,0.0,0.0,0.0,0.0,0.0,0.0,0.0,0.0,0.0,-2.0196,-1.9857,-2.0132,-2.0846,-2.1956,-2.1542,-2.1466,-2.1935,-2.1669,-2.1893,0.0,0.0,0.0,0.0,0.0,0.0,0.0,0.0,0.0,0.0,0.0,0.0,0.0,0.0,0.0,0.0,0.0,0.0,0.0,0.0,0.0,0.0,0.0,0.0,0.0,0.0,0.0,0.0,0.0,0.0,0.0,0.0,0.0,0.0,0.0,0.0,0.0,0.0,0.0,0.0,0.0,0.0,-3.0084,-3.0535,0.0,0.0,0.0,-3.1422,-3.1748,0.0,0.0,0.0,0.0,0.0,0.0,0.0,0.0,0.0,0.0,0.0,0.0,0.0,0.0,0.0,0.0,0.0,0.0,0.0,0.0,0.0,0.0,0.0,0.0,0.0,0.0,0.0,0.0,0.0,0.0,0.0,0.0,0.0,0.0,0.0,0.0,0.0,0.0,0.0,0.0,0.0,0.0,0.0,0.0,0.0,0.0,0.0,0.0,0.0,0.0,0.0,0.0,0.0,0.0,0.0,0.0,0.0,-2.0655,-2.0682,-2.1055,-2.1803,-2.1886,-2.2283,-2.2755,-2.2176,0.0,0.0,0.0,0.0,0.0,0.0,0.0,0.0,0.0,0.0,0.0,0.0,0.0,0.0,0.0,0.0,0.0,0.0,0.0,0.0,0.0,0.0,0.0,0.0,0.0,0.0,0.0,-2.446,0.0,0.0,0.0,0.0,0.0,0.0,0.0,0.0,0.0,0.0,0.0,0.0,0.0,0.0,-3.1003,-3.069,-3.1245,-3.1766,0.0,0.0,-3.2101,-3.2562,-3.2616,-3.2616,0.0,0.0,0.0,0.0,0.0,0.0,0.0,0.0,0.0,0.0,0.0,0.0,0.0,0.0,0.0,0.0,0.0,0.0,0.0,0.0,0.0,0.0,0.0,0.0,0.0,0.0,0.0,0.0,0.0,0.0,0.0,0.0,0.0,0.0,0.0,0.0,0.0,0.0,0.0,0.0,0.0,0.0,0.0,0.0,0.0,0.0,0.0,0.0,0.0,0.0,0.0,0.0,0.0,0.0,0.0,-2.1329,-2.1213,-2.1014,-2.0816,-2.1828,-2.2413,-2.2392,-2.3175,-2.3602,0.0,0.0,0.0,0.0,0.0,0.0,0.0,0.0,0.0,0.0,0.0,0.0,0.0,0.0,0.0,0.0,0.0,0.0,0.0,0.0,0.0,0.0,0.0,0.0,0.0,0.0,0.0,0.0,0.0,0.0,0.0,0.0,0.0,0.0,0.0,0.0,0.0,0.0,0.0,0.0,0.0,-3.0474,-3.0401,-3.1723,-3.2745,0.0,0.0,-3.3707,-3.3734,-3.3761,-3.3761,-3.381,0.0,0.0,0.0,0.0,0.0,0.0,0.0,0.0,0.0,0.0,0.0,0.0,0.0,0.0,0.0,0.0,0.0,0.0,0.0,0.0,0.0,0.0,0.0,0.0,0.0,0.0,0.0,0.0,0.0,0.0,0.0,0.0,0.0,0.0,0.0,0.0,0.0,0.0,0.0,0.0,0.0,0.0,0.0,0.0,0.0,0.0,0.0,0.0,0.0,0.0,0.0,0.0,0.0,-2.1386,-2.1312,-2.1467,-2.1621,-2.1582,-2.1758,-2.2553,-2.3896,-2.3447,-2.3482,0.0,0.0,0.0,0.0,0.0,0.0,0.0,0.0,0.0,0.0,0.0,0.0,0.0,0.0,0.0,0.0,0.0,0.0,0.0,0.0,0.0,0.0,0.0,0.0,0.0,0.0,0.0,0.0,-2.5799,-2.5991,-2.6505,0.0,0.0,0.0,0.0,0.0,0.0,0.0,0.0,0.0,0.0,-3.1782,-3.1585,-3.2626,0.0,0.0,-3.3657,-3.3869,-3.3869,-3.3869,-3.3869,-3.3869,-3.3869,0.0,0.0,0.0,0.0,0.0,0.0,0.0,0.0,0.0,0.0,0.0,0.0,0.0,0.0,0.0,0.0,0.0,0.0,0.0,0.0,0.0,0.0,0.0,0.0,0.0,0.0,0.0,0.0,0.0,0.0,0.0,0.0,0.0,0.0,0.0,0.0,0.0,0.0,0.0,0.0,0.0,0.0,0.0,0.0,0.0,0.0,0.0,0.0,0.0,0.0,0.0,0.0,-2.175,-2.1387,-2.1734,-2.2031,-2.232,-2.2212,-2.3102,-2.4962,-2.4196,-2.4006,0.0,0.0,0.0,0.0,0.0,0.0,0.0,0.0,0.0,0.0,0.0,0.0,0.0,0.0,0.0,0.0,0.0,0.0,0.0,0.0,0.0,0.0,0.0,0.0,0.0,0.0,0.0,0.0,-2.6062,-2.6302,-2.7114,0.0,0.0,0.0,0.0,0.0,0.0,0.0,0.0,0.0,0.0,-3.2638,-3.2434,-3.3221,-3.3961,-3.407,-3.4254,-3.4465,-3.4627,-3.4597,-3.4543,-3.4706,0.0,0.0,0.0,0.0,0.0,0.0,0.0,0.0,0.0,0.0,0.0,0.0,0.0,0.0,0.0,0.0,0.0,0.0,0.0,0.0,0.0,0.0,0.0,0.0,0.0,0.0,0.0,0.0,0.0,0.0,-1.8106,0.0,0.0,0.0,0.0,0.0,0.0,0.0,0.0,0.0,0.0,0.0,0.0,0.0,0.0,0.0,0.0,0.0,0.0,0.0,0.0,0.0,0.0,-2.1688,-2.1773,-2.1832,-2.2063,-2.2605,-2.3208,-2.4132,-2.5296,-2.5654,-2.5478,-2.4816,0.0,0.0,0.0,0.0,0.0,0.0,0.0,0.0,0.0,0.0,0.0,0.0,0.0,0.0,0.0,0.0,0.0,0.0,0.0,0.0,0.0,0.0,0.0,0.0,0.0,0.0,-2.5474,-2.6096,-2.6794,0.0,0.0,0.0,0.0,0.0,0.0,0.0,0.0,0.0,0.0,-3.2672,-3.2672,-3.2698,-3.3409,-3.4232,-3.4952,-3.5277,-3.5629,-3.6415,-3.6062,-3.5873,0.0,0.0,0.0,0.0,0.0,0.0,0.0,0.0,0.0,0.0,0.0,0.0,0.0,0.0,0.0,0.0,0.0,0.0,0.0,0.0,0.0,0.0,0.0,0.0,0.0,0.0,0.0,-1.6713,-1.6912,0.0,0.0,0.0,0.0,0.0,0.0,0.0,0.0,0.0,0.0,0.0,-1.9589,-1.9436,0.0,0.0,0.0,0.0,0.0,0.0,0.0,0.0,0.0,0.0,0.0,0.0,-2.2045,-2.1797,-2.2006,-2.2233,-2.2484,-2.36,-2.4395,-2.476,-2.4913,-2.5041,-2.5039,0.0,0.0,0.0,0.0,0.0,0.0,0.0,0.0,0.0,0.0,0.0,0.0,0.0,0.0,0.0,0.0,0.0,0.0,0.0,0.0,0.0,0.0,0.0,0.0,0.0,-2.6579,0.0,0.0,0.0,0.0,0.0,0.0,0.0,0.0,0.0,0.0,0.0,-3.1655,-3.1549,-3.2691,-3.3354,-3.3086,-3.407,-3.5169,0.0,0.0,0.0,0.0,0.0,0.0,0.0,0.0,0.0,0.0,0.0,0.0,0.0,0.0,-3.6579,-3.6579,-3.6877,-3.7171,-3.741,0.0,0.0,0.0,0.0,0.0,0.0,0.0,0.0,0.0,0.0,0.0,0.0,0.0,0.0,0.0,0.0,-1.7486,0.0,0.0,0.0,0.0,0.0,0.0,0.0,0.0,-1.9678,-1.9887,-2.0008,-1.9712,-1.9641,0.0,-1.9641,-1.973,0.0,0.0,0.0,0.0,0.0,0.0,0.0,0.0,-2.2284,-2.1677,-2.2353,-2.2777,-2.3121,-2.4459,-2.5072,-2.4861,-2.4951,-2.5188,-2.5552,-2.5787,-2.5744,0.0,0.0,0.0,0.0,0.0,0.0,0.0,0.0,0.0,0.0,0.0,0.0,0.0,0.0,0.0,0.0,0.0,0.0,0.0,0.0,0.0,0.0,0.0,-2.7411,0.0,0.0,0.0,0.0,0.0,0.0,0.0,0.0,0.0,-3.162,-3.1797,-3.1797,-3.163,-3.3219,-3.4245,-3.372,0.0,0.0,0.0,0.0,0.0,0.0,0.0,-3.7353,-3.7542,-3.7741,-3.7908,-3.8125,-3.8152,-3.8152,-3.8152,0.0,0.0,-3.7609,-3.7585,-3.7754,-3.8006,-3.8089,-3.8284,-3.8504,-3.8422,-3.8505,0.0,0.0,0.0,0.0,0.0,0.0,0.0,0.0,-1.5363,-1.5749,0.0,-1.6728,0.0,0.0,0.0,0.0,0.0,-1.9377,0.0,0.0,-1.9957,-2.0514,-2.0823,-2.0463,-2.0497,-2.0857,-2.048,-2.0309,-2.0292,-1.9607,0.0,0.0,0.0,0.0,0.0,0.0,-2.2353,-2.1445,-2.273,-2.3828,-2.4526,-2.5643,-2.6107,-2.5672,-2.5847,-2.6021,-2.6325,-2.6448,-2.6491,-2.6325,-2.6341,0.0,0.0,0.0,0.0,0.0,0.0,0.0,0.0,0.0,0.0,0.0,0.0,0.0,0.0,0.0,0.0,0.0,0.0,0.0,0.0,-2.7525,0.0,0.0,0.0,0.0,0.0,0.0,0.0,0.0,0.0,0.0,-3.2113,-3.2239,-3.2351,-3.2661,0.0,0.0,0.0,0.0,-3.6393,-3.7289,-3.7069,-3.7144,-3.7906,-3.7817,-3.7714,-3.8282,0.0,0.0,-3.9183,-3.9292,-3.9264,-3.9292,-3.9237,-3.8939,-3.7826,-3.7663,-3.7636,-3.7636,-3.7663,-3.7609,-3.7609,-3.7803,-3.7912,-1.1461,0.0,0.0,0.0,0.0,-1.3982,-1.4565,-1.5055,-1.5744,-1.6497,-1.727,-1.7462,0.0,0.0,0.0,0.0,0.0,0.0,-2.0135,-1.9794,-2.0466,-2.0771,-2.0857,-2.048,-2.0617,-2.1234,-2.0891,-2.084,-2.1062,-2.0874,-2.0732,-2.0766,0.0,0.0,0.0,0.0,-2.2263,-2.1928,-2.2333,-2.3112,-2.4394,-2.5442,-2.6034,-2.6335,-2.6313,-2.6313,-2.6335,-2.6462,-2.6551,-2.6512,-2.7082,0.0,0.0,0.0,0.0,0.0,0.0,0.0,0.0,0.0,0.0,0.0,0.0,0.0,0.0,0.0,0.0,0.0,0.0,0.0,-2.7785,-2.8008,-2.8342,0.0,0.0,0.0,0.0,0.0,0.0,0.0,0.0,0.0,-3.1856,-3.2055,-3.2141,0.0,0.0,-3.4921,-3.4474,-3.5491,-3.6595,-3.7289,0.0,0.0,0.0,-3.8086,-3.8123,-3.8488,-3.8782,-3.9102,-3.9292,-3.9319,-3.9319,-3.9319,-3.9319,-3.9183,-3.8884,-3.8803,-3.8776,-3.8803,-3.8803,-3.8803,-3.8803,-3.8803,-3.8918,-1.115,-1.1839,-1.2789,-1.3171,-1.3205,-1.4388,-1.512,-1.5426,-1.5969,-1.6613,-1.7413,-1.7413,-1.7796,-1.8474,-1.9136,0.0,0.0,0.0,-2.0033,-1.9876,-2.0379,-2.0813,-2.1079,-2.084,-2.1045,-2.161,-2.1268,-2.1199,-2.1405,-2.1405,-2.1277,-2.1015,0.0,0.0,-2.1813,-2.2297,-2.248,-2.2398,-2.2826,-2.3522,-2.4672,-2.5643,-2.6451,-2.6982,-2.6891,-2.6801,-2.6891,-2.7062,-2.7083,-2.7093,-2.7623,-2.7913,0.0,0.0,0.0,0.0,0.0,0.0,0.0,0.0,0.0,0.0,0.0,-2.7782,0.0,0.0,0.0,0.0,-2.8069,-2.8287,-2.8593,-2.8861,0.0,0.0,0.0,0.0,0.0,0.0,0.0,-3.1341,-3.157,-3.1846,-3.203,-3.2134,-3.2254,-3.2559,-3.4145,-3.5375,-3.542,0.0,-3.7295,-3.8109,-3.8122,-3.8239,-3.8794,-3.8992,-3.9084,-3.9203,-3.957,-3.9816,-3.9816,-3.9627,-3.9492,-3.9465,-3.9276,-3.9114,-3.9024,-3.9114,-3.9319,-3.9319,-3.9319,-3.9319,-3.9319,-3.9319,-3.9407,-1.1082,-1.1708,-1.3257,-1.3923,-1.3857,-1.4706,-1.5429,-1.5948,-1.5973,-1.6276,-1.668,-1.678,-1.7182,-1.7967,-1.9028,0.0,-1.8969,-1.9463,-1.976,-1.9711,-2.0197,-2.0685,-2.1456,-2.1422,-2.1627,-2.2038,-2.1645,-2.1473,-2.1508,-2.1508,-2.1508,-2.149,-2.2065,-2.2351,-2.2221,-2.2695,-2.2939,-2.3107,-2.3916,-2.4584,-2.5176,-2.6174,-2.6991,-2.7635,-2.7289,-2.7289,-2.7748,-2.795,-2.79,-2.7769,-2.8136,-2.8466,-2.8746,0.0,0.0,0.0,0.0,0.0,0.0,0.0,0.0,0.0,0.0,0.0,0.0,0.0,0.0,0.0,-2.9248,0.0,-2.9532,-2.9947,0.0,0.0,0.0,-3.1128,-3.1321,-3.1677,-3.1938,-3.1961,0.0,0.0,-3.2604,0.0,-3.2831,-3.3455,-3.4892,-3.6202,-3.6989,-3.7609,-3.8423,-3.9364,-3.9318,-3.9254,-3.9649,-3.9944,-4.0133,-4.0133,-4.0522,-4.0562,-4.0602,-4.0253,-3.993,-3.9811,-3.9419,-3.8979,-3.8826,-3.9177,-3.9454,-3.9509,-3.9373,-3.9319,-3.94,-3.9427,-3.9454,-1.2055,-1.3204,-1.4525,-1.4545,-1.3992,-1.5009,-1.5609,-1.5944,-1.6143,-1.6545,-1.7069,-1.7277,-1.7901,-1.864,-1.8964,-1.9328,-1.9821,-2.0342,-2.0651,-2.0801,-2.1374,-2.1654,-2.1833,-2.1559,-2.1764,-2.2364,-2.2038,-2.2004,-2.2261,-2.2477,-2.2477,-2.2378,-2.3072,-2.3126,-2.2646,-2.2937,-2.3712,-2.4932,-2.4727,-2.5083,-2.6035,-2.688,-2.7474,-2.7661,-2.7755,-2.7828,-2.7921,-2.7934,-2.8049,-2.8222,-2.833,-2.8373,-2.8466,-2.8466,0.0,0.0,0.0,0.0,0.0,0.0,0.0,0.0,0.0,-2.8861,-2.8861,0.0,-2.8899,0.0,-2.9751,-3.0035,-3.0057,-3.0144,0.0,0.0,-3.1007,-3.1547,-3.1645,-3.2696,-3.3453,-3.3476,-3.365,-3.3823,-3.4234,-3.3594,-3.3692,-3.5046,-3.5868,-3.6329,-3.6574,-3.8133,-3.9285,-3.9547,-3.952,-3.9537,-3.9695,-3.986,-4.0076,-4.0023,-4.0239,-4.0428,-4.0455,-4.0509,-4.0401,-4.0214,-4.0228,-4.0214,-3.9881,-4.0121,-4.0372,-4.0318,-3.9762,-3.9427,-3.9861,-3.997,-4.0106,-1.1521,-1.2708,-1.3952,-1.4446,-1.4415,-1.5529,-1.6245,-1.67,-1.685,-1.7239,-1.7767,-1.7956,-1.8245,-1.8632,-1.8919,-1.936,-2.0061,-2.028,-2.0797,-2.126,-2.1578,-2.1761,-2.2004,-2.1936,-2.2227,-2.2792,-2.2586,-2.2689,-2.3117,-2.3184,-2.33,-2.3384,-2.3627,-2.3917,-2.4177,-2.4276,-2.4889,-2.6237,-2.6045,-2.6248,-2.6665,-2.7297,-2.762,-2.7641,-2.7715,-2.7904,-2.7998,-2.8092,-2.8279,-2.8395,-2.8488,-2.856,-2.856,-2.856,-2.8712,0.0,0.0,0.0,0.0,0.0,0.0,0.0,0.0,0.0,0.0,0.0,-2.951,-2.9794,-3.0231,-3.0515,-3.0515,-3.093,-3.1171,-3.1171,-3.2015,-3.2508,-3.2712,-3.3389,-3.4038,-3.4349,-3.4175,-3.417,-3.4479,-3.4576,-3.4785,-3.562,-3.6549,-3.7229,-3.7194,-3.826,-3.9174,-3.9762,-3.9953,-4.0069,-4.0305,-4.0455,-4.0526,-4.0526,-4.072,-4.094,-4.0914,-4.0797,-4.0733,-4.0516,-4.0425,-4.0239,-4.005,-4.0239,-4.0522,-4.0442,-4.0199,-4.0086,-4.0513,-4.0594,-4.073,-1.0909,-1.1936,-1.3317,-1.4479,-1.5292,-1.641,-1.7129,-1.7477,-1.7489,-1.7824,-1.8477,-1.8537,-1.8573,-1.8674,-1.9023,-1.9573,-2.0147,-2.0163,-2.0686,-2.1514,-2.1578,-2.1744,-2.2158,-2.2518,-2.286,-2.3186,-2.3186,-2.3357,-2.3754,-2.3652,-2.3891,-2.4368,-2.4263,-2.4783,-2.6184,-2.6102,-2.6396,-2.7172,-2.7602,-2.7696,-2.742,-2.7676,-2.7809,-2.7809,-2.7746,-2.782,-2.8083,-2.8322,-2.8395,-2.8488,-2.8653,-2.8861,-2.8861,-2.8811,-2.9283,0.0,-2.9811,0.0,0.0,0.0,0.0,0.0,0.0,0.0,0.0,-3.0319,-3.0384,-3.0406,-3.0821,-3.1105,-3.1171,-3.1913,-3.2416,-3.2481,-3.3171,-3.3626,-3.3816,-3.3989,-3.4351,-3.4795,-3.4328,-3.4146,-3.4719,-3.5879,-3.6418,-3.5991,-3.699,-3.7989,-3.808,-3.8515,-3.9196,-4.0185,-4.0588,-4.1036,-4.1428,-4.1533,-4.1533,-4.1533,-4.1734,-4.1834,-4.1808,-4.1538,-4.1169,-4.0965,-4.072,-4.0254,-3.986,-4.0219,-4.0505,-4.0653,-4.0884,-4.1019,-4.1152,-4.1218,-4.1272,-1.3596,-1.5278,-1.5899,-1.6763,-1.7611,-1.7625,-1.7402,-1.693,-1.6918,-1.7365,-1.8131,-1.8631,-1.9203,-1.9758,-1.9896,-2.0446,-2.1322,-2.1322,-2.1694,-2.2347,-2.2588,-2.2774,-2.2929,-2.3271,-2.3494,-2.3562,-2.3562,-2.3702,-2.4088,-2.4228,-2.4611,-2.5216,-2.5554,-2.6442,-2.7673,0.0,0.0,0.0,-2.8758,-2.9123,-2.892,-2.8985,-2.8951,-2.8733,-2.857,0.0,-2.8551,-2.8516,-2.8488,-2.8768,-2.8746,0.0,0.0,0.0,0.0,0.0,0.0,0.0,0.0,0.0,0.0,0.0,-3.152,-3.1476,-3.0362,-3.0908,-3.1367,-3.1367,-3.1804,-3.2263,-3.2612,-3.2481,-3.2525,-3.2896,-3.3453,-3.3838,-3.3966,-3.4706,-3.5276,-3.5405,-3.5631,-3.5999,-3.6424,-3.7793,-3.8319,-3.7402,-3.7307,-3.7682,-3.8752,-3.9692,-4.0514,-4.1271,-4.1931,-4.25,-4.2683,-4.2657,-4.2579,-4.2709,-4.2709,-4.276,-4.2734,-4.2758,-4.2598,-4.2128,-4.197,-4.1808,-4.1188,-4.138,-4.1746,-4.1746,-4.2162,-4.2316,-4.1924,-4.1842,-4.1978,-1.3537,0.0,-1.5908,-1.6786,0.0,-1.7887,-1.7973,-1.7701,-1.7444,-1.7805,-1.8467,-1.9236,-1.9843,-2.042,-2.0834,-2.1486,-2.227,-2.227,-2.2582,-2.31,-2.3306,-2.3374,-2.3391,-2.358,-2.3768,-2.3939,-2.3939,-2.4149,-2.4628,-2.4987,-2.5532,-2.6248,-2.6473,-2.731,-2.8674,-2.9188,-2.9414,-2.9207,-2.9803,-3.0003,-2.9698,-2.9657,-2.9501,-2.9204,0.0,0.0,0.0,0.0,0.0,0.0,0.0,0.0,0.0,0.0,0.0,-3.0874,-3.069,-3.0756,-3.1236,-3.1498,-3.1738,-3.1957,-3.2437,-3.2416,-3.1673,-3.2066,-3.2328,-3.235,-3.2569,-3.2809,-3.3027,-3.3071,-3.3287,-3.3614,-3.4073,-3.4575,-3.4791,-3.521,-3.5677,-3.6145,-3.6447,-3.6792,-3.7588,-3.8524,-3.9055,-3.862,-3.8344,-3.8344,-3.9101,-3.9961,-4.0956,-4.2157,-4.2683,-4.3023,-4.3023,-4.3023,-4.3023,-4.3023,-4.3023,-4.3023,-4.3023,-4.3127,-4.2996,-4.2657,-4.2708,-4.2679,-4.2469,-4.2669,-4.287,-4.3172,-4.3372,-4.3453,-4.3009,-4.2656,-4.2521,-1.3392,-1.4257,-1.5648,-1.6659,-1.7405,-1.8125,-1.8582,-1.8741,0.0,0.0,0.0,-1.9878,-2.0492,-2.0873,-2.1728,-2.2452,-2.3028,-2.3028,-2.3241,-2.3665,-2.3734,-2.3751,-2.3768,-2.3836,-2.4025,-2.4333,-2.4333,-2.4706,-2.5423,-2.5883,-2.6574,-2.74,-2.7486,-2.8124,-2.9435,-3.0099,-3.0495,-3.0474,-3.0525,-3.0536,-3.0333,-3.0149,-2.9955,-2.9778,-2.987,-2.9925,-2.9925,-3.0155,-3.0209,-3.0209,-3.0209,-2.9808,-2.9104,-2.9937,-3.091,-3.1739,-3.1482,-3.1651,-3.2437,-3.2503,-3.27,-3.3158,-3.3202,-3.3158,-3.3093,-3.3136,-3.318,-3.3202,-3.318,-3.3224,-3.3311,-3.3595,-3.3967,-3.4449,-3.4847,-3.5469,-3.5979,-3.5891,-3.6294,-3.6992,-3.704,-3.7269,-3.8228,-3.8827,-3.936,-3.9334,-3.9193,-3.9426,-3.9663,-4.029,-4.1355,-4.2806,-4.3256,-4.3363,-4.3337,-4.3389,-4.3337,-4.3415,-4.3389,-4.3337,-4.331,-4.331,-4.3284,-4.318,-4.318,-4.331,-4.3465,-4.3489,-4.3774,-4.4259,-4.428,-4.4165,-4.3877,-4.3308,-4.29,-1.5724,-1.7011,-1.715,-1.7919,-1.8812,-1.8722,-1.8741,-1.8875,-1.9031,-1.909,-1.8932,-2.0071,-2.0925,-2.141,-2.2402,-2.3112,-2.3559,-2.3559,-2.3665,0.0,-2.4008,-2.4162,-2.4162,-2.4504,-2.4693,-2.4744,-2.4727,-2.5296,-2.6191,-2.6372,-2.7201,-2.8608,-2.8866,-2.9181,-2.9891,-3.0495,-3.0724,-3.0724,-3.097,-3.1235,-3.1418,-3.117,-3.1025,-3.0922,-3.0615,-3.04,-3.04,-3.0329,-3.0209,-3.0209,-3.0209,-3.009,-3.009,-3.0852,-3.1891,-3.2779,-3.2774,-3.2831,-3.2962,-3.2984,-3.318,-3.3639,-3.3683,-3.3508,-3.3115,-3.3442,-3.3683,-3.3704,-3.3704,-3.3879,-3.4229,-3.4032,-3.4317,-3.5334,-3.5758,-3.632,-3.702,-3.7291,-3.745,-3.7678,-3.7931,-3.8183,-3.8573,-3.8964,-3.9357,-3.9285,-3.9308,-3.9521,-4.0408,-4.1233,-4.2264,-4.3508,-4.4162,-4.4379,-4.4356,-4.4487,-4.4382,-4.4487,-4.4408,-4.4356,-4.4356,-4.4356,-4.4199,-4.3833,-4.3966,-4.3992,-4.3753,-4.3877,-4.4264,-4.4468,-4.43,-4.4067,-4.3932,-4.3389,-4.2955,-1.6802,-1.7695,-1.7961,-1.8431,-1.906,-1.9333,-1.9374,-1.9372,-1.9846,-1.964,-1.9338,-2.0888,-2.1768,-2.1969,-2.3324,-2.4014,-2.4299,-2.4299,-2.4282,-2.4299,-2.4562,-2.4648,-2.4556,-2.5058,-2.5453,-2.5869,-2.598,-2.6645,-2.7506,-2.7943,-2.8388,-2.9046,-2.9448,-2.9784,-3.0203,-3.062,-3.0827,-3.1013,-3.1219,-3.1424,-3.1629,-3.1527,-3.1424,-3.1424,-3.1207,-3.1099,-3.1099,-3.0983,-3.0974,-3.0974,-3.0974,-3.0996,-3.0996,-3.1651,-3.2635,-3.374,-3.3426,-3.318,-3.3442,-3.3704,-3.3945,-3.4163,-3.4185,-3.4098,-3.3879,-3.4054,-3.4185,-3.4207,-3.4403,-3.4644,-3.4884,-3.5041,-3.5486,-3.627,-3.6657,-3.7088,-3.7497,-3.7679,-3.7907,-3.8183,-3.8413,-3.8642,-3.8941,-3.917,-3.9308,-3.9308,-3.9308,-3.9755,-4.1124,-4.1785,-4.2351,-4.3406,-4.4177,-4.4613,-4.4748,-4.4748,-4.4748,-4.4748,-4.4748,-4.4748,-4.4748,-4.4856,-4.4833,-4.4623,-4.4758,-4.4997,-4.4809,-4.5019,-4.5331,-4.5407,-4.5375,-4.518,-4.48,-4.404,-4.3308,-1.7664,-1.8267,-1.8606,-1.8887,-1.92,-1.9851,-1.9979,-1.9914,-2.0695,-2.0645,-2.0199,-2.1784,-2.2518,-2.2746,-2.4178,-2.4864,-2.4932,-2.4864,-2.4812,-2.4923,-2.5103,-2.5155,-2.5061,-2.567,-2.631,-2.6897,-2.7289,-2.7788,-2.8668,-2.9154,-2.9347,-2.9489,-2.9994,-3.0308,-3.0495,-3.0724,-3.0974,-3.1245,-3.1576,-3.1738,-3.1629,-3.1629,-3.1629,-3.1629,-3.1629,-3.1629,-3.1629,-3.1629,-3.1629,-3.1629,-3.1629,-3.1549,-3.1658,-3.2241,-3.3188,-3.4268,-3.3785,-3.3551,-3.3923,-3.4294,-3.4513,-3.4646,-3.4646,-3.469,-3.4889,-3.4911,-3.4799,-3.4731,-3.5081,-3.5479,-3.5523,-3.6016,-3.6693,-3.7151,-3.7404,-3.7702,-3.8114,-3.8137,-3.8275,-3.8665,-3.8734,-3.8918,-3.9193,-3.9308,-3.9426,-3.9638,-3.9638,-4.0363,-4.1818,-4.2248,-4.2737,-4.3422,-4.4281,-4.4639,-4.4748,-4.4748,-4.4748,-4.4748,-4.4748,-4.4748,-4.4748,-4.4964,-4.5072,-4.5127,-4.5368,-4.5635,-4.5874,-4.6085,-4.6164,-4.6319,-4.613,-4.594,-4.5316,-4.461,-4.3715,-1.8893,-1.9352,-1.9446,-1.9289,-1.9212,-1.9851,-2.0081,-2.0284,-2.1768,-2.2241,-2.1961,-2.2348,-2.299,-2.3877,-2.4519,-2.5001,-2.5258,-2.4967,-2.4941,-2.5197,-2.5267,-2.5535,-2.5796,-2.6644,-2.72,-2.7391,-2.7865,-2.8468,-2.9322,-2.9287,-2.97,-3.0516,-3.0724,-3.0766,-3.0849,-3.1034,-3.1331,-3.1823,-3.218,-3.2088,-3.1651,-3.1629,-3.1629,-3.1629,-3.1629,-3.1629,-3.1673,-3.1629,-3.1629,-3.1629,-3.1651,-3.1555,-3.1672,-3.2444,-3.3482,-3.4403,-3.4428,-3.4425,-3.4447,-3.4513,-3.4668,-3.4869,-3.5024,-3.5335,-3.5915,-3.5982,-3.5735,-3.5483,-3.5835,-3.6214,-3.6352,-3.6649,-3.7241,-3.7856,-3.804,-3.8316,-3.8938,-3.917,-3.9193,-3.9216,-3.9285,-3.9262,-3.9354,-3.94,-3.9731,-4.0317,-4.0433,-4.1041,-4.2421,-4.2987,-4.3361,-4.4026,-4.4539,-4.4666,-4.4748,-4.4748,-4.4748,-4.4748,-4.4748,-4.4748,-4.4722,-4.4722,-4.4856,-4.518,-4.5502,-4.5715,-4.5928,-4.6245,-4.6482,-4.6428,-4.613,-4.556,-4.499,-4.4719,-4.423,-1.9646,-1.9917,-1.9603,-1.9314,-1.9224,-1.9851,-2.0361,-2.0843,-2.1978,-2.2921,-2.3581,-2.3904,-2.4029,-2.4089,-2.4754,-2.5241,-2.536,-2.5206,-2.5388,-2.5691,-2.6416,-2.6828,-2.6828,-2.7847,-2.8518,-2.8933,-2.9121,-2.947,-3.0099,-3.0237,-3.0453,-3.083,-3.1359,-3.1635,-3.1463,-3.1825,-3.2146,-3.2338,-3.2637,-3.2827,-3.2801,-3.2608,-3.2481,-3.2481,-3.2481,-3.2481,-3.2481,-3.2481,-3.2481,-3.2481,-3.2481,-3.2227,-3.1678,-3.2771,-3.3878,-3.4427,-3.4449,-3.4534,-3.4534,-3.4887,-3.5175,-3.5175,-3.5779,-3.6137,-3.6108,-3.6511,-3.6551,-3.6224,-3.6728,-3.7072,-3.7211,-3.7668,-3.8173,-3.8517,-3.9003,-3.9396,-3.9698,-4.002,-4.0112,-3.9836,-4.002,-4.0066,-3.9882,-4.002,-4.0163,-4.0432,-4.0787,-4.1798,-4.3051,-4.34,-4.3934,-4.4712,-4.4895,-4.4666,-4.4748,-4.4748,-4.4748,-4.4748,-4.4748,-4.4748,-4.4748,-4.4856,-4.5072,-4.5206,-4.5502,-4.5795,-4.6007,-4.6245,-4.6482,-4.6401,-4.6374,-4.594,-4.5343,-4.5234,-4.4827,-2.0066,-2.0207,-1.9772,-1.9732,-1.9807,-2.0246,-2.0975,-2.1837,-2.2774,-2.384,-2.4843,-2.5206,-2.5222,-2.4779,-2.5337,-2.5566,-2.5652,-2.5566,-2.5898,-2.6504,-2.7308,-2.782,-2.8085,-2.8988,-2.9826,-3.0326,-3.0258,-3.0478,-3.0933,-3.1251,-3.1423,-3.157,-3.2105,-3.2362,-3.2295,-3.2598,-3.29,-3.2944,-3.3116,-3.3463,-3.3746,-3.3616,-3.3355,-3.3115,-3.3071,-3.3071,-3.3071,-3.3071,-3.3071,-3.3071,-3.3071,-3.2792,-3.2126,-3.3226,-3.412,-3.4714,-3.4847,-3.4955,-3.4955,-3.5599,-3.5979,-3.5887,-3.6677,-3.6924,-3.6894,-3.7183,-3.7546,-3.7466,-3.782,-3.8033,-3.7865,-3.8484,-3.9016,-3.9181,-3.9831,-4.0249,-4.0295,-4.0617,-4.0663,-4.0364,-4.0525,-4.0709,-4.0531,-4.0768,-4.1201,-4.1257,-4.2016,-4.3008,-4.4195,-4.4523,-4.4763,-4.5813,-4.548,-4.4957,-4.48,-4.4748,-4.4748,-4.4748,-4.4748,-4.4748,-4.4748,-4.4964,-4.518,-4.518,-4.5609,-4.5928,-4.6007,-4.6245,-4.6482,-4.6482,-4.6428,-4.6319,-4.5912,-4.5831,-4.5668,-2.0095,-2.0255,-1.9977,-2.0497,-2.1371,-2.1487,-2.2268,-2.3486,-2.4237,-2.4949,-2.5529,-2.6156,-2.6439,-2.627,-2.6097,-2.6114,-2.6336,-2.6062,-2.6521,-2.7609,-2.7477,-2.8196,-2.968,-3.025,-3.0769,-3.1217,-3.1187,-3.1308,-3.1466,-3.1955,-3.2491,-3.2984,-3.2986,-3.3093,-3.3049,-3.3115,-3.3311,-3.3704,-3.377,-3.3967,-3.436,-3.4425,-3.3967,-3.3246,-3.3093,-3.3265,-3.3115,-3.3093,-3.3115,-3.3093,-3.3244,-3.3095,-3.3074,-3.377,-3.4558,-3.5245,-3.5826,-3.6095,-3.614,-3.6543,-3.6949,-3.72,-3.7383,-3.7679,-3.8157,-3.8364,-3.857,-3.9098,-3.898,-3.8885,-3.85,-3.9077,-3.959,-3.9997,-4.0456,-4.0755,-4.0778,-4.0892,-4.0846,-4.08,-4.0846,-4.0869,-4.08,-4.163,-4.2304,-4.3044,-4.4078,-4.5208,-4.6078,-4.6394,-4.6465,-4.6595,-4.6264,-4.5375,-4.4905,-4.4748,-4.4748,-4.4748,-4.4748,-4.4748,-4.4722,-4.4722,-4.4964,-4.518,-4.5502,-4.5715,-4.6034,-4.6245,-4.6482,-4.6482,-4.6482,-4.6347,-4.6238,-4.6374,-4.6238,-2.0383,-2.0403,-2.0969,-2.1353,-2.1542,-2.242,-2.3446,-2.429,-2.4983,-2.5578,-2.6205,-2.6692,-2.6866,-2.685,-2.673,-2.6593,-2.6592,-2.6924,-2.7562,-2.8363,-2.9332,-3.0199,-3.0777,-3.1244,-3.1523,-3.1697,-3.156,-3.1605,-3.204,-3.2641,-3.3052,-3.3224,-3.3704,-3.3857,-3.3639,-3.3835,-3.4098,-3.425,-3.425,-3.436,-3.4491,-3.4534,-3.4338,-3.4032,-3.423,-3.4339,-3.4339,-3.4339,-3.4339,-3.4558,-3.4449,-3.4362,-3.4406,-3.489,-3.5244,-3.5445,-3.5871,-3.6162,-3.6365,-3.7131,-3.7582,-3.7605,-3.8225,-3.8453,-3.854,-3.8585,-3.8748,-3.8693,-3.8738,-3.8709,-3.9288,-3.9613,-3.9945,-4.0158,-4.08,-4.1306,-4.1374,-4.1558,-4.1673,-4.1397,-4.1306,-4.1306,-4.1499,-4.1932,-4.225,-4.2437,-4.3673,-4.4992,-4.5885,-4.627,-4.6761,-4.6996,-4.6395,-4.5558,-4.5375,-4.4931,-4.4748,-4.4748,-4.4748,-4.4748,-4.4722,-4.4722,-4.4856,-4.5099,-4.5421,-4.5822,-4.6168,-4.638,-4.6591,-4.6482,-4.6482,-4.6482,-4.6482,-4.6564,-4.6537,-2.0695,-2.0674,-2.1513,-2.2031,-2.2467,-2.3594,-2.4553,-2.5203,-2.5853,-2.6305,-2.6709,-2.6952,-2.7073,-2.7194,-2.7435,-2.7297,-2.6917,-2.7712,-2.8564,-2.9493,-3.0548,-3.1261,-3.1687,-3.1912,-3.2126,-3.2209,-3.2093,-3.2175,-3.2617,-3.3265,-3.3638,-3.3617,-3.4229,-3.436,-3.4141,-3.436,-3.4534,-3.4534,-3.4534,-3.4513,-3.4534,-3.4646,-3.4646,-3.4758,-3.498,-3.5091,-3.498,-3.5002,-3.5091,-3.5312,-3.5202,-3.5246,-3.558,-3.6049,-3.6273,-3.6296,-3.6725,-3.6974,-3.7065,-3.7997,-3.843,-3.8218,-3.8843,-3.9117,-3.8919,-3.9061,-3.9129,-3.9145,-3.9213,-3.9492,-3.9886,-4.0334,-4.0548,-4.064,-4.1306,-4.1811,-4.1834,-4.2132,-4.2132,-4.1903,-4.1834,-4.1834,-4.1982,-4.2613,-4.2966,-4.2685,-4.4232,-4.561,-4.6024,-4.6642,-4.7127,-4.744,-4.6865,-4.6395,-4.6159,-4.5846,-4.5062,-4.4931,-4.4826,-4.48,-4.4748,-4.4748,-4.4856,-4.5099,-4.5501,-4.5929,-4.6302,-4.6648,-4.6672,-4.6564,-4.6482,-4.6482,-4.6564,-4.6699,-4.6781,-2.0931,-2.1271,-2.1726,-2.266,-2.3894,-2.478,-2.5659,-2.6428,-2.686,-2.703,-2.7158,-2.709,-2.7073,-2.7315,-2.802,-2.8104,-2.7829,-2.8408,-2.9474,-3.0917,-3.0908,-3.1539,-3.2571,-3.2313,-3.2313,-3.2758,-3.3027,-3.3247,-3.3418,-3.3785,-3.4202,-3.4469,-3.4447,-3.4491,-3.4491,-3.4491,-3.4534,-3.4534,-3.4534,-3.4534,-3.4534,-3.4869,-3.498,-3.498,-3.5202,-3.5335,-3.5135,-3.5002,-3.5224,-3.5468,-3.5468,-3.578,-3.6566,-3.7223,-3.7724,-3.7747,-3.8229,-3.8504,-3.8573,-3.8941,-3.9098,-3.9121,-3.9308,-3.9561,-3.9762,-4.002,-4.0226,-4.0426,-4.0541,-4.0655,-4.0747,-4.1168,-4.142,-4.1581,-4.1926,-4.2224,-4.227,-4.2316,-4.2316,-4.227,-4.2247,-4.2316,-4.2696,-4.3553,-4.4251,-4.4695,-4.5885,-4.7103,-4.718,-4.7522,-4.8094,-4.8015,-4.7492,-4.6944,-4.6917,-4.6787,-4.5872,-4.514,-4.4983,-4.4879,-4.4774,-4.4748,-4.4748,-4.5017,-4.5927,-4.6384,-4.7136,-4.7351,-4.7188,-4.7052,-4.6808,-4.6754,-4.6971,-4.7188,-4.7296,-2.1108,-2.1739,-2.258,-2.3483,-2.4479,-2.5927,-2.6726,-2.6991,-2.7368,-2.7429,-2.7415,-2.7176,-2.7073,-2.7315,-2.802,-2.8719,-2.9176,-3.0001,-3.0606,-3.082,-3.1626,-3.2219,-3.2664,-3.2809,-3.3035,-3.3275,-3.3636,-3.3797,-3.3914,-3.4246,-3.4423,-3.4513,-3.4534,-3.4534,-3.4534,-3.4534,-3.4534,-3.4534,-3.4534,-3.4646,-3.4869,-3.498,-3.5091,-3.5312,-3.5312,-3.5557,-3.6005,-3.5602,-3.5713,-3.645,-3.6362,-3.6589,-3.7382,-3.7883,-3.7975,-3.7862,-3.8298,-3.8596,-3.8642,-3.9033,-3.9354,-3.9377,-3.9629,-3.9859,-4.0066,-4.041,-4.064,-4.0823,-4.0823,-4.0938,-4.1283,-4.1466,-4.1581,-4.1581,-4.2017,-4.2339,-4.2339,-4.2339,-4.2339,-4.2339,-4.2696,-4.2949,-4.3075,-4.3927,-4.4546,-4.4915,-4.601,-4.6849,-4.7087,-4.7821,-4.8172,-4.8146,-4.7702,-4.7414,-4.7336,-4.71,-4.6447,-4.5715,-4.5401,-4.4983,-4.4826,-4.4748,-4.4856,-4.5415,-4.6301,-4.6974,-4.7731,-4.792,-4.7785,-4.7703,-4.7649,-4.7649,-4.7703,-4.7785,-4.792,-2.1505,-2.2123,-2.3224,-2.4145,-2.5107,-2.6536,-2.7317,-2.7427,-2.7832,-2.7963,-2.7916,-2.8079,-2.8009,-2.8129,-2.9177,-2.9799,-3.0255,-3.1305,-3.1536,-3.1092,-3.2038,-3.2727,-3.2841,-3.3182,-3.3523,-3.3791,-3.4146,-3.4372,-3.4332,-3.4749,-3.4884,-3.46,-3.4862,-3.4862,-3.46,-3.4687,-3.4709,-3.4556,-3.4534,-3.4624,-3.4825,-3.5069,-3.5402,-3.578,-3.5914,-3.6273,-3.6905,-3.6454,-3.6543,-3.7175,-3.7246,-3.752,-3.8068,-3.8436,-3.8528,-3.8459,-3.8826,-3.9147,-3.917,-3.9652,-3.9859,-3.9928,-4.0158,-4.0433,-4.0617,-4.0961,-4.1122,-4.1352,-4.142,-4.1512,-4.1788,-4.1857,-4.1857,-4.1857,-4.2132,-4.2316,-4.2339,-4.2339,-4.2339,-4.2339,-4.2696,-4.2822,-4.3075,-4.3927,-4.4422,-4.4915,-4.601,-4.6849,-4.7205,-4.7703,-4.8055,-4.8146,-4.7937,-4.7754,-4.7675,-4.7362,-4.6944,-4.6395,-4.5898,-4.5297,-4.4879,-4.48,-4.4774,-4.616,-4.713,-4.7808,-4.8435,-4.8572,-4.849,-4.849,-4.8355,-4.8138,-4.8056,-4.8409,-4.8545,-2.1988,-2.2552,-2.3609,-2.4705,-2.5689,-2.6807,-2.751,-2.7781,-2.8435,-2.8511,-2.8507,-2.8959,-2.9277,-2.9514,-3.0787,-3.119,-3.0957,-3.2084,-3.2547,-3.2275,-3.2642,-3.3122,-3.3317,-3.3523,-3.3861,-3.4151,-3.461,-3.4723,-3.4597,-3.543,-3.5517,-3.4862,-3.5452,-3.5517,-3.4949,-3.5059,-3.5037,-3.4799,-3.4644,-3.4756,-3.4736,-3.5291,-3.5981,-3.6746,-3.6769,-3.6974,-3.7633,-3.7634,-3.7634,-3.7907,-3.8137,-3.8389,-3.8688,-3.9078,-3.9449,-3.9308,-3.979,-3.9997,-4.0181,-4.0387,-4.0686,-4.0663,-4.0778,-4.1053,-4.1374,-4.1512,-4.1765,-4.2109,-4.2178,-4.2247,-4.227,-4.227,-4.227,-4.2316,-4.2316,-4.2339,-4.2339,-4.2339,-4.2339,-4.2339,-4.2339,-4.2339,-4.257,-4.3927,-4.4792,-4.5281,-4.6491,-4.7324,-4.7703,-4.7938,-4.8172,-4.812,-4.8068,-4.8015,-4.7911,-4.7832,-4.744,-4.6917,-4.6447,-4.595,-4.5349,-4.5328,-4.5678,-4.6937,-4.7829,-4.8538,-4.903,-4.903,-4.906,-4.8897,-4.868,-4.8409,-4.8517,-4.8924,-4.9144,-2.2549,-2.358,-2.4411,-2.5262,-2.6229,-2.7466,-2.8101,-2.8229,-2.8605,-2.8734,-2.8707,-2.8794,-2.9386,-2.9614,-3.1085,-3.1719,-3.1939,-3.3044,-3.363,-3.3422,-3.3809,-3.398,-3.3877,-3.3995,-3.4108,-3.4419,-3.4967,-3.5032,-3.5081,-3.5714,-3.5845,-3.5605,-3.5845,-3.6005,-3.5879,-3.5808,-3.5725,-3.5735,-3.5865,-3.5776,-3.5804,-3.6455,-3.711,-3.745,-3.7473,-3.7748,-3.8344,-3.8734,-3.8595,-3.8436,-3.8826,-3.9101,-3.917,-3.9913,-4.0167,-3.9951,-4.0318,-4.0617,-4.0663,-4.0778,-4.0846,-4.0869,-4.1191,-4.142,-4.1558,-4.1926,-4.2155,-4.2339,-4.2339,-4.2339,-4.2339,-4.2339,-4.2339,-4.2339,-4.2339,-4.2339,-4.2339,-4.2339,-4.2339,-4.2339,-4.2696,-4.2822,-4.32,-4.4299,-4.5525,-4.5889,-4.6849,-4.7821,-4.7938,-4.8055,-4.8172,-4.8172,-4.8146,-4.8146,-4.8146,-4.8146,-4.7911,-4.7388,-4.7022,-4.6787,-4.6428,-4.6278,-4.7065,-4.807,-4.8369,-4.9027,-4.9464,-4.9739,-4.9549,-4.9304,-4.9359,-4.925,-4.9388,-4.9606,-4.9663,-2.3465,-2.4547,-2.5246,-2.6104,-2.7123,-2.7939,-2.8466,-2.8714,-2.8878,-2.9137,-2.9327,-3.003,-3.0427,-3.0903,-3.2383,-3.2894,-3.3031,-3.3829,-3.4261,-3.4232,-3.4752,-3.4816,-3.4776,-3.4804,-3.5032,-3.519,-3.5605,-3.5692,-3.5692,-3.6216,-3.6326,-3.6085,-3.6369,-3.6582,-3.6396,-3.6523,-3.6324,-3.627,-3.6449,-3.6541,-3.6477,-3.6997,-3.7839,-3.8228,-3.8298,-3.8367,-3.8849,-3.9147,-3.917,-3.901,-3.917,-3.94,-3.9629,-4.0214,-4.0514,-4.0364,-4.0846,-4.1145,-4.1191,-4.1306,-4.1466,-4.1489,-4.1765,-4.1857,-4.1948,-4.2178,-4.2339,-4.2339,-4.2339,-4.2339,-4.2339,-4.2339,-4.2339,-4.2339,-4.2339,-4.2339,-4.2339,-4.2339,-4.2339,-4.2466,-4.2593,-4.2949,-4.2949,-4.4546,-4.5403,-4.601,-4.6968,-4.7703,-4.8172,-4.8172,-4.8172,-4.8172,-4.8172,-4.8172,-4.8172,-4.8172,-4.8172,-4.7728,-4.7686,-4.7476,-4.7223,-4.7186,-4.7873,-4.853,-4.8996,-4.9324,-4.9707,-5.001,-4.9901,-4.9793,-4.9983,-4.9987,-4.9824,-4.9965,-5.0077,-2.4547,-2.5273,-2.6071,-2.7123,-2.8168,-2.8381,-2.8663,-2.9179,-2.9111,-2.9258,-2.9924,-3.1396,-3.1898,-3.2334,-3.3697,-3.4448,-3.4155,-3.4658,-3.4896,-3.5113,-3.551,-3.5778,-3.5756,-3.5729,-3.5801,-3.5889,-3.6435,-3.6369,-3.6304,-3.6915,-3.7013,-3.6684,-3.7122,-3.7229,-3.7044,-3.7155,-3.6955,-3.6809,-3.7036,-3.7311,-3.7405,-3.7679,-3.8251,-3.8943,-3.8827,-3.8826,-3.9147,-3.9308,-3.9285,-3.9308,-3.9308,-3.9538,-3.9951,-4.0232,-4.06,-4.0892,-4.1352,-4.165,-4.1696,-4.1994,-4.2247,-4.2224,-4.2247,-4.2339,-4.2293,-4.2316,-4.2339,-4.2339,-4.2339,-4.2339,-4.2339,-4.2339,-4.2339,-4.2339,-4.2339,-4.2339,-4.2339,-4.2339,-4.2339,-4.2339,-4.2339,-4.2339,-4.2822,-4.3802,-4.5159,-4.5159,-4.6371,-4.7324,-4.7821,-4.8055,-4.8055,-4.8172,-4.8172,-4.8172,-4.8172,-4.8172,-4.8172,-4.8041,-4.8247,-4.8179,-4.7959,-4.8,-4.8471,-4.8911,-4.9378,-4.9653,-4.9788,-5.001,-5.001,-5.001,-5.001,-4.9851,-4.9829,-4.9994,-5.0216,-2.5262,-2.6023,-2.7289,-2.7972,-2.8364,-2.851,-2.8819,-2.8871,-2.858,-2.8904,-2.9608,-3.0647,-3.1771,-3.2865,-3.4222,-3.4902,-3.5056,-3.5628,-3.6125,-3.6488,-3.685,-3.6948,-3.6752,-3.6391,-3.602,-3.6151,-3.6479,-3.6631,-3.6837,-3.7286,-3.767,-3.7657,-3.7777,-3.8246,-3.8185,-3.8022,-3.8376,-3.8526,-3.8407,-3.8362,-3.8596,-3.8641,-3.8964,-3.9288,-3.9147,-3.917,-3.9262,-3.9308,-3.9308,-3.9308,-3.9331,-3.9538,-4.0163,-4.115,-4.1591,-4.1522,-4.1834,-4.2155,-4.2178,-4.2247,-4.2339,-4.2339,-4.2339,-4.2339,-4.2339,-4.2339,-4.2339,-4.2339,-4.2339,-4.2339,-4.2339,-4.2339,-4.2339,-4.2339,-4.2339,-4.2339,-4.2339,-4.2339,-4.2339,-4.2339,-4.2339,-4.2339,-4.2339,-4.3451,-4.4299,-4.4422,-4.55,-4.6849,-4.7442,-4.7821,-4.8055,-4.8172,-4.8172,-4.8172,-4.8172,-4.8172,-4.8172,-4.8289,-4.8548,-4.8779,-4.8558,-4.8652,-4.9126,-4.9486,-4.9761,-4.9983,-5.001,-5.001,-5.001,-5.001,-4.9983,-5.0017,-5.0077,-5.0133,-5.0354,-2.6119,-2.6925,-2.7688,-2.8111,-2.8239,-2.8384,-2.8614,-2.8811,-2.8846,-2.9256,-3.0045,-3.1369,-3.2614,-3.3505,-3.4901,-3.5641,-3.5903,-3.6295,-3.6789,-3.7132,-3.7352,-3.7352,-3.733,-3.6937,-3.6631,-3.6675,-3.6872,-3.7122,-3.7352,-3.7723,-3.7976,-3.8118,-3.8358,-3.8455,-3.8812,-3.8716,-3.8839,-3.9078,-3.9053,-3.9075,-3.9242,-3.9334,-3.9308,-3.9308,-3.9308,-3.9308,-3.9308,-3.9308,-3.9308,-3.9308,-3.9331,-3.9538,-4.0209,-4.1457,-4.1993,-4.1752,-4.204,-4.2316,-4.2339,-4.2339,-4.2339,-4.2339,-4.2339,-4.2339,-4.2339,-4.2339,-4.2339,-4.2339,-4.2339,-4.2339,-4.2339,-4.2339,-4.2339,-4.2339,-4.2339,-4.2339,-4.2339,-4.2339,-4.2339,-4.2339,-4.2339,-4.2339,-4.257,-4.3576,-4.4299,-4.4915,-4.6371,-4.756,-4.7677,-4.8055,-4.8055,-4.8172,-4.8172,-4.8172,-4.8172,-4.8172,-4.8172,-4.8405,-4.8663,-4.8895,-4.8851,-4.9308,-4.9729,-4.9897,-4.9983,-4.9983,-5.001,-5.001,-5.001,-5.001,-5.0068,-5.0072,-5.0213,-5.0353,-5.0601,-2.681,-2.7596,-2.7647,-2.7933,-2.8186,-2.8134,-2.8271,-2.8621,-2.9243,-2.978,-3.0792,-3.2727,-3.3629,-3.4467,-3.5665,-3.6423,-3.6646,-3.6767,-3.7154,-3.7374,-3.7374,-3.7374,-3.733,-3.7287,-3.7363,-3.7495,-3.7451,-3.7594,-3.7834,-3.7998,-3.8238,-3.8477,-3.85,-3.8716,-3.8812,-3.893,-3.9026,-3.9262,-3.9285,-3.9285,-3.9262,-3.9285,-3.9308,-3.9308,-3.9308,-3.9308,-3.9308,-3.9308,-3.9354,-3.94,-3.94,-3.9675,-4.0324,-4.1144,-4.2086,-4.165,-4.2132,-4.2293,-4.2339,-4.2339,-4.2339,-4.2339,-4.2339,-4.2339,-4.2339,-4.2339,-4.2339,-4.2339,-4.2339,-4.2339,-4.2339,-4.2339,-4.2339,-4.2339,-4.2339,-4.2339,-4.2339,-4.2339,-4.2339,-4.2339,-4.2339,-4.2339,-4.2949,-4.3802,-4.4669,-4.5525,-4.6968,-4.8055,-4.8055,-4.8172,-4.8172,-4.8172,-4.8172,-4.8172,-4.8172,-4.8172,-4.8172,-4.8431,-4.8663,-4.8895,-4.9125,-4.9583,-4.9897,-4.9897,-5.001,-5.001,-5.001,-5.001,-5.001,-5.001,-5.0096,-5.0126,-5.038,-5.0547,-5.0821,-2.6661,-2.6852,-2.7798,-2.8203,-2.8134,-2.7843,-2.7758,-2.7916,-2.8888,-2.9806,-3.0885,-3.2863,-3.435,-3.5191,-3.63,-3.6911,-3.7132,-3.7253,-3.7253,-3.7374,-3.7374,-3.7374,-3.7495,-3.7495,-3.7616,-3.7758,-3.7878,-3.7998,-3.8238,-3.8596,-3.8574,-3.8693,-3.8953,-3.9167,-3.919,-3.919,-3.919,-3.9308,-3.9308,-3.9308,-3.9308,-3.9308,-3.9308,-3.9308,-3.9308,-3.9331,-3.9354,-3.9354,-3.9492,-3.9859,-3.9551,-3.9848,-4.0571,-4.1015,-4.1499,-4.1926,-4.2224,-4.2339,-4.2339,-4.2339,-4.2339,-4.2339,-4.2339,-4.2339,-4.2339,-4.2339,-4.2339,-4.2339,-4.2339,-4.2339,-4.2339,-4.2385,-4.2339,-4.2339,-4.2385,-4.2362,-4.2339,-4.2339,-4.2339,-4.2339,-4.2339,-4.2466,-4.3075,-4.3802,-4.4669,-4.5525,-4.673,-4.7442,-4.756,-4.7938,-4.8172,-4.8172,-4.8172,-4.8172,-4.8172,-4.8198,-4.8198,-4.8431,-4.8663,-4.901,-4.9354,-4.967,-4.9897,-5.001,-5.001,-5.001,-5.001,-5.001,-5.001,-5.001,-5.0096,-5.0208,-5.0489,-5.0768,-5.1127,-2.6736,-2.7142,-2.7685,-2.7775,-2.7604,-2.7415,-2.7572,-2.7956,-2.8972,-3.0156,-3.1608,-3.3291,-3.4718,-3.5683,-3.6667,-3.7275,-3.7374,-3.7374,-3.7374,-3.7374,-3.7374,-3.7495,-3.7637,-3.7616,-3.7976,-3.8216,-3.8335,-3.8358,-3.838,-3.8477,-3.8693,-3.8812,-3.9167,-3.9308,-3.9308,-3.9308,-3.9308,-3.9308,-3.9308,-3.9308,-3.9331,-3.9331,-3.9308,-3.9331,-3.9354,-3.9446,-3.9675,-3.9698,-3.9951,-4.0318,-4.0243,-4.0518,-4.1007,-4.143,-4.1637,-4.1926,-4.2201,-4.2339,-4.2339,-4.2339,-4.2339,-4.2339,-4.2339,-4.2339,-4.2339,-4.2339,-4.2339,-4.2339,-4.2339,-4.2339,-4.2339,-4.2568,-4.2591,-4.2454,-4.2545,-4.2591,-4.2454,-4.2385,-4.2408,-4.2431,-4.2408,-4.2535,-4.2822,-4.3678,-4.4669,-4.5622,-4.661,-4.7087,-4.7324,-4.7677,-4.8172,-4.8172,-4.8172,-4.8172,-4.8172,-4.8172,-4.8315,-4.8548,-4.8779,-4.8983,-4.9328,-4.9783,-4.9897,-5.001,-5.001,-5.001,-5.001,-5.001,-5.001,-5.001,-5.0123,-5.0208,-5.0683,-5.1017,-5.1238,-2.6884,-2.7378,-2.7501,-2.7381,-2.7331,-2.7314,-2.7783,-2.843,-2.9433,-3.0803,-3.22,-3.3983,-3.531,-3.6173,-3.6889,-3.7374,-3.7374,-3.7374,-3.7374,-3.7374,-3.7374,-3.7637,-3.7878,-3.7998,-3.8118,-3.8574,-3.8574,-3.8716,-3.8716,-3.8716,-3.8716,-3.893,-3.919,-3.9308,-3.9308,-3.9308,-3.9308,-3.9308,-3.9308,-3.9331,-3.9423,-3.9446,-3.9515,-3.9607,-3.9607,-3.9836,-4.0158,-4.0203,-4.06,-4.0923,-4.1107,-4.1291,-4.1581,-4.221,-4.2233,-4.1959,-4.2132,-4.2293,-4.2339,-4.2339,-4.2339,-4.2339,-4.2339,-4.2339,-4.2339,-4.2339,-4.2339,-4.2339,-4.2339,-4.2431,-4.2568,-4.2844,-4.2913,-4.289,-4.3005,-4.3119,-4.289,-4.2798,-4.2844,-4.2775,-4.2614,-4.2881,-4.3569,-4.4521,-4.5743,-4.6371,-4.7468,-4.756,-4.7821,-4.7938,-4.8172,-4.8172,-4.8172,-4.8172,-4.8172,-4.8172,-4.8315,-4.8548,-4.8895,-4.9098,-4.9442,-4.9783,-4.9897,-5.001,-5.001,-5.001,-5.001,-5.001,-5.001,-5.001,-5.001,-5.0348,-5.0683,-5.1017,-5.1348,-2.6394,-2.6776,-2.702,-2.7417,-2.7904,-2.7921,-2.8394,-2.9119,-3.0424,-3.1894,-3.3021,-3.4636,-3.5949,-3.6989,-3.7253,-3.7374,-3.7374,-3.7374,-3.7374,-3.7374,-3.7374,-3.7637,-3.7878,-3.7878,-3.8335,-3.8812,-3.8596,-3.8716,-3.8953,-3.9072,-3.919,-3.919,-3.919,-3.9308,-3.9308,-3.94,-3.9308,-3.9331,-3.9354,-3.9561,-3.9905,-3.9974,-4.0203,-4.0433,-4.0548,-4.0594,-4.0686,-4.0877,-4.1107,-4.1893,-4.1963,-4.2218,-4.266,-4.2799,-4.2673,-4.2397,-4.2293,-4.2339,-4.2339,-4.2339,-4.2339,-4.2339,-4.2339,-4.2339,-4.2339,-4.2339,-4.2339,-4.2339,-4.2362,-4.2545,-4.2844,-4.3096,-4.328,-4.3464,-4.3602,-4.3671,-4.3533,-4.3234,-4.328,-4.3433,-4.3341,-4.3993,-4.4635,-4.577,-4.6824,-4.7468,-4.8081,-4.816,-4.8355,-4.8486,-4.8538,-4.8616,-4.8669,-4.8643,-4.8564,-4.8512,-4.8615,-4.8822,-4.8921,-4.924,-4.9556,-4.9897,-4.9897,-5.001,-5.001,-5.001,-5.0123,-5.0123,-5.001,-5.0123,-5.0263,-5.046,-5.0795,-5.1128,-5.1376,-2.7119,-2.7503,-2.7626,-2.8096,-2.8676,-2.8694,-2.903,-2.9618,-3.0356,-3.1527,-3.2832,-3.4202,-3.5767,-3.7132,-3.7374,-3.7374,-3.7374,-3.7374,-3.7374,-3.7495,-3.7616,-3.7878,-3.8118,-3.8335,-3.8693,-3.8976,-3.8953,-3.9072,-3.919,-3.9094,-3.9049,-3.9072,-3.919,-3.9308,-3.9446,-3.9607,-3.9698,-3.9836,-4.002,-4.0272,-4.0433,-4.0502,-4.0594,-4.0823,-4.0846,-4.113,-4.1438,-4.1607,-4.1986,-4.2631,-4.2896,-4.2989,-4.3177,-4.3271,-4.3271,-4.2949,-4.2822,-4.2696,-4.2339,-4.2339,-4.2339,-4.2339,-4.2339,-4.2339,-4.2339,-4.2339,-4.2339,-4.2339,-4.2614,-4.2867,-4.3211,-4.3625,-4.3762,-4.3923,-4.413,-4.4038,-4.3969,-4.3831,-4.3716,-4.3894,-4.4179,-4.4759,-4.5411,-4.6015,-4.6786,-4.7395,-4.8197,-4.8609,-4.8953,-4.9322,-4.9322,-4.9296,-4.9296,-4.9296,-4.9191,-4.9087,-4.9206,-4.9308,-4.9116,-4.9435,-4.9697,-4.9897,-5.0037,-5.0037,-5.001,-5.0037,-5.015,-5.0123,-5.0123,-5.0263,-5.0402,-5.0711,-5.1017,-5.1266,-5.1706,-2.8182,-2.8641,-2.8429,-2.8853,-2.9457,-2.9457,-2.9726,-3.0138,-3.0538,-3.1514,-3.2891,-3.4553,-3.6135,-3.7132,-3.7374,-3.7374,-3.7374,-3.7374,-3.7495,-3.7637,-3.7758,-3.8118,-3.8477,-3.8693,-3.8999,-3.9469,-3.9442,-3.9652,-3.9625,-3.9482,-3.9482,-3.9135,-3.9648,-3.9767,-3.9813,-4.0043,-4.0249,-4.0272,-4.0548,-4.08,-4.0984,-4.1007,-4.1099,-4.1191,-4.1237,-4.1476,-4.2172,-4.2242,-4.2622,-4.331,-4.3553,-4.3576,-4.3647,-4.3647,-4.3695,-4.3522,-4.3396,-4.2949,-4.2696,-4.257,-4.2466,-4.2466,-4.2339,-4.2339,-4.2339,-4.2339,-4.2339,-4.2339,-4.2775,-4.3051,-4.3418,-4.4084,-4.4359,-4.4451,-4.4723,-4.4561,-4.4446,-4.4446,-4.4602,-4.4695,-4.496,-4.5348,-4.5834,-4.6141,-4.6664,-4.7282,-4.8007,-4.9045,-4.9438,-4.9976,-4.9845,-4.974,-4.9714,-4.9688,-4.9636,-4.9625,-4.9798,-4.9823,-4.9658,-4.9649,-5.0135,-5.0227,-5.0118,-5.0091,-5.0173,-5.034,-5.059,-5.0399,-5.0235,-5.0487,-5.0711,-5.0934,-5.1266,-5.1514,-5.2174,-2.9242,-3.0067,-2.944,-2.9529,-3.0248,-3.0248,-3.0646,-3.1043,-3.1285,-3.2371,-3.4268,-3.6046,-3.6889,-3.7374,-3.7374,-3.7374,-3.7374,-3.7374,-3.7616,-3.7758,-3.7998,-3.8238,-3.8574,-3.8857,-3.9254,-3.9813,-3.9859,-4.0158,-4.0571,-4.0403,-4.022,-4.0112,-4.0318,-4.0594,-4.0663,-4.064,-4.0823,-4.0869,-4.103,-4.1214,-4.142,-4.1558,-4.1719,-4.204,-4.2178,-4.2374,-4.2753,-4.2706,-4.3083,-4.3678,-4.3826,-4.3874,-4.4046,-4.3874,-4.3772,-4.382,-4.3522,-4.3075,-4.2822,-4.2822,-4.2949,-4.2696,-4.2443,-4.2339,-4.2339,-4.2339,-4.2339,-4.2408,-4.289,-4.3303,-4.3716,-4.4245,-4.475,-4.5068,-4.5272,-4.536,-4.5314,-4.5518,-4.5564,-4.5657,-4.5809,-4.5841,-4.6813,-4.7182,-4.7636,-4.8384,-4.9135,-5.0052,-5.0071,-5.0289,-5.0159,-5.008,-5.0028,-5.0002,-5.0097,-5.0112,-5.0472,-5.0644,-5.0532,-5.0524,-5.0763,-5.0688,-5.0553,-5.058,-5.0715,-5.0917,-5.0976,-5.0785,-5.0734,-5.0878,-5.1045,-5.1322,-5.1846,-5.2476,-5.3217,-2.9905,-3.0302,-3.0502,-3.0756,-3.103,-3.103,-3.1157,-3.1431,-3.2072,-3.3426,-3.5271,-3.6173,-3.6868,-3.7253,-3.7374,-3.7495,-3.7616,-3.7736,-3.7878,-3.8118,-3.8358,-3.8574,-3.8812,-3.9072,-3.9304,-3.9675,-3.9905,-4.0112,-4.0295,-4.0961,-4.1168,-4.1053,-4.0961,-4.08,-4.0869,-4.1191,-4.142,-4.165,-4.1719,-4.188,-4.1948,-4.204,-4.2132,-4.2293,-4.2339,-4.257,-4.2925,-4.3075,-4.3451,-4.3826,-4.4075,-4.4123,-4.417,-4.3974,-4.3701,-4.3749,-4.3428,-4.32,-4.3075,-4.3075,-4.2822,-4.2593,-4.2339,-4.2339,-4.2339,-4.2339,-4.2339,-4.2545,-4.3051,-4.3602,-4.3808,-4.452,-4.5298,-4.5572,-4.589,-4.6025,-4.616,-4.616,-4.6429,-4.6335,-4.613,-4.6123,-4.7353,-4.8576,-4.8953,-4.947,-5.0249,-5.089,-5.0786,-5.0734,-5.0681,-5.0655,-5.0629,-5.083,-5.0953,-5.1091,-5.1175,-5.1296,-5.1411,-5.1431,-5.1475,-5.1448,-5.1367,-5.1339,-5.1258,-5.1435,-5.1386,-5.1226,-5.1206,-5.1294,-5.1543,-5.1764,-5.2424,-5.3303,-5.4235,-3.0592,-3.061,-3.1139,-3.1396,-3.1359,-3.1377,-3.1394,-3.1429,-3.2137,-3.3658,-3.5644,-3.6135,-3.6746,-3.7275,-3.7571,-3.7725,-3.7868,-3.8011,-3.823,-3.8522,-3.8693,-3.8812,-3.9049,-3.9213,-3.9423,-3.9584,-4.002,-4.0364,-4.0709,-4.142,-4.1673,-4.165,-4.1489,-4.1374,-4.142,-4.1604,-4.1994,-4.2247,-4.2339,-4.2339,-4.2316,-4.2316,-4.2316,-4.2339,-4.2339,-4.257,-4.2949,-4.3075,-4.3326,-4.3701,-4.3974,-4.4123,-4.4022,-4.385,-4.3482,-4.3185,-4.3208,-4.3302,-4.32,-4.2949,-4.2696,-4.2593,-4.2339,-4.2339,-4.2466,-4.2339,-4.2339,-4.2535,-4.3295,-4.3831,-4.4032,-4.4926,-4.5615,-4.6025,-4.6294,-4.6429,-4.6563,-4.6563,-4.6831,-4.6941,-4.6894,-4.6979,-4.806,-4.9382,-5.0053,-5.0358,-5.0835,-5.1282,-5.1282,-5.1282,-5.1335,-5.1335,-5.1459,-5.1714,-5.2068,-5.1997,-5.207,-5.2111,-5.2203,-5.1998,-5.1981,-5.2072,-5.2045,-5.2018,-5.1882,-5.1836,-5.1932,-5.1911,-5.1787,-5.1711,-5.2045,-5.2658,-5.3514,-5.4396,-5.5352,-3.1102,-3.1304,-3.1373,-3.1302,-3.1414,-3.1355,-3.1271,-3.137,-3.2028,-3.3375,-3.5335,-3.6588,-3.7318,-3.7527,-3.7833,-3.7989,-3.8011,-3.8376,-3.8618,-3.8761,-3.8812,-3.9049,-3.919,-3.9354,-3.9515,-4.0066,-4.0456,-4.0892,-4.1397,-4.1903,-4.2178,-4.2224,-4.2086,-4.2086,-4.2247,-4.2293,-4.2316,-4.2339,-4.2339,-4.2339,-4.2339,-4.2339,-4.2339,-4.2339,-4.2339,-4.2443,-4.2822,-4.2949,-4.32,-4.3451,-4.3451,-4.3772,-4.3992,-4.3624,-4.3107,-4.2669,-4.3083,-4.3326,-4.3349,-4.2972,-4.2915,-4.2892,-4.2639,-4.2731,-4.2789,-4.2662,-4.2673,-4.3159,-4.3655,-4.4094,-4.4596,-4.5216,-4.5926,-4.6294,-4.6697,-4.6831,-4.6831,-4.6965,-4.7232,-4.7497,-4.7894,-4.842,-4.9282,-5.0206,-5.0968,-5.1445,-5.1596,-5.1596,-5.1596,-5.1596,-5.1596,-5.1747,-5.1846,-5.2121,-5.2368,-5.2765,-5.2849,-5.2917,-5.285,-5.2739,-5.2588,-5.2479,-5.2506,-5.2588,-5.2506,-5.2462,-5.2498,-5.265,-5.2619,-5.2573,-5.3135,-5.3782,-5.4701,-5.5496,-5.6397,-3.1249,-3.1341,-3.1355,-3.128,-3.1336,-3.1196,-3.1332,-3.1789,-3.3152,-3.4818,-3.6289,-3.7487,-3.7855,-3.7942,-3.8187,-3.8343,-3.8372,-3.8522,-3.888,-3.9094,-3.9049,-3.9167,-3.9308,-3.9354,-3.9584,-4.0066,-4.0571,-4.1076,-4.1535,-4.2086,-4.2293,-4.2339,-4.2339,-4.2339,-4.2316,-4.2339,-4.2339,-4.2339,-4.2339,-4.2339,-4.2339,-4.2339,-4.2339,-4.2339,-4.2339,-4.2466,-4.2696,-4.2696,-4.2949,-4.32,-4.32,-4.3451,-4.3624,-4.3255,-4.3255,-4.3013,-4.3279,-4.349,-4.3796,-4.3904,-4.3857,-4.3472,-4.3402,-4.3438,-4.3589,-4.3682,-4.3775,-4.3891,-4.4225,-4.4728,-4.5053,-4.5739,-4.6382,-4.6697,-4.6989,-4.7122,-4.7232,-4.7232,-4.7497,-4.787,-4.8264,-4.8787,-4.9565,-5.0308,-5.122,-5.1596,-5.1596,-5.1596,-5.1596,-5.1596,-5.1721,-5.1872,-5.2121,-5.2368,-5.2615,-5.2983,-5.3254,-5.3268,-5.3362,-5.3375,-5.3158,-5.2913,-5.3022,-5.313,-5.3049,-5.2968,-5.3016,-5.3179,-5.3392,-5.3573,-5.4117,-5.4941,-5.5916,-5.6544,-5.722,-3.1377,-3.1451,-3.1481,-3.1439,-3.1508,-3.1361,-3.1665,-3.2708,-3.4346,-3.5728,-3.6827,-3.7493,-3.7964,-3.8165,-3.8498,-3.8707,-3.8522,-3.8919,-3.8999,-3.9354,-3.9308,-3.9308,-3.9308,-3.9377,-3.9607,-4.0066,-4.0594,-4.1076,-4.1581,-4.2086,-4.2293,-4.2339,-4.2339,-4.2339,-4.2339,-4.2339,-4.2339,-4.2339,-4.2339,-4.2339,-4.2339,-4.2339,-4.2339,-4.2339,-4.2339,-4.2466,-4.2593,-4.2696,-4.2822,-4.3075,-4.3177,-4.3107,-4.306,-4.3208,-4.3546,-4.3962,-4.4073,-4.4309,-4.464,-4.4958,-4.4792,-4.4436,-4.4347,-4.4465,-4.4512,-4.449,-4.4607,-4.4818,-4.5155,-4.5318,-4.5615,-4.6304,-4.665,-4.7098,-4.7232,-4.7364,-4.763,-4.7762,-4.763,-4.8133,-4.8264,-4.8918,-4.9822,-5.0461,-5.122,-5.1471,-5.1596,-5.1622,-5.1622,-5.1721,-5.1872,-5.2075,-5.2395,-5.2615,-5.2983,-5.3227,-5.3349,-5.3592,-5.3592,-5.3592,-5.3537,-5.3293,-5.3483,-5.3592,-5.3429,-5.3386,-5.337,-5.359,-5.4007,-5.4474,-5.508,-5.6021,-5.7108,-5.7705,-5.8214,-3.1377,-3.1451,-3.1715,-3.1778,-3.174,-3.1769,-3.2564,-3.3799,-3.4862,-3.583,-3.6572,-3.7369,-3.7841,-3.8188,-3.8819,-3.8994,-3.8987,-3.9402,-3.9574,-3.9488,-3.9629,-3.9538,-3.9538,-3.9561,-3.9951,-4.0249,-4.0686,-4.1283,-4.1627,-4.2086,-4.2316,-4.2339,-4.2339,-4.2339,-4.2339,-4.2339,-4.2339,-4.2339,-4.2339,-4.2339,-4.2339,-4.2339,-4.2339,-4.2339,-4.2339,-4.2339,-4.2466,-4.2466,-4.257,-4.2822,-4.2822,-4.2683,-4.2762,-4.2958,-4.427,-4.5223,-4.5381,-4.5501,-4.5443,-4.5821,-4.6021,-4.5701,-4.5337,-4.5337,-4.5361,-4.535,-4.5384,-4.561,-4.5785,-4.5964,-4.6238,-4.6656,-4.7074,-4.7232,-4.7364,-4.763,-4.8002,-4.8002,-4.7894,-4.8026,-4.8026,-4.8657,-4.995,-5.0715,-5.1246,-5.1549,-5.1701,-5.1852,-5.1826,-5.1872,-5.2049,-5.2456,-5.2651,-5.301,-5.3254,-5.3349,-5.347,-5.3592,-5.3592,-5.3592,-5.3592,-5.3592,-5.3592,-5.3619,-5.3646,-5.3806,-5.3974,-5.4268,-5.4643,-5.5233,-5.585,-5.6705,-5.7651,-5.8367,-5.9014,-3.1377,-3.1433,-3.129,-3.1531,-3.1903,-3.2779,-3.3188,-3.3347,-3.4738,-3.5853,-3.6771,-3.7811,-3.8363,-3.8918,-3.9646,-3.962,-3.9818,-4.0053,-4.0334,-4.0387,-4.0226,-4.0341,-4.0341,-4.0318,-4.0686,-4.0961,-4.1306,-4.1558,-4.2017,-4.2339,-4.2339,-4.2339,-4.2339,-4.2339,-4.2339,-4.2339,-4.2339,-4.2339,-4.2339,-4.2385,-4.2385,-4.2408,-4.2408,-4.2454,-4.2477,-4.2604,-4.2708,-4.2789,-4.2892,-4.3145,-4.3224,-4.3107,-4.3138,-4.3813,-4.4857,-4.5662,-4.6045,-4.6357,-4.6405,-4.6693,-4.6968,-4.692,-4.6681,-4.6514,-4.6466,-4.6335,-4.6394,-4.6442,-4.6466,-4.6561,-4.6741,-4.7088,-4.7364,-4.7364,-4.7497,-4.763,-4.8002,-4.8002,-4.8002,-4.8289,-4.8289,-4.9177,-5.0334,-5.0842,-5.1372,-5.1601,-5.1805,-5.1983,-5.2135,-5.2332,-5.2324,-5.2731,-5.2925,-5.3254,-5.3349,-5.347,-5.3592,-5.3592,-5.3592,-5.3592,-5.3592,-5.3592,-5.3592,-5.3876,-5.4242,-5.4468,-5.4671,-5.5103,-5.552,-5.5898,-5.6366,-5.7274,-5.8195,-5.8991,-5.9606,-3.1506,-3.1579,-3.164,-3.1941,-3.2508,-3.3296,-3.3421,-3.3375,-3.4879,-3.6227,-3.7335,-3.8015,-3.8653,-3.9142,-3.981,-4.0076,-3.987,-4.0403,-4.0755,-4.0732,-4.0892,-4.0755,-4.08,-4.0892,-4.1053,-4.1397,-4.165,-4.1788,-4.2201,-4.2339,-4.2339,-4.2339,-4.2339,-4.2339,-4.2339,-4.2339,-4.2339,-4.2339,-4.2362,-4.2454,-4.2545,-4.2637,-4.2729,-4.2996,-4.3147,-4.3252,-4.3461,-4.3391,-4.3599,-4.3946,-4.4073,-4.3758,-4.4002,-4.4872,-4.5581,-4.6391,-4.6728,-4.6968,-4.7064,-4.7257,-4.7425,-4.7497,-4.7497,-4.7329,-4.7101,-4.6945,-4.7064,-4.7136,-4.7184,-4.7208,-4.7232,-4.7364,-4.7364,-4.7497,-4.7497,-4.763,-4.7738,-4.787,-4.8133,-4.8551,-4.9072,-4.9976,-5.0588,-5.112,-5.145,-5.1936,-5.2219,-5.2397,-5.2728,-5.2906,-5.2864,-5.2952,-5.324,-5.3349,-5.347,-5.3592,-5.3592,-5.3592,-5.3592,-5.3592,-5.3592,-5.3673,-5.3849,-5.4324,-5.4977,-5.5353,-5.5631,-5.6001,-5.6344,-5.6726,-5.7168,-5.819,-5.8991,-5.9513,-6.0122,-3.1653,-3.191,-3.2294,-3.2708,-3.3253,-3.3359,-3.3505,-3.3729,-3.5371,-3.6767,-3.7658,-3.8021,-3.8553,-3.925,-4.003,-4.0456,-4.0571,-4.0938,-4.1214,-4.0961,-4.1168,-4.1191,-4.1145,-4.1007,-4.1443,-4.1581,-4.1742,-4.1994,-4.2224,-4.2339,-4.2339,-4.2339,-4.2339,-4.2339,-4.2339,-4.2339,-4.2339,-4.2339,-4.2477,-4.2788,-4.3065,-4.3249,-4.3563,-4.4193,-4.4393,-4.45,-4.4666,-4.4677,-4.4512,-4.4911,-4.5015,-4.4602,-4.5205,-4.6117,-4.6786,-4.7027,-4.7185,-4.7281,-4.7353,-4.7449,-4.7473,-4.7497,-4.7497,-4.7449,-4.7425,-4.7425,-4.7364,-4.7364,-4.7364,-4.7532,-4.758,-4.7786,-4.781,-4.8088,-4.8318,-4.8452,-4.8694,-4.8935,-4.9388,-4.9675,-5.0222,-5.0998,-5.1434,-5.2022,-5.2253,-5.2406,-5.287,-5.3102,-5.3376,-5.3608,-5.3539,-5.3359,-5.3335,-5.3498,-5.347,-5.3592,-5.3592,-5.3592,-5.3592,-5.3592,-5.3592,-5.3849,-5.4133,-5.4841,-5.5673,-5.6249,-5.6726,-5.6987,-5.7173,-5.7463,-5.8205,-5.9144,-5.9797,-6.021,-6.0669,-3.1782,-3.1929,-3.2549,-3.2865,-3.3008,-3.3281,-3.4047,-3.4962,-3.6019,-3.679,-3.7079,-3.8297,-3.9232,-3.9901,-4.0724,-4.1076,-4.1214,-4.1489,-4.1903,-4.188,-4.1857,-4.1742,-4.1903,-4.1788,-4.1971,-4.2109,-4.2178,-4.2155,-4.2293,-4.2339,-4.2339,-4.2339,-4.2339,-4.2339,-4.2339,-4.2339,-4.2339,-4.2339,-4.2939,-4.3298,-4.3705,-4.3729,-4.3822,-4.4607,-4.4924,-4.5125,-4.5184,-4.5243,-4.5429,-4.5581,-4.5686,-4.583,-4.6131,-4.7061,-4.7351,-4.7437,-4.7401,-4.7473,-4.7497,-4.7497,-4.7497,-4.7497,-4.7497,-4.7497,-4.7497,-4.7497,-4.7497,-4.7497,-4.7593,-4.781,-4.7978,-4.805,-4.8329,-4.8681,-4.9145,-4.9548,-4.9791,-5.0248,-5.0701,-5.0988,-5.1405,-5.1845,-5.2311,-5.2775,-5.3034,-5.3527,-5.3997,-5.4308,-5.4394,-5.4539,-5.4244,-5.4036,-5.3565,-5.3646,-5.3619,-5.3592,-5.3592,-5.3592,-5.3592,-5.3592,-5.3619,-5.4269,-5.4923,-5.5618,-5.6249,-5.7088,-5.7668,-5.779,-5.8071,-5.8383,-5.9015,-5.9905,-6.0604,-6.1056,-6.1432,-3.187,-3.2166,-3.2804,-3.3049,-3.3184,-3.3788,-3.4599,-3.5435,-3.6834,-3.7527,-3.7756,-3.9042,-3.9937,-4.0646,-4.1352,-4.1604,-4.1696,-4.2086,-4.2178,-4.2293,-4.2339,-4.227,-4.2339,-4.2339,-4.227,-4.2339,-4.2339,-4.2316,-4.2339,-4.2339,-4.2339,-4.2362,-4.2362,-4.2385,-4.2362,-4.2362,-4.2385,-4.2362,-4.3252,-4.3881,-4.4419,-4.4583,-4.4911,-4.5526,-4.5799,-4.593,-4.6121,-4.6227,-4.6179,-4.6559,-4.6655,-4.6728,-4.6992,-4.7316,-4.7461,-4.7425,-4.7473,-4.7497,-4.7497,-4.7497,-4.7497,-4.7497,-4.7521,-4.7521,-4.7497,-4.7497,-4.7497,-4.7521,-4.7882,-4.8098,-4.8401,-4.8633,-4.9255,-4.9744,-5.0464,-5.0863,-5.1129,-5.1499,-5.1867,-5.2258,-5.2569,-5.2595,-5.3035,-5.3267,-5.3579,-5.4126,-5.4652,-5.5017,-5.521,-5.5195,-5.4898,-5.4646,-5.4174,-5.3754,-5.3619,-5.3592,-5.3592,-5.3592,-5.3592,-5.393,-5.4242,-5.5154,-5.5839,-5.647,-5.716,-5.8087,-5.8435,-5.8502,-5.8805,-5.9208,-5.9885,-6.0639,-6.1261,-6.1871,-6.2317,-3.1847,-3.253,-3.3184,-3.3418,-3.3457,-3.4425,-3.5006,-3.5509,-3.7445,-3.8586,-3.9176,-4.0118,-4.0715,-4.0975,-4.142,-4.1581,-4.1811,-4.2155,-4.2316,-4.2339,-4.2339,-4.2339,-4.2339,-4.2339,-4.2339,-4.2339,-4.2339,-4.2339,-4.2339,-4.2431,-4.2522,-4.2454,-4.25,-4.2545,-4.2522,-4.2545,-4.266,-4.2821,-4.3447,-4.423,-4.4888,-4.5573,-4.6083,-4.657,-4.7098,-4.7232,-4.7197,-4.7209,-4.7136,-4.7209,-4.7329,-4.7329,-4.7353,-4.7401,-4.7425,-4.7497,-4.7497,-4.7497,-4.7497,-4.7497,-4.7497,-4.7497,-4.7545,-4.7593,-4.7617,-4.7714,-4.7714,-4.7882,-4.8219,-4.857,-4.8874,-4.9499,-5.0259,-5.1046,-5.1715,-5.2302,-5.2565,-5.2748,-5.3166,-5.3583,-5.3583,-5.3609,-5.3765,-5.3997,-5.4387,-5.4808,-5.5146,-5.5403,-5.5761,-5.5672,-5.5555,-5.5203,-5.484,-5.4351,-5.3863,-5.37,-5.3727,-5.3592,-5.3646,-5.4215,-5.4841,-5.5524,-5.6347,-5.741,-5.8131,-5.8716,-5.9008,-5.898,-5.9436,-5.9655,-6.0671,-6.1288,-6.1834,-6.2453,-6.325,-3.26,-3.3165,-3.3418,-3.3418,-3.3437,-3.3662,-3.4492,-3.5995,-3.7466,-3.8738,-4.0167,-4.1307,-4.1857,-4.1466,-4.1971,-4.2132,-4.2086,-4.2316,-4.2316,-4.2339,-4.2339,-4.2339,-4.2339,-4.2339,-4.2339,-4.2362,-4.2362,-4.2362,-4.2545,-4.2798,-4.2936,-4.2936,-4.3372,-4.3464,-4.3487,-4.3441,-4.3349,-4.3441,-4.4048,-4.4929,-4.5512,-4.6083,-4.6357,-4.6884,-4.7232,-4.7232,-4.7184,-4.7293,-4.7425,-4.7473,-4.7497,-4.7497,-4.7497,-4.7497,-4.7497,-4.7497,-4.7497,-4.7497,-4.7497,-4.7497,-4.7497,-4.7666,-4.7786,-4.8074,-4.8219,-4.8507,-4.8531,-4.8603,-4.8868,-4.9101,-4.9543,-5.0542,-5.1358,-5.2201,-5.3029,-5.3469,-5.3869,-5.4051,-5.4339,-5.4419,-5.4367,-5.4577,-5.4945,-5.5207,-5.5469,-5.5759,-5.6019,-5.6407,-5.6455,-5.6313,-5.6115,-5.579,-5.541,-5.4921,-5.4433,-5.3999,-5.389,-5.3727,-5.393,-5.4691,-5.5346,-5.5866,-5.6692,-5.7868,-5.8535,-5.9093,-5.9205,-5.9205,-5.9205,-5.9617,-6.1048,-6.1938,-6.2344,-6.3056,-6.3942]},{"header":{"parameterUnit":"m.s-1","parameterCategory":1,"la1":31.0,"la2":29.5877,"lo1":-88.7671,"lo2":-86.6584,"dy":0.0162,"dx":0.0185,"nx":115,"ny":88,"refTime":"2023-06-19T00:00:00:Z","depth":0,"parameterNumber":3,"parameterNumberName":"V-component_of_WINDS"},"data":[0.0,0.0,0.0,0.0,0.0,0.0,0.0,0.0,0.0,0.0,0.0,0.0,0.0,0.0,0.0,0.0,0.0,0.0,0.0,0.0,0.0,0.0,0.0,0.0,0.0,0.0,0.0,0.0,0.0,0.0,0.0,0.0,0.0,0.0,0.0,0.0,0.0,0.0,0.0,0.0,0.0,0.0,0.0,0.0,0.0,0.0,0.0,0.0,0.0,0.0,0.0,0.0,0.0,0.0,0.0,0.0,0.0,0.0,0.0,0.0,0.0,0.0,0.0,0.0,0.0,0.0,0.0,0.0,0.0,0.0,0.0,0.0,0.0,0.0,0.0,0.0,0.0,0.0,0.0,0.0,0.0,0.0,0.0,0.0,0.0,0.0,0.0,0.0,0.0,0.0,0.0,0.0,0.0,0.0,0.0,0.0,0.0,0.0,0.0,0.0,0.0,0.0,0.0,0.0,0.0,0.0,0.0,0.0,0.0,0.0,0.0,0.0,0.0,0.0,0.0,0.0,0.0,0.0,0.0,0.0,0.0,0.0,0.0,0.0,0.0,0.0,0.0,0.0,0.0,0.0,0.0,0.0,0.0,0.0,0.0,0.0,0.0,0.0,0.0,0.0,0.0,0.0,0.0,0.0,0.0,0.0,0.0,0.0,0.0,0.0,0.0,0.0,0.0,0.0,0.0,0.0,0.0,0.0,0.0,0.0,0.0,0.0,0.0,0.0,0.0,0.0,0.0,0.0,0.0,0.0,0.0,0.0,0.0,0.0,0.0,0.0,0.0,0.0,0.0,0.0,0.0,0.0,0.0,0.0,0.0,0.0,0.0,0.0,0.0,0.0,0.0,0.0,0.0,0.0,0.0,0.0,0.0,0.0,0.0,0.0,0.0,0.0,0.0,0.0,0.0,0.0,0.0,0.0,0.0,0.0,0.0,0.0,0.0,0.0,0.0,0.0,0.0,0.0,0.0,0.0,0.0,0.0,0.0,0.0,0.0,0.0,0.0,0.0,0.0,0.0,0.0,0.0,0.0,0.0,0.0,0.0,0.0,0.0,0.0,0.0,0.0,0.0,0.0,0.0,0.0,0.0,0.0,0.0,0.0,0.0,0.0,0.0,0.0,0.0,0.0,0.0,0.0,0.0,0.0,0.0,0.0,0.0,0.0,0.0,0.0,0.0,0.0,0.0,0.0,0.0,0.0,0.0,0.0,0.0,0.0,0.0,0.0,0.0,0.0,0.0,0.0,0.0,0.0,0.0,0.0,0.0,0.0,0.0,0.0,0.0,0.0,0.0,0.0,0.0,0.0,0.0,0.0,0.0,0.0,0.0,0.0,0.0,0.0,0.0,0.0,0.0,0.0,0.0,0.0,0.0,0.0,0.0,0.0,0.0,0.0,0.0,0.0,0.0,0.0,0.0,0.0,0.0,0.0,0.0,0.0,0.0,0.0,0.0,0.0,0.0,0.0,0.0,0.0,0.0,0.0,0.0,0.0,0.0,0.0,0.0,0.0,0.0,0.0,0.0,0.0,0.0,0.0,0.0,0.0,0.0,0.0,0.0,0.0,0.0,0.0,0.0,0.0,0.0,0.0,0.0,0.0,0.0,0.0,0.0,0.0,0.0,0.0,0.0,0.0,0.0,0.0,0.0,0.0,0.0,0.0,0.0,0.0,0.0,0.0,0.0,0.0,0.0,0.0,0.0,0.0,0.0,0.0,0.0,0.0,0.0,0.0,0.0,0.0,0.0,0.0,0.0,0.0,0.0,0.0,0.0,0.0,0.0,0.0,0.0,0.0,0.0,0.0,0.0,0.0,0.0,0.0,0.0,0.0,0.0,0.0,0.0,0.0,0.0,0.0,0.0,0.0,0.0,0.0,0.0,0.0,0.0,0.0,0.0,0.0,0.0,0.0,0.0,0.0,0.0,0.0,0.0,0.0,0.0,0.0,0.0,0.0,0.0,0.0,0.0,0.0,0.0,0.0,0.0,0.0,0.0,0.0,0.0,0.0,0.0,0.0,0.0,0.0,0.0,0.0,0.0,0.0,0.0,0.0,0.0,0.0,0.0,0.0,0.0,0.0,0.0,0.0,0.0,0.0,0.0,0.0,0.0,0.0,0.0,0.0,0.0,0.0,0.0,0.0,0.0,0.0,0.0,0.0,0.0,0.0,0.0,0.0,0.0,0.0,0.0,0.0,0.0,0.0,0.0,0.0,0.0,0.0,0.0,0.0,0.0,0.0,0.0,0.0,0.0,0.0,0.0,0.0,0.0,0.0,0.0,0.0,0.0,0.0,0.0,0.0,0.0,0.0,0.0,0.0,0.0,0.0,0.0,0.0,0.0,0.0,0.0,0.0,0.0,0.0,0.0,0.0,0.0,0.0,0.0,0.0,0.0,0.0,0.0,0.0,0.0,0.0,0.0,0.0,0.0,0.0,0.0,0.0,0.0,0.0,0.0,0.0,0.0,0.0,0.0,0.0,0.0,0.0,0.0,0.0,0.0,0.0,0.0,0.0,0.0,0.0,0.0,0.0,0.0,0.0,0.0,0.0,0.0,0.0,0.0,0.0,0.0,0.0,0.0,0.0,0.0,0.0,0.0,0.0,0.0,0.0,0.0,0.0,0.0,0.0,0.0,0.0,0.0,0.0,0.0,0.0,0.0,0.0,0.0,0.0,0.0,0.0,0.0,0.0,0.0,0.0,0.0,0.0,0.0,0.0,0.0,0.0,0.0,0.0,0.0,0.0,0.0,0.0,0.0,0.0,0.0,0.0,0.0,0.0,0.0,0.0,0.0,0.0,0.0,0.0,0.0,0.0,0.0,0.0,0.0,0.0,0.0,0.0,0.0,0.0,0.0,0.0,0.0,0.0,0.0,0.0,0.0,0.0,0.0,0.0,0.0,0.0,0.0,0.0,0.0,0.0,0.0,0.0,0.0,0.0,0.0,0.0,0.0,0.0,0.0,0.0,0.0,0.0,0.0,0.0,0.0,0.0,0.0,0.0,0.0,0.0,0.0,0.0,0.0,0.0,0.0,0.0,0.0,0.0,0.0,0.0,0.0,0.0,0.0,0.0,0.0,0.0,0.0,0.0,0.0,0.0,0.0,0.0,0.0,0.0,0.0,0.0,0.0,0.0,0.0,0.0,0.0,0.0,0.0,0.0,0.0,0.0,0.0,0.0,0.0,0.0,0.0,0.0,0.0,0.0,0.0,0.0,0.0,0.0,0.0,0.0,0.0,0.0,0.0,0.0,0.0,0.0,0.0,0.0,0.0,0.0,0.0,0.0,0.0,0.0,0.0,0.0,0.0,0.0,0.0,0.0,0.0,0.0,0.0,0.0,0.0,0.0,0.0,0.0,0.0,0.0,0.0,0.0,0.0,0.0,0.0,0.0,0.0,0.0,0.0,0.0,0.0,0.0,0.0,0.0,0.0,0.0,0.0,0.0,0.0,0.0,0.0,0.0,0.0,0.0,0.0,0.0,0.0,0.0,0.0,0.0,0.0,0.0,0.0,0.0,0.0,0.0,0.0,0.0,0.0,0.0,0.0,0.0,0.0,0.0,0.0,0.0,0.0,0.0,0.0,0.0,0.0,0.0,0.0,0.0,0.0,0.0,0.0,0.0,0.0,0.0,0.0,0.0,0.0,0.0,0.0,0.0,0.0,0.0,0.0,0.0,0.0,0.0,0.0,0.0,0.0,0.0,0.0,0.0,0.0,0.0,0.0,0.0,0.0,0.0,0.0,0.0,0.0,0.0,0.0,0.0,0.0,0.0,0.0,0.0,0.0,0.0,0.0,0.0,0.0,0.0,0.0,0.0,0.0,0.0,0.0,0.0,0.0,0.0,0.0,0.0,0.0,0.0,0.0,0.0,0.0,0.0,0.0,0.0,0.0,0.0,0.0,0.0,0.0,0.0,0.0,0.0,0.0,0.0,0.0,0.0,0.0,0.0,0.0,0.0,0.0,0.0,0.0,0.0,0.0,0.0,0.0,0.0,0.0,0.0,0.0,0.0,0.0,0.0,0.0,0.0,0.0,0.0,0.0,0.0,0.0,0.0,0.0,0.0,0.0,0.0,0.0,0.0,0.0,0.0,0.0,0.0,0.0,0.0,0.0,0.0,0.0,0.0,0.0,0.0,0.0,0.0,0.0,0.0,0.0,0.0,0.0,0.0,0.0,0.0,0.0,0.0,0.0,0.0,0.0,0.0,0.0,0.0,0.0,0.0,0.0,0.0,0.0,0.0,0.0,0.0,0.0,0.0,0.0,0.0,0.0,0.0,0.0,-1.8305,0.0,0.0,0.0,0.0,0.0,0.0,0.0,0.0,0.0,0.0,0.0,0.0,0.0,0.0,0.0,0.0,0.0,0.0,0.0,0.0,0.0,0.0,0.0,0.0,0.0,0.0,0.0,0.0,0.0,0.0,0.0,0.0,0.0,0.0,0.0,0.0,0.0,0.0,0.0,0.0,0.0,0.0,0.0,0.0,0.0,0.0,0.0,0.0,0.0,0.0,0.0,0.0,0.0,0.0,0.0,0.0,0.0,0.0,0.0,0.0,0.0,0.0,0.0,0.0,0.0,0.0,0.0,0.0,0.0,0.0,0.0,0.0,0.0,0.0,0.0,0.0,0.0,0.0,0.0,0.0,0.0,0.0,0.0,0.0,0.0,0.0,0.0,0.0,0.0,0.0,0.0,0.0,0.0,0.0,0.0,0.0,0.0,0.0,0.0,0.0,0.0,0.0,0.0,0.0,0.0,0.0,0.0,0.0,0.0,0.0,-1.8349,-1.8349,-1.84,-1.8411,-1.8411,0.0,0.0,0.0,0.0,0.0,0.0,0.0,0.0,0.0,0.0,0.0,0.0,0.0,0.0,0.0,0.0,0.0,0.0,0.0,0.0,0.0,0.0,0.0,0.0,0.0,0.0,0.0,0.0,0.0,0.0,0.0,0.0,0.0,0.0,0.0,0.0,0.0,0.0,0.0,0.0,0.0,0.0,0.0,0.0,0.0,0.0,0.0,0.0,0.0,0.0,0.0,0.0,0.0,0.0,0.0,0.0,0.0,0.0,0.0,0.0,0.0,0.0,0.0,0.0,0.0,0.0,0.0,0.0,0.0,0.0,0.0,0.0,0.0,0.0,0.0,0.0,0.0,0.0,0.0,0.0,0.0,0.0,0.0,0.0,0.0,0.0,0.0,0.0,0.0,0.0,0.0,0.0,0.0,0.0,0.0,0.0,0.0,0.0,0.0,0.0,0.0,0.0,0.0,0.0,0.0,0.0,0.0,0.0,0.0,0.0,0.0,0.0,-1.8819,-1.8819,-1.8899,0.0,0.0,0.0,0.0,0.0,0.0,0.0,0.0,0.0,0.0,0.0,0.0,0.0,0.0,0.0,0.0,0.0,0.0,0.0,0.0,0.0,0.0,0.0,0.0,0.0,0.0,0.0,0.0,0.0,0.0,0.0,0.0,0.0,0.0,0.0,0.0,0.0,0.0,0.0,0.0,0.0,0.0,0.0,0.0,0.0,0.0,0.0,0.0,0.0,0.0,0.0,0.0,0.0,0.0,0.0,0.0,0.0,0.0,0.0,0.0,0.0,0.0,0.0,0.0,0.0,0.0,0.0,0.0,0.0,0.0,0.0,0.0,0.0,0.0,0.0,0.0,0.0,0.0,0.0,0.0,0.0,0.0,0.0,0.0,0.0,0.0,0.0,0.0,0.0,0.0,0.0,0.0,0.0,0.0,0.0,0.0,0.0,0.0,0.0,0.0,0.0,0.0,0.0,0.0,0.0,0.0,0.0,0.0,0.0,0.0,-1.9419,-2.0047,-1.9789,0.0,-2.0004,0.0,0.0,0.0,0.0,0.0,0.0,0.0,0.0,0.0,0.0,0.0,0.0,0.0,0.0,0.0,0.0,0.0,0.0,0.0,0.0,0.0,0.0,0.0,0.0,0.0,0.0,0.0,0.0,0.0,0.0,0.0,0.0,0.0,0.0,0.0,0.0,0.0,0.0,0.0,0.0,0.0,0.0,0.0,0.0,0.0,0.0,0.0,0.0,0.0,0.0,0.0,0.0,0.0,0.0,0.0,0.0,0.0,0.0,0.0,0.0,0.0,0.0,0.0,0.0,0.0,0.0,0.0,0.0,0.0,0.0,0.0,0.0,0.0,0.0,0.0,0.0,0.0,0.0,0.0,0.0,0.0,0.0,0.0,0.0,0.0,0.0,0.0,0.0,0.0,0.0,0.0,0.0,0.0,0.0,0.0,0.0,0.0,0.0,0.0,0.0,0.0,0.0,0.0,0.0,0.0,0.0,0.0,0.0,0.0,0.0,-2.0147,-2.0472,-2.0286,-2.0323,0.0,0.0,0.0,0.0,0.0,0.0,0.0,0.0,0.0,0.0,0.0,0.0,0.0,0.0,0.0,0.0,0.0,0.0,0.0,0.0,0.0,0.0,0.0,0.0,0.0,0.0,0.0,0.0,0.0,0.0,0.0,0.0,0.0,0.0,0.0,0.0,0.0,0.0,0.0,0.0,0.0,0.0,0.0,0.0,0.0,0.0,0.0,0.0,0.0,0.0,0.0,0.0,0.0,0.0,0.0,0.0,0.0,0.0,0.0,0.0,0.0,0.0,0.0,0.0,0.0,0.0,0.0,0.0,0.0,0.0,0.0,0.0,0.0,0.0,0.0,0.0,0.0,0.0,0.0,0.0,0.0,0.0,0.0,0.0,0.0,0.0,0.0,0.0,0.0,0.0,0.0,0.0,0.0,0.0,0.0,0.0,0.0,0.0,0.0,0.0,0.0,0.0,0.0,0.0,0.0,0.0,0.0,0.0,0.0,0.0,-2.1168,-2.0869,-2.0937,-2.0834,-2.0941,-2.1314,0.0,0.0,0.0,0.0,0.0,0.0,0.0,0.0,0.0,0.0,0.0,0.0,0.0,0.0,0.0,0.0,0.0,0.0,0.0,0.0,0.0,0.0,0.0,0.0,0.0,0.0,0.0,0.0,0.0,0.0,0.0,0.0,0.0,0.0,0.0,0.0,0.0,0.0,0.0,0.0,0.0,0.0,0.0,0.0,0.0,0.0,0.0,0.0,0.0,0.0,0.0,0.0,0.0,0.0,0.0,0.0,0.0,0.0,0.0,0.0,0.0,0.0,0.0,0.0,0.0,0.0,0.0,0.0,0.0,0.0,0.0,0.0,0.0,0.0,0.0,0.0,0.0,0.0,0.0,0.0,0.0,0.0,0.0,0.0,0.0,0.0,0.0,0.0,0.0,0.0,0.0,0.0,0.0,0.0,0.0,0.0,0.0,0.0,0.0,0.0,0.0,0.0,0.0,0.0,0.0,0.0,0.0,0.0,-2.2716,-2.2046,-2.1603,-2.1588,-2.1663,-2.1833,0.0,0.0,0.0,0.0,0.0,0.0,0.0,0.0,0.0,0.0,0.0,0.0,0.0,0.0,0.0,0.0,0.0,0.0,0.0,0.0,0.0,0.0,0.0,0.0,0.0,0.0,0.0,0.0,0.0,0.0,0.0,0.0,0.0,0.0,0.0,0.0,0.0,0.0,0.0,0.0,0.0,0.0,0.0,0.0,0.0,0.0,0.0,0.0,0.0,0.0,0.0,0.0,0.0,0.0,0.0,0.0,0.0,0.0,0.0,0.0,0.0,0.0,0.0,0.0,0.0,0.0,0.0,0.0,0.0,0.0,0.0,0.0,0.0,0.0,0.0,0.0,0.0,0.0,0.0,0.0,0.0,0.0,0.0,0.0,0.0,0.0,0.0,0.0,0.0,0.0,0.0,0.0,0.0,0.0,0.0,0.0,0.0,0.0,0.0,0.0,0.0,0.0,0.0,0.0,0.0,0.0,0.0,0.0,0.0,-2.3504,-2.3109,-2.2672,-2.2263,-2.2263,-2.2338,0.0,0.0,0.0,0.0,0.0,0.0,0.0,0.0,0.0,0.0,0.0,0.0,0.0,0.0,0.0,0.0,0.0,0.0,0.0,0.0,0.0,0.0,0.0,0.0,0.0,0.0,0.0,0.0,0.0,0.0,0.0,0.0,0.0,0.0,0.0,0.0,0.0,0.0,0.0,0.0,0.0,0.0,0.0,0.0,0.0,0.0,0.0,0.0,0.0,0.0,0.0,0.0,0.0,0.0,0.0,0.0,0.0,0.0,0.0,0.0,0.0,0.0,0.0,0.0,0.0,0.0,0.0,0.0,0.0,0.0,0.0,0.0,0.0,0.0,0.0,0.0,0.0,0.0,0.0,0.0,0.0,0.0,0.0,0.0,0.0,0.0,0.0,0.0,0.0,0.0,0.0,0.0,0.0,0.0,0.0,0.0,0.0,0.0,0.0,0.0,0.0,0.0,0.0,0.0,0.0,0.0,0.0,0.0,0.0,-2.3897,0.0,-2.3304,-2.2723,-2.2661,-2.2586,0.0,0.0,0.0,0.0,0.0,0.0,0.0,0.0,0.0,0.0,0.0,0.0,0.0,0.0,0.0,0.0,0.0,0.0,0.0,0.0,0.0,0.0,0.0,0.0,0.0,0.0,0.0,0.0,0.0,0.0,0.0,0.0,0.0,0.0,0.0,0.0,0.0,0.0,0.0,0.0,0.0,0.0,0.0,0.0,0.0,0.0,0.0,0.0,0.0,0.0,0.0,0.0,0.0,0.0,0.0,0.0,0.0,0.0,0.0,0.0,0.0,0.0,0.0,0.0,0.0,0.0,0.0,0.0,0.0,0.0,0.0,0.0,0.0,0.0,0.0,0.0,0.0,0.0,0.0,0.0,0.0,0.0,0.0,0.0,0.0,0.0,0.0,0.0,0.0,0.0,0.0,0.0,0.0,0.0,0.0,0.0,0.0,0.0,0.0,0.0,0.0,0.0,0.0,0.0,0.0,0.0,0.0,0.0,-2.4055,-2.3653,-2.3739,-2.3553,-2.2949,-2.2814,-2.2723,0.0,0.0,0.0,0.0,0.0,0.0,0.0,0.0,0.0,0.0,0.0,0.0,0.0,0.0,0.0,0.0,0.0,0.0,0.0,0.0,0.0,0.0,0.0,0.0,0.0,0.0,0.0,0.0,0.0,0.0,0.0,0.0,0.0,0.0,0.0,0.0,0.0,0.0,0.0,0.0,0.0,0.0,0.0,0.0,0.0,0.0,0.0,0.0,0.0,0.0,0.0,0.0,0.0,0.0,0.0,0.0,0.0,0.0,0.0,0.0,0.0,0.0,0.0,0.0,0.0,0.0,0.0,0.0,0.0,0.0,0.0,0.0,0.0,0.0,0.0,0.0,0.0,0.0,0.0,0.0,0.0,0.0,0.0,0.0,0.0,0.0,0.0,0.0,0.0,0.0,0.0,0.0,0.0,0.0,0.0,0.0,0.0,0.0,0.0,0.0,0.0,0.0,0.0,0.0,0.0,0.0,0.0,0.0,0.0,-2.3982,-2.4024,-2.4109,-2.4194,-2.3585,-2.3467,0.0,0.0,0.0,0.0,0.0,0.0,0.0,0.0,0.0,0.0,0.0,0.0,0.0,0.0,0.0,0.0,0.0,0.0,0.0,0.0,0.0,0.0,0.0,0.0,0.0,0.0,0.0,0.0,0.0,0.0,0.0,0.0,0.0,0.0,0.0,0.0,0.0,0.0,0.0,0.0,0.0,0.0,0.0,0.0,0.0,0.0,0.0,0.0,0.0,0.0,0.0,0.0,0.0,0.0,0.0,0.0,0.0,0.0,0.0,0.0,0.0,0.0,0.0,0.0,0.0,0.0,0.0,0.0,0.0,0.0,0.0,0.0,0.0,0.0,0.0,0.0,0.0,0.0,0.0,0.0,0.0,0.0,0.0,0.0,0.0,0.0,0.0,0.0,0.0,0.0,0.0,0.0,0.0,0.0,0.0,0.0,0.0,0.0,0.0,0.0,0.0,0.0,0.0,0.0,0.0,0.0,0.0,0.0,0.0,-2.5161,-2.5044,-2.5098,-2.5318,-2.4447,-2.4253,-2.4759,0.0,0.0,0.0,0.0,0.0,0.0,0.0,0.0,0.0,0.0,0.0,0.0,0.0,0.0,0.0,0.0,0.0,0.0,0.0,0.0,0.0,0.0,0.0,0.0,0.0,0.0,0.0,0.0,0.0,0.0,0.0,0.0,0.0,0.0,0.0,0.0,0.0,0.0,0.0,0.0,0.0,0.0,0.0,0.0,0.0,0.0,0.0,0.0,0.0,0.0,0.0,0.0,0.0,0.0,0.0,0.0,0.0,0.0,0.0,0.0,0.0,0.0,0.0,0.0,0.0,0.0,0.0,0.0,0.0,0.0,0.0,0.0,0.0,0.0,0.0,0.0,0.0,0.0,0.0,0.0,0.0,0.0,0.0,0.0,0.0,0.0,0.0,0.0,0.0,0.0,0.0,0.0,0.0,0.0,0.0,0.0,0.0,0.0,0.0,0.0,0.0,0.0,0.0,0.0,0.0,0.0,0.0,0.0,-2.7005,-2.6727,-2.6472,-2.6275,-2.5379,-2.5002,0.0,0.0,0.0,0.0,0.0,0.0,0.0,0.0,0.0,0.0,0.0,0.0,0.0,0.0,0.0,0.0,0.0,0.0,0.0,0.0,0.0,0.0,0.0,0.0,0.0,0.0,0.0,0.0,0.0,0.0,0.0,0.0,0.0,0.0,0.0,0.0,0.0,0.0,0.0,0.0,0.0,0.0,0.0,0.0,0.0,0.0,0.0,0.0,0.0,0.0,0.0,0.0,0.0,0.0,0.0,0.0,0.0,0.0,0.0,0.0,0.0,0.0,0.0,0.0,0.0,0.0,0.0,0.0,0.0,0.0,0.0,0.0,0.0,0.0,0.0,0.0,0.0,0.0,0.0,0.0,0.0,0.0,0.0,0.0,0.0,0.0,0.0,0.0,0.0,0.0,0.0,0.0,0.0,0.0,0.0,0.0,0.0,0.0,0.0,0.0,0.0,0.0,0.0,0.0,0.0,0.0,0.0,0.0,0.0,-2.8263,-2.8186,-2.7922,-2.7317,-2.6441,-2.6335,0.0,0.0,0.0,0.0,0.0,0.0,0.0,0.0,0.0,0.0,0.0,0.0,0.0,0.0,0.0,0.0,0.0,0.0,0.0,0.0,0.0,0.0,0.0,0.0,0.0,0.0,0.0,0.0,0.0,0.0,0.0,0.0,0.0,0.0,0.0,0.0,0.0,0.0,0.0,0.0,0.0,0.0,0.0,0.0,0.0,0.0,0.0,0.0,0.0,0.0,0.0,0.0,0.0,0.0,0.0,0.0,0.0,0.0,0.0,0.0,0.0,0.0,0.0,0.0,0.0,0.0,0.0,0.0,0.0,0.0,0.0,0.0,0.0,0.0,0.0,0.0,0.0,0.0,0.0,0.0,0.0,0.0,0.0,0.0,0.0,0.0,0.0,0.0,0.0,0.0,0.0,0.0,0.0,0.0,0.0,0.0,0.0,0.0,0.0,0.0,0.0,0.0,0.0,0.0,0.0,0.0,0.0,0.0,-2.7933,-2.947,-2.9155,-2.8889,-2.8809,-2.7595,-2.7271,0.0,0.0,0.0,0.0,0.0,0.0,0.0,0.0,0.0,0.0,0.0,0.0,0.0,0.0,0.0,0.0,0.0,0.0,0.0,0.0,0.0,0.0,0.0,0.0,0.0,0.0,0.0,0.0,0.0,0.0,0.0,0.0,0.0,0.0,0.0,0.0,0.0,0.0,0.0,0.0,0.0,0.0,0.0,0.0,0.0,0.0,0.0,0.0,0.0,0.0,0.0,0.0,0.0,0.0,0.0,0.0,0.0,0.0,0.0,0.0,0.0,0.0,0.0,0.0,0.0,0.0,0.0,0.0,0.0,0.0,0.0,0.0,0.0,0.0,0.0,0.0,0.0,0.0,0.0,0.0,0.0,0.0,0.0,0.0,0.0,0.0,0.0,0.0,0.0,0.0,0.0,0.0,0.0,0.0,0.0,0.0,0.0,0.0,0.0,0.0,0.0,0.0,0.0,0.0,0.0,0.0,0.0,0.0,-2.8989,-3.0543,-2.9737,-2.9753,-3.0482,-2.8841,-2.8015,0.0,0.0,0.0,0.0,0.0,0.0,0.0,0.0,0.0,0.0,0.0,0.0,0.0,0.0,0.0,0.0,0.0,0.0,0.0,0.0,0.0,0.0,0.0,0.0,0.0,0.0,0.0,0.0,0.0,0.0,0.0,0.0,0.0,0.0,0.0,0.0,0.0,0.0,0.0,0.0,0.0,0.0,0.0,0.0,0.0,0.0,0.0,0.0,0.0,0.0,0.0,0.0,0.0,0.0,0.0,0.0,0.0,0.0,0.0,0.0,0.0,0.0,0.0,0.0,0.0,0.0,0.0,0.0,0.0,0.0,0.0,0.0,0.0,0.0,0.0,0.0,0.0,0.0,0.0,0.0,0.0,0.0,0.0,0.0,0.0,0.0,0.0,0.0,0.0,0.0,0.0,0.0,0.0,0.0,0.0,0.0,0.0,0.0,0.0,0.0,0.0,0.0,0.0,0.0,0.0,0.0,0.0,0.0,-2.972,-3.0987,-3.0844,-3.1097,-3.1842,-2.988,-2.8887,0.0,0.0,0.0,0.0,0.0,0.0,0.0,0.0,0.0,0.0,0.0,0.0,0.0,0.0,0.0,0.0,0.0,0.0,0.0,0.0,0.0,0.0,0.0,0.0,0.0,0.0,0.0,0.0,0.0,0.0,0.0,0.0,0.0,0.0,0.0,0.0,0.0,0.0,0.0,0.0,0.0,0.0,0.0,0.0,0.0,0.0,0.0,0.0,-2.5105,0.0,0.0,0.0,0.0,0.0,0.0,0.0,0.0,0.0,0.0,0.0,0.0,0.0,0.0,0.0,0.0,0.0,0.0,0.0,0.0,0.0,0.0,0.0,0.0,0.0,0.0,0.0,0.0,0.0,0.0,0.0,0.0,0.0,0.0,0.0,0.0,0.0,0.0,0.0,0.0,0.0,0.0,0.0,0.0,0.0,0.0,0.0,0.0,0.0,0.0,0.0,0.0,0.0,0.0,0.0,0.0,0.0,0.0,0.0,-3.008,-3.1823,-3.1326,-3.1566,-3.2542,-3.1038,-3.0054,0.0,0.0,0.0,0.0,0.0,0.0,0.0,0.0,0.0,0.0,0.0,0.0,0.0,0.0,0.0,0.0,0.0,0.0,0.0,0.0,0.0,0.0,0.0,0.0,0.0,0.0,0.0,0.0,0.0,0.0,0.0,0.0,0.0,0.0,0.0,0.0,0.0,0.0,0.0,0.0,0.0,0.0,0.0,0.0,0.0,0.0,0.0,0.0,0.0,0.0,0.0,0.0,0.0,0.0,0.0,0.0,0.0,0.0,0.0,0.0,0.0,0.0,0.0,0.0,0.0,0.0,0.0,0.0,0.0,0.0,0.0,0.0,0.0,0.0,0.0,0.0,0.0,0.0,0.0,0.0,0.0,0.0,0.0,0.0,0.0,0.0,0.0,0.0,0.0,0.0,0.0,0.0,0.0,0.0,0.0,0.0,0.0,0.0,0.0,0.0,0.0,0.0,0.0,0.0,0.0,0.0,0.0,-2.941,-3.0619,-3.2512,-3.189,-3.1978,-3.3016,-3.2207,-3.1356,-3.0466,0.0,0.0,0.0,0.0,0.0,0.0,0.0,0.0,0.0,0.0,0.0,0.0,0.0,0.0,0.0,0.0,0.0,0.0,0.0,0.0,0.0,0.0,0.0,0.0,0.0,0.0,0.0,0.0,0.0,0.0,0.0,0.0,0.0,0.0,0.0,0.0,0.0,0.0,-2.5765,-2.6454,0.0,0.0,0.0,0.0,0.0,0.0,0.0,0.0,-2.7624,0.0,0.0,0.0,0.0,0.0,0.0,0.0,0.0,0.0,0.0,0.0,0.0,0.0,0.0,0.0,0.0,0.0,0.0,0.0,0.0,0.0,0.0,0.0,0.0,0.0,0.0,0.0,0.0,0.0,0.0,0.0,0.0,0.0,0.0,0.0,0.0,0.0,0.0,0.0,0.0,0.0,0.0,0.0,0.0,0.0,0.0,0.0,0.0,0.0,0.0,0.0,0.0,0.0,0.0,0.0,0.0,-2.9181,-3.11,-3.2188,-3.2376,-3.3379,-3.3761,-3.3353,-3.3436,-3.2834,-3.1502,0.0,0.0,0.0,0.0,0.0,0.0,0.0,0.0,0.0,0.0,0.0,0.0,0.0,0.0,0.0,0.0,0.0,0.0,0.0,0.0,0.0,0.0,0.0,0.0,0.0,0.0,0.0,0.0,0.0,0.0,0.0,0.0,0.0,0.0,0.0,0.0,0.0,0.0,0.0,-2.7853,-2.8263,0.0,0.0,0.0,0.0,0.0,0.0,0.0,0.0,-2.8986,0.0,0.0,0.0,0.0,0.0,0.0,0.0,0.0,0.0,0.0,0.0,0.0,0.0,0.0,0.0,0.0,0.0,0.0,0.0,0.0,0.0,0.0,0.0,0.0,0.0,0.0,0.0,0.0,0.0,0.0,0.0,0.0,0.0,0.0,0.0,0.0,0.0,0.0,0.0,0.0,0.0,0.0,0.0,0.0,0.0,0.0,0.0,0.0,0.0,0.0,0.0,0.0,0.0,0.0,0.0,-2.9821,-3.1437,-3.2398,-3.2636,-3.3401,-3.3828,-3.3876,-3.3582,-3.3079,0.0,0.0,0.0,0.0,0.0,0.0,0.0,0.0,0.0,0.0,0.0,0.0,0.0,0.0,0.0,0.0,0.0,0.0,0.0,0.0,0.0,0.0,0.0,0.0,0.0,0.0,0.0,0.0,0.0,0.0,0.0,0.0,0.0,0.0,0.0,0.0,0.0,0.0,0.0,0.0,-2.8932,-2.9457,-2.9303,0.0,0.0,0.0,0.0,0.0,0.0,-3.0215,-3.0077,0.0,0.0,0.0,0.0,0.0,0.0,0.0,0.0,0.0,0.0,0.0,0.0,0.0,0.0,0.0,0.0,0.0,0.0,0.0,0.0,0.0,0.0,0.0,0.0,0.0,0.0,0.0,0.0,0.0,0.0,0.0,0.0,0.0,0.0,0.0,0.0,0.0,0.0,0.0,0.0,0.0,0.0,0.0,0.0,0.0,0.0,0.0,0.0,0.0,0.0,0.0,0.0,0.0,0.0,0.0,-3.0823,-3.1883,-3.2685,-3.327,-3.3547,-3.3842,-3.4235,-3.3681,-3.3194,0.0,0.0,0.0,0.0,0.0,0.0,0.0,0.0,0.0,0.0,0.0,0.0,0.0,0.0,0.0,0.0,0.0,0.0,0.0,0.0,0.0,0.0,0.0,0.0,0.0,0.0,0.0,0.0,0.0,0.0,0.0,0.0,0.0,0.0,0.0,0.0,0.0,0.0,0.0,0.0,0.0,-3.0451,-3.0516,-3.0628,0.0,0.0,0.0,0.0,-3.1355,-3.1335,0.0,0.0,0.0,0.0,0.0,0.0,0.0,0.0,0.0,0.0,0.0,0.0,0.0,0.0,0.0,0.0,0.0,0.0,0.0,0.0,0.0,0.0,0.0,0.0,0.0,0.0,0.0,0.0,0.0,0.0,0.0,0.0,0.0,0.0,0.0,0.0,0.0,0.0,0.0,0.0,0.0,0.0,0.0,0.0,0.0,0.0,0.0,0.0,0.0,0.0,0.0,0.0,0.0,0.0,0.0,0.0,-3.2471,-3.3609,-3.4231,-3.4358,-3.4977,-3.4947,-3.4163,-3.4358,-3.4071,0.0,0.0,0.0,0.0,0.0,0.0,0.0,0.0,0.0,0.0,0.0,0.0,0.0,0.0,0.0,0.0,0.0,0.0,0.0,0.0,0.0,0.0,0.0,0.0,0.0,0.0,0.0,0.0,0.0,0.0,0.0,0.0,0.0,0.0,0.0,0.0,0.0,0.0,0.0,0.0,0.0,-3.0708,-3.0772,-3.1152,-3.1415,0.0,0.0,-3.2134,-3.2286,-3.2528,0.0,0.0,0.0,0.0,0.0,0.0,0.0,0.0,0.0,0.0,0.0,0.0,0.0,0.0,0.0,0.0,0.0,0.0,0.0,0.0,0.0,0.0,0.0,0.0,0.0,0.0,0.0,0.0,0.0,0.0,0.0,0.0,0.0,0.0,0.0,0.0,0.0,0.0,0.0,0.0,0.0,0.0,0.0,0.0,0.0,0.0,0.0,0.0,0.0,0.0,0.0,0.0,0.0,0.0,0.0,-3.2796,-3.3048,-3.3839,-3.4184,-3.4134,-3.4811,-3.4858,-3.4101,-3.4178,-3.4036,0.0,0.0,0.0,0.0,0.0,0.0,0.0,0.0,0.0,0.0,0.0,0.0,0.0,0.0,0.0,0.0,0.0,0.0,0.0,0.0,0.0,0.0,0.0,0.0,0.0,0.0,0.0,0.0,0.0,0.0,0.0,0.0,0.0,0.0,0.0,0.0,0.0,0.0,0.0,0.0,0.0,0.0,-3.198,-3.2037,0.0,0.0,0.0,-3.2539,-3.2876,0.0,0.0,0.0,0.0,0.0,0.0,0.0,0.0,0.0,0.0,0.0,0.0,0.0,0.0,0.0,0.0,0.0,0.0,0.0,0.0,0.0,0.0,0.0,0.0,0.0,0.0,0.0,0.0,0.0,0.0,0.0,0.0,0.0,0.0,0.0,0.0,0.0,0.0,0.0,0.0,0.0,0.0,0.0,0.0,0.0,0.0,0.0,0.0,0.0,0.0,0.0,0.0,0.0,0.0,0.0,0.0,0.0,-3.3706,-3.4421,-3.4697,-3.4556,-3.5195,-3.5316,-3.4873,-3.4643,0.0,0.0,0.0,0.0,0.0,0.0,0.0,0.0,0.0,0.0,0.0,0.0,0.0,0.0,0.0,0.0,0.0,0.0,0.0,0.0,0.0,0.0,0.0,0.0,0.0,0.0,0.0,-3.0205,0.0,0.0,0.0,0.0,0.0,0.0,0.0,0.0,0.0,0.0,0.0,0.0,0.0,0.0,-3.267,-3.2911,-3.2925,-3.3184,0.0,0.0,-3.3241,-3.3719,-3.3775,-3.3775,0.0,0.0,0.0,0.0,0.0,0.0,0.0,0.0,0.0,0.0,0.0,0.0,0.0,0.0,0.0,0.0,0.0,0.0,0.0,0.0,0.0,0.0,0.0,0.0,0.0,0.0,0.0,0.0,0.0,0.0,0.0,0.0,0.0,0.0,0.0,0.0,0.0,0.0,0.0,0.0,0.0,0.0,0.0,0.0,0.0,0.0,0.0,0.0,0.0,0.0,0.0,0.0,0.0,0.0,0.0,-3.4805,-3.6013,-3.6581,-3.6605,-3.7057,-3.7117,-3.6901,-3.6554,-3.5999,0.0,0.0,0.0,0.0,0.0,0.0,0.0,0.0,0.0,0.0,0.0,0.0,0.0,0.0,0.0,0.0,0.0,0.0,0.0,0.0,0.0,0.0,0.0,0.0,0.0,0.0,0.0,0.0,0.0,0.0,0.0,0.0,0.0,0.0,0.0,0.0,0.0,0.0,0.0,0.0,0.0,-3.3111,-3.3177,-3.387,-3.4356,0.0,0.0,-3.5057,-3.5085,-3.5113,-3.5113,-3.5012,0.0,0.0,0.0,0.0,0.0,0.0,0.0,0.0,0.0,0.0,0.0,0.0,0.0,0.0,0.0,0.0,0.0,0.0,0.0,0.0,0.0,0.0,0.0,0.0,0.0,0.0,0.0,0.0,0.0,0.0,0.0,0.0,0.0,0.0,0.0,0.0,0.0,0.0,0.0,0.0,0.0,0.0,0.0,0.0,0.0,0.0,0.0,0.0,0.0,0.0,0.0,0.0,0.0,-3.5592,-3.6001,-3.6996,-3.7449,-3.7381,-3.7686,-3.7534,-3.6973,-3.6982,-3.6682,0.0,0.0,0.0,0.0,0.0,0.0,0.0,0.0,0.0,0.0,0.0,0.0,0.0,0.0,0.0,0.0,0.0,0.0,0.0,0.0,0.0,0.0,0.0,0.0,0.0,0.0,0.0,0.0,-3.3774,-3.3872,-3.3472,0.0,0.0,0.0,0.0,0.0,0.0,0.0,0.0,0.0,0.0,-3.4082,-3.4318,-3.4683,0.0,0.0,-3.5159,-3.5226,-3.5226,-3.5226,-3.5226,-3.5226,-3.5226,0.0,0.0,0.0,0.0,0.0,0.0,0.0,0.0,0.0,0.0,0.0,0.0,0.0,0.0,0.0,0.0,0.0,0.0,0.0,0.0,0.0,0.0,0.0,0.0,0.0,0.0,0.0,0.0,0.0,0.0,0.0,0.0,0.0,0.0,0.0,0.0,0.0,0.0,0.0,0.0,0.0,0.0,0.0,0.0,0.0,0.0,0.0,0.0,0.0,0.0,0.0,0.0,-3.6558,-3.7043,-3.7835,-3.8159,-3.8082,-3.828,-3.807,-3.7536,-3.7617,-3.7321,0.0,0.0,0.0,0.0,0.0,0.0,0.0,0.0,0.0,0.0,0.0,0.0,0.0,0.0,0.0,0.0,0.0,0.0,0.0,0.0,0.0,0.0,0.0,0.0,0.0,0.0,0.0,0.0,-3.5383,-3.5545,-3.5177,0.0,0.0,0.0,0.0,0.0,0.0,0.0,0.0,0.0,0.0,-3.5153,-3.5395,-3.5625,-3.5787,-3.606,-3.5939,-3.5845,-3.6014,-3.5826,-3.577,-3.5939,0.0,0.0,0.0,0.0,0.0,0.0,0.0,0.0,0.0,0.0,0.0,0.0,0.0,0.0,0.0,0.0,0.0,0.0,0.0,0.0,0.0,0.0,0.0,0.0,0.0,0.0,0.0,0.0,0.0,0.0,-3.5536,0.0,0.0,0.0,0.0,0.0,0.0,0.0,0.0,0.0,0.0,0.0,0.0,0.0,0.0,0.0,0.0,0.0,0.0,0.0,0.0,0.0,0.0,-3.7003,-3.7902,-3.8588,-3.8996,-3.8956,-3.9009,-3.8997,-3.8952,-3.8576,-3.8131,-3.7492,0.0,0.0,0.0,0.0,0.0,0.0,0.0,0.0,0.0,0.0,0.0,0.0,0.0,0.0,0.0,0.0,0.0,0.0,0.0,0.0,0.0,0.0,0.0,0.0,0.0,0.0,-3.5713,-3.6083,-3.6542,0.0,0.0,0.0,0.0,0.0,0.0,0.0,0.0,0.0,0.0,-3.6286,-3.6286,-3.6315,-3.662,-3.7032,-3.7482,-3.7337,-3.7381,-3.7709,-3.7344,-3.7147,0.0,0.0,0.0,0.0,0.0,0.0,0.0,0.0,0.0,0.0,0.0,0.0,0.0,0.0,0.0,0.0,0.0,0.0,0.0,0.0,0.0,0.0,0.0,0.0,0.0,0.0,0.0,-3.8438,-3.8436,0.0,0.0,0.0,0.0,0.0,0.0,0.0,0.0,0.0,0.0,0.0,-3.9076,-3.9196,0.0,0.0,0.0,0.0,0.0,0.0,0.0,0.0,0.0,0.0,0.0,0.0,-3.8376,-3.8921,-3.9699,-4.0109,-4.0148,-3.9866,-3.9615,-3.9433,-3.9106,-3.8745,-3.8374,0.0,0.0,0.0,0.0,0.0,0.0,0.0,0.0,0.0,0.0,0.0,0.0,0.0,0.0,0.0,0.0,0.0,0.0,0.0,0.0,0.0,0.0,0.0,0.0,0.0,-3.8136,0.0,0.0,0.0,0.0,0.0,0.0,0.0,0.0,0.0,0.0,0.0,-3.7228,-3.7267,-3.695,-3.6881,-3.707,-3.7181,-3.7386,0.0,0.0,0.0,0.0,0.0,0.0,0.0,0.0,0.0,0.0,0.0,0.0,0.0,0.0,-3.7386,-3.7386,-3.7038,-3.6687,-3.6443,0.0,0.0,0.0,0.0,0.0,0.0,0.0,0.0,0.0,0.0,0.0,0.0,0.0,0.0,0.0,0.0,-3.9976,0.0,0.0,0.0,0.0,0.0,0.0,0.0,0.0,-3.9904,-4.0106,-4.0351,-4.0192,-4.027,0.0,-4.027,-4.0009,0.0,0.0,0.0,0.0,0.0,0.0,0.0,0.0,-3.9589,-3.9924,-4.0534,-4.088,-4.0866,-4.0308,-3.9929,-3.9785,-3.9544,-3.9347,-3.9159,-3.9331,-3.9079,0.0,0.0,0.0,0.0,0.0,0.0,0.0,0.0,0.0,0.0,0.0,0.0,0.0,0.0,0.0,0.0,0.0,0.0,0.0,0.0,0.0,0.0,0.0,-3.9698,0.0,0.0,0.0,0.0,0.0,0.0,0.0,0.0,0.0,-3.853,-3.8232,-3.8232,-3.837,-3.8046,-3.7866,-3.8282,0.0,0.0,0.0,0.0,0.0,0.0,0.0,-3.9191,-3.9389,-3.9253,-3.9255,-3.9479,-3.9507,-3.9507,-3.9507,0.0,0.0,-3.8945,-3.8751,-3.8587,-3.8339,-3.8256,-3.8117,-3.7838,-3.7922,-3.8004,0.0,0.0,0.0,0.0,0.0,0.0,0.0,0.0,-4.1089,-4.1026,0.0,-4.0637,0.0,0.0,0.0,0.0,0.0,-4.0398,0.0,0.0,-4.1376,-4.2061,-4.2693,-4.1955,-4.2026,-4.2763,-4.199,-4.1639,-4.1604,-4.02,0.0,0.0,0.0,0.0,0.0,0.0,-4.0534,-4.0977,-4.1218,-4.1271,-4.1225,-4.0446,-4.0009,-4.0104,-3.9992,-3.9878,-3.9772,-4.0533,-4.0598,-3.9772,-4.0369,0.0,0.0,0.0,0.0,0.0,0.0,0.0,0.0,0.0,0.0,0.0,0.0,0.0,0.0,0.0,0.0,0.0,0.0,0.0,0.0,-4.0425,0.0,0.0,0.0,0.0,0.0,0.0,0.0,0.0,0.0,0.0,-4.0191,-3.999,-3.995,-3.9798,0.0,0.0,0.0,0.0,-4.0242,-4.0694,-4.0101,-3.9658,-4.012,-3.9504,-3.9224,-3.9816,0.0,0.0,-4.0575,-4.0688,-4.0659,-4.0688,-4.0631,-4.0322,-3.917,-3.9002,-3.8974,-3.8974,-3.9002,-3.8945,-3.8945,-3.8975,-3.9088,-4.392,0.0,0.0,0.0,0.0,-4.2402,-4.2908,-4.3111,-4.4152,-4.4418,-4.4123,-4.4048,0.0,0.0,0.0,0.0,0.0,0.0,-4.2935,-4.2448,-4.2431,-4.2587,-4.2763,-4.199,-4.2271,-4.3535,-4.2833,-4.2728,-4.3184,-4.2798,-4.2041,-4.0976,0.0,0.0,0.0,0.0,-4.1871,-4.2575,-4.2673,-4.2568,-4.2252,-4.1722,-4.1262,-4.0746,-4.0713,-4.0713,-4.0746,-4.0943,-4.0885,-4.0631,-4.0723,0.0,0.0,0.0,0.0,0.0,0.0,0.0,0.0,0.0,0.0,0.0,0.0,0.0,0.0,0.0,0.0,0.0,0.0,0.0,-4.1193,-4.1136,-4.1238,0.0,0.0,0.0,0.0,0.0,0.0,0.0,0.0,0.0,-4.266,-4.1775,-4.1511,0.0,0.0,-4.0707,-4.1085,-4.047,-4.0112,-4.0694,0.0,0.0,0.0,-4.1022,-4.0881,-4.0914,-4.0689,-4.0491,-4.0688,-4.0716,-4.0716,-4.0716,-4.0716,-4.0575,-4.0266,-4.0182,-4.0154,-4.0182,-4.0182,-4.0182,-4.0182,-4.0182,-4.0125,-4.6896,-4.4183,-4.3877,-4.3764,-4.3876,-4.4612,-4.4864,-4.4801,-4.5729,-4.5956,-4.5659,-4.5659,-4.5469,-4.5156,-4.454,0.0,0.0,0.0,-4.3456,-4.2625,-4.3209,-4.3392,-4.3219,-4.2728,-4.3149,-4.4308,-4.3605,-4.3465,-4.3886,-4.3886,-4.3384,-4.238,0.0,0.0,-4.281,-4.2604,-4.2728,-4.3256,-4.3385,-4.3323,-4.2949,-4.2468,-4.1923,-4.135,-4.1409,-4.1468,-4.1409,-4.1671,-4.1704,-4.1324,-4.1536,-4.1578,0.0,0.0,0.0,0.0,0.0,0.0,0.0,0.0,0.0,0.0,0.0,-4.1383,0.0,0.0,0.0,0.0,-4.1614,-4.1938,-4.2391,-4.2587,0.0,0.0,0.0,0.0,0.0,0.0,0.0,-4.3137,-4.3453,-4.3832,-4.4085,-4.3427,-4.2997,-4.3012,-4.2166,-4.1602,-4.2025,0.0,-4.1059,-4.1955,-4.1785,-4.1731,-4.2336,-4.2366,-4.2281,-4.2224,-4.188,-4.1592,-4.1592,-4.1395,-4.1254,-4.1225,-4.1028,-4.0859,-4.0944,-4.0859,-4.0716,-4.0716,-4.0716,-4.0716,-4.0716,-4.0716,-4.063,-4.9477,-4.7846,-4.74,-4.7005,-4.678,-4.6643,-4.645,-4.6316,-4.6389,-4.6284,-4.614,-4.6104,-4.5955,-4.5612,-4.4289,0.0,-4.3888,-4.3714,-4.3109,-4.2271,-4.3811,-4.4359,-4.3992,-4.3921,-4.4343,-4.5185,-4.4378,-4.4027,-4.4097,-4.4097,-4.4097,-4.4062,-4.3777,-4.3631,-4.361,-4.3366,-4.337,-4.3457,-4.382,-4.3897,-4.3606,-4.2922,-4.2367,-4.195,-4.2222,-4.2222,-4.1922,-4.2631,-4.2757,-4.1955,-4.2509,-4.2805,-4.2618,0.0,0.0,0.0,0.0,0.0,0.0,0.0,0.0,0.0,0.0,0.0,0.0,0.0,0.0,0.0,-4.3362,0.0,-4.3783,-4.4399,0.0,0.0,0.0,-4.4249,-4.4113,-4.4002,-4.3959,-4.399,0.0,0.0,-4.4875,0.0,-4.4369,-4.3013,-4.2515,-4.2387,-4.2739,-4.2509,-4.2673,-4.3718,-4.3285,-4.3026,-4.3459,-4.3401,-4.3226,-4.3226,-4.3076,-4.2931,-4.2786,-4.2417,-4.2077,-4.2136,-4.1539,-4.1256,-4.1454,-4.1284,-4.0856,-4.0912,-4.0772,-4.0716,-4.08,-4.0828,-4.0856,-5.1699,-5.1055,-5.0654,-4.9102,-4.6862,-4.7243,-4.7336,-4.7307,-4.79,-4.8051,-4.7868,-4.7793,-4.7563,-4.732,-4.6939,-4.6663,-4.6413,-4.623,-4.5579,-4.4607,-4.4812,-4.4894,-4.4764,-4.4202,-4.4624,-4.5852,-4.5185,-4.5115,-4.5642,-4.5579,-4.5579,-4.5628,-4.5281,-4.4902,-4.4446,-4.4297,-4.4596,-4.5446,-4.578,-4.572,-4.5094,-4.3864,-4.3125,-4.3005,-4.2944,-4.2851,-4.279,-4.3015,-4.2986,-4.2639,-4.2802,-4.2867,-4.2805,-4.2805,0.0,0.0,0.0,0.0,0.0,0.0,0.0,0.0,0.0,-4.2587,-4.2587,0.0,-4.2844,0.0,-4.4107,-4.4528,-4.4561,-4.469,0.0,0.0,-4.4905,-4.5053,-4.4984,-4.5627,-4.6044,-4.6076,-4.6529,-4.6982,-4.7119,-4.6665,-4.6161,-4.588,-4.4891,-4.4267,-4.4368,-4.3867,-4.3631,-4.3921,-4.3892,-4.3719,-4.3892,-4.369,-4.3544,-4.3487,-4.3341,-4.3165,-4.3193,-4.2874,-4.2761,-4.2936,-4.2763,-4.2562,-4.2767,-4.2649,-4.2358,-4.2301,-4.1536,-4.0828,-4.1278,-4.139,-4.1531,-5.306,-5.2427,-5.2069,-5.0798,-4.9059,-4.925,-4.9266,-4.9196,-4.964,-4.9713,-4.9485,-4.9001,-4.8477,-4.7911,-4.742,-4.703,-4.6693,-4.6641,-4.5899,-4.4823,-4.5494,-4.5623,-4.5115,-4.4975,-4.5572,-4.673,-4.6309,-4.652,-4.7136,-4.6755,-4.6479,-4.6393,-4.5875,-4.5459,-4.5233,-4.518,-4.5603,-4.6374,-4.6034,-4.5693,-4.5496,-4.4112,-4.3355,-4.3388,-4.3295,-4.3174,-4.3113,-4.3052,-4.2929,-4.2899,-4.2837,-4.2743,-4.2743,-4.2743,-4.297,0.0,0.0,0.0,0.0,0.0,0.0,0.0,0.0,0.0,0.0,0.0,-4.3751,-4.4172,-4.482,-4.5241,-4.5241,-4.5856,-4.6212,-4.6212,-4.6582,-4.6859,-4.6717,-4.7244,-4.7501,-4.7277,-4.7691,-4.8126,-4.8338,-4.8029,-4.7877,-4.8137,-4.7632,-4.6804,-4.593,-4.4995,-4.467,-4.5141,-4.4763,-4.4501,-4.4763,-4.4733,-4.4615,-4.4615,-4.4438,-4.4289,-4.426,-4.3942,-4.3681,-4.383,-4.3541,-4.3341,-4.3516,-4.3341,-4.3076,-4.2991,-4.2361,-4.1874,-4.1952,-4.2036,-4.2177,-5.4226,-5.3289,-5.292,-5.2655,-5.2465,-5.2045,-5.1565,-5.1118,-5.1155,-5.104,-5.0765,-4.9911,-4.9021,-4.802,-4.7083,-4.6392,-4.606,-4.6096,-4.5391,-4.4355,-4.6012,-4.6365,-4.5431,-4.6168,-4.6871,-4.7538,-4.7538,-4.7889,-4.8434,-4.77,-4.7143,-4.6811,-4.6116,-4.5883,-4.6045,-4.6136,-4.6418,-4.6828,-4.5711,-4.5196,-4.541,-4.4291,-4.3652,-4.3652,-4.3553,-4.346,-4.3244,-4.2994,-4.2899,-4.2837,-4.268,-4.2587,-4.2587,-4.2715,-4.3008,0.0,-4.3783,0.0,0.0,0.0,0.0,0.0,0.0,0.0,0.0,-4.4949,-4.5046,-4.5079,-4.5694,-4.6115,-4.6212,-4.7313,-4.8058,-4.8155,-4.849,-4.8698,-4.8519,-4.8541,-4.8381,-4.8111,-4.8349,-4.8765,-4.9126,-4.9158,-4.9441,-4.9994,-4.999,-4.9285,-4.7873,-4.6515,-4.6096,-4.705,-4.6079,-4.5576,-4.6011,-4.6127,-4.6127,-4.6127,-4.5945,-4.5854,-4.5825,-4.5331,-4.4928,-4.4902,-4.4438,-4.4123,-4.4269,-4.3891,-4.3627,-4.3595,-4.3272,-4.3036,-4.2801,-4.2683,-4.2739,-5.6633,-5.604,-5.5908,-5.5696,-5.5434,-5.465,-5.3162,-5.1343,-5.1306,-5.1156,-5.0848,-5.0501,-4.97,-4.8598,-4.8331,-4.759,-4.6518,-4.6518,-4.6259,-4.5817,-4.6829,-4.7216,-4.7011,-4.7713,-4.817,-4.831,-4.831,-4.8329,-4.8312,-4.8067,-4.7785,-4.7424,-4.7065,-4.6975,-4.7214,0.0,0.0,0.0,-4.6699,-4.638,-4.6507,-4.5497,-4.5009,-4.5102,-4.4417,0.0,-4.3965,-4.3287,-4.2837,-4.265,-4.2618,0.0,0.0,0.0,0.0,0.0,0.0,0.0,0.0,0.0,0.0,0.0,-4.673,-4.6666,-4.5014,-4.5824,-4.6504,-4.6504,-4.7151,-4.7831,-4.835,-4.8155,-4.822,-4.8771,-4.8675,-4.8551,-4.8509,-4.8656,-4.8776,-4.8731,-4.9723,-5.0469,-5.0596,-5.061,-5.085,-5.148,-5.1114,-5.0693,-5.0275,-4.9235,-4.8713,-4.8536,-4.7603,-4.7201,-4.7404,-4.7375,-4.7288,-4.7433,-4.7433,-4.7282,-4.7253,-4.7073,-4.6691,-4.6379,-4.6206,-4.5825,-4.5544,-4.5158,-4.4767,-4.4767,-4.4429,-4.4011,-4.3413,-4.3329,-4.3469,-5.749,0.0,-5.688,-5.6668,0.0,-5.5879,-5.4907,-5.368,-5.2901,-5.2079,-5.1434,-5.1109,-5.0373,-4.9298,-4.9081,-4.8543,-4.7758,-4.7758,-4.7611,-4.7362,-4.7783,-4.7924,-4.7959,-4.8345,-4.8731,-4.9082,-4.9082,-4.9241,-4.9396,-4.8777,-4.8273,-4.7843,-4.7271,-4.7064,-4.7254,-4.7398,-4.7533,-4.7661,-4.6782,-4.6422,-4.6617,-4.5668,-4.5211,-4.5403,0.0,0.0,0.0,0.0,0.0,0.0,0.0,0.0,0.0,0.0,0.0,-4.4712,-4.5075,-4.5597,-4.6309,-4.6698,-4.7054,-4.7378,-4.8091,-4.8058,-4.6957,-4.754,-4.7929,-4.7961,-4.8285,-4.8641,-4.8965,-4.903,-4.9119,-4.9369,-4.9576,-4.9609,-4.9457,-4.9592,-4.9787,-4.9979,-5.0628,-5.1343,-5.1973,-5.2062,-5.23,-5.2913,-5.2776,-5.2534,-5.2363,-5.0918,-4.9463,-4.8496,-4.8033,-4.7782,-4.7782,-4.7782,-4.7782,-4.7782,-4.7782,-4.7782,-4.7782,-4.7688,-4.7543,-4.7375,-4.7224,-4.6986,-4.6755,-4.6361,-4.6175,-4.5893,-4.5704,-4.5194,-4.4537,-4.4172,-4.4031,-5.8005,-5.7718,-5.7397,-5.7153,-5.693,-5.6623,-5.6351,-5.601,0.0,0.0,0.0,-5.1784,-5.104,-5.0082,-4.9674,-4.9266,-4.8826,-4.8826,-4.8725,-4.8521,-4.8661,-4.8696,-4.8731,-4.8872,-4.9258,-4.989,-4.989,-5.0099,-5.0439,-4.9457,-4.8689,-4.8184,-4.7368,-4.7038,-4.7106,-4.7473,-4.7638,-4.7605,-4.6781,-4.6354,-4.6487,-4.5767,-4.5473,-4.5636,-4.5343,-4.5212,-4.5212,-4.4918,-4.4787,-4.4787,-4.4787,-4.4821,-4.4816,-4.5017,-4.5398,-4.5966,-4.6237,-4.6925,-4.8091,-4.8188,-4.8479,-4.9159,-4.9224,-4.9159,-4.9062,-4.9127,-4.9192,-4.9224,-4.9192,-4.9256,-4.9386,-4.9807,-5.0122,-5.0123,-5.0703,-5.089,-5.0675,-5.0785,-5.0882,-5.115,-5.1452,-5.2009,-5.2859,-5.3197,-5.3436,-5.3891,-5.3945,-5.4017,-5.3601,-5.1801,-4.9945,-4.8811,-4.8464,-4.8159,-4.813,-4.8188,-4.813,-4.8217,-4.8188,-4.813,-4.8101,-4.8101,-4.8072,-4.7956,-4.7956,-4.768,-4.7433,-4.7252,-4.7148,-4.6639,-4.6458,-4.6135,-4.5436,-4.4846,-4.4425,-5.9197,-5.884,-5.884,-5.8611,-5.833,-5.7621,-5.6833,-5.6006,-5.488,-5.3907,-5.3093,-5.2631,-5.1792,-5.0746,-5.0316,-4.9564,-4.8572,-4.8572,-4.8521,0.0,-4.9223,-4.9539,-4.9539,-5.0241,-5.0627,-5.0733,-5.0697,-5.046,-5.0045,-4.9861,-4.9325,-4.8568,-4.8279,-4.8089,-4.7835,-4.7638,-4.7537,-4.7537,-4.7237,-4.6968,-4.6799,-4.6871,-4.6873,-4.6941,-4.6254,-4.5929,-4.5929,-4.5177,-4.4787,-4.4787,-4.4787,-4.4821,-4.4821,-4.5956,-4.662,-4.6813,-4.7909,-4.8673,-4.8868,-4.89,-4.9192,-4.9872,-4.9936,-4.9677,-4.9094,-4.958,-4.9936,-4.9969,-4.9969,-5.0228,-5.0746,-5.0455,-5.0639,-5.1411,-5.1545,-5.163,-5.19,-5.1801,-5.1783,-5.1859,-5.2448,-5.2796,-5.3092,-5.3629,-5.3922,-5.4071,-5.4103,-5.3899,-5.3139,-5.2303,-5.1271,-5.0271,-4.9698,-4.9504,-4.9262,-4.9407,-4.9291,-4.9407,-4.932,-4.9262,-4.9262,-4.9262,-4.9088,-4.8682,-4.8403,-4.8009,-4.754,-4.7052,-4.6849,-4.6656,-4.6276,-4.5633,-4.5493,-4.4931,-4.4481,-6.0077,-5.9739,-5.9211,-5.8902,-5.8661,-5.8201,-5.7487,-5.6663,-5.6043,-5.508,-5.386,-5.269,-5.191,-5.1443,-5.0886,-5.0347,-4.982,-4.982,-4.9785,-4.982,-5.0082,-5.0258,-5.0346,-5.0535,-5.0774,-5.1046,-5.0989,-5.0645,-5.0138,-4.9896,-4.9419,-4.858,-4.8292,-4.8131,-4.7869,-4.7604,-4.747,-4.7302,-4.7167,-4.703,-4.6892,-4.6961,-4.703,-4.703,-4.6705,-4.6543,-4.6543,-4.615,-4.5921,-4.5921,-4.5921,-4.5953,-4.5953,-4.6925,-4.7484,-4.7521,-4.8409,-4.9192,-4.958,-4.9969,-5.0325,-5.0649,-5.0681,-5.0552,-5.0228,-5.0487,-5.0681,-5.0714,-5.1005,-5.1361,-5.1718,-5.1706,-5.1875,-5.2284,-5.2109,-5.1995,-5.2086,-5.2099,-5.2175,-5.2554,-5.287,-5.3186,-5.3597,-5.3913,-5.4103,-5.4103,-5.4103,-5.3726,-5.2637,-5.2063,-5.1604,-5.0822,-5.0154,-4.9766,-4.9698,-4.9698,-4.9698,-4.9698,-4.9698,-4.9698,-4.9698,-4.96,-4.9357,-4.9126,-4.8845,-4.8465,-4.8052,-4.7856,-4.756,-4.7433,-4.7193,-4.6785,-4.6392,-4.5605,-4.4846,-6.0603,-6.022,-5.9462,-5.9004,-5.8656,-5.848,-5.8024,-5.7426,-5.6859,-5.5962,-5.4752,-5.2918,-5.2099,-5.2001,-5.1264,-5.0978,-5.1119,-5.0978,-5.0873,-5.0819,-5.0904,-5.101,-5.1099,-5.0928,-5.1084,-5.1395,-5.1055,-5.0651,-5.0159,-4.9742,-4.9083,-4.8358,-4.8001,-4.7803,-4.7638,-4.7537,-4.7468,-4.743,-4.7257,-4.7054,-4.6892,-4.6892,-4.6892,-4.6892,-4.6892,-4.6892,-4.6892,-4.6892,-4.6892,-4.6892,-4.6892,-4.6994,-4.7156,-4.7799,-4.8289,-4.8488,-4.9158,-4.9742,-5.0293,-5.0843,-5.1167,-5.1124,-5.1124,-5.1189,-5.1242,-5.1274,-5.135,-5.1491,-5.2009,-5.2353,-5.2417,-5.2649,-5.2893,-5.2812,-5.2681,-5.2613,-5.246,-5.2491,-5.2681,-5.3218,-5.3313,-5.3566,-5.3945,-5.4103,-5.4017,-5.3813,-5.3813,-5.3321,-5.2337,-5.194,-5.1386,-5.1066,-5.0271,-4.9795,-4.9698,-4.9698,-4.9698,-4.9698,-4.9698,-4.9698,-4.9698,-4.9502,-4.9404,-4.9248,-4.9079,-4.8724,-4.8553,-4.8352,-4.8223,-4.7965,-4.7769,-4.7572,-4.6926,-4.6195,-4.5268,-6.0845,-6.0003,-5.985,-5.9367,-5.8693,-5.848,-5.8319,-5.8083,-5.6708,-5.6104,-5.5752,-5.3953,-5.2874,-5.2394,-5.1405,-5.1259,-5.1786,-5.1189,-5.0854,-5.0815,-5.152,-5.178,-5.1738,-5.201,-5.225,-5.2062,-5.1055,-5.0317,-4.9779,-4.8983,-4.8229,-4.7671,-4.7537,-4.7603,-4.7503,-4.7335,-4.7561,-4.8079,-4.7934,-4.7572,-4.6925,-4.6892,-4.6892,-4.6892,-4.6892,-4.6892,-4.6957,-4.6892,-4.6892,-4.6892,-4.6925,-4.7225,-4.7851,-4.8556,-4.9176,-4.9823,-5.0564,-5.1038,-5.107,-5.1167,-5.1156,-5.0972,-5.096,-5.1173,-5.1531,-5.1627,-5.1752,-5.2114,-5.263,-5.2939,-5.2892,-5.2829,-5.294,-5.3318,-5.3331,-5.347,-5.384,-5.3913,-5.3945,-5.3976,-5.4071,-5.404,-5.4166,-5.4229,-5.3939,-5.3502,-5.3414,-5.3245,-5.2855,-5.1686,-5.122,-5.132,-5.0564,-4.9824,-4.9698,-4.9698,-4.9698,-4.9698,-4.9698,-4.9698,-4.9669,-4.9669,-4.96,-4.9305,-4.9009,-4.881,-4.861,-4.8308,-4.8134,-4.8078,-4.7769,-4.7178,-4.6588,-4.6307,-4.5802,-6.1837,-6.1298,-6.0333,-5.9441,-5.873,-5.848,-5.8305,-5.8051,-5.7255,-5.6378,-5.5554,-5.4649,-5.3654,-5.2555,-5.1899,-5.1751,-5.1997,-5.1681,-5.1766,-5.2096,-5.2126,-5.2091,-5.2091,-5.1287,-5.1185,-5.1401,-5.0439,-4.9782,-4.9359,-4.8862,-4.8266,-4.7701,-4.8289,-4.8482,-4.7988,-4.8311,-4.8567,-4.8627,-4.8615,-4.844,-4.8175,-4.8117,-4.8155,-4.8155,-4.8155,-4.8155,-4.8155,-4.8155,-4.8155,-4.8155,-4.8155,-4.8232,-4.8548,-4.9278,-4.9757,-5.0091,-5.0833,-5.1199,-5.1199,-5.148,-5.1662,-5.1662,-5.1816,-5.2091,-5.2538,-5.2877,-5.3182,-5.3452,-5.3439,-5.3439,-5.339,-5.3547,-5.3764,-5.3999,-5.4179,-5.4473,-5.464,-5.5083,-5.5209,-5.483,-5.5083,-5.5146,-5.4893,-5.5083,-5.5027,-5.4392,-5.3881,-5.3498,-5.3401,-5.1952,-5.0988,-5.0984,-5.03,-4.9824,-4.9698,-4.9698,-4.9698,-4.9698,-4.9698,-4.9698,-4.9698,-4.96,-4.9404,-4.9334,-4.9009,-4.8681,-4.8481,-4.8308,-4.8134,-4.805,-4.8021,-4.7572,-4.6954,-4.6841,-4.642,-6.2687,-6.219,-6.0853,-5.9838,-5.9196,-5.8799,-5.8419,-5.8019,-5.7447,-5.6505,-5.5472,-5.5308,-5.4398,-5.3139,-5.2529,-5.2418,-5.2593,-5.2418,-5.2516,-5.2869,-5.2458,-5.2321,-5.2268,-5.1235,-5.0888,-5.1228,-5.0358,-4.9493,-4.9026,-4.9055,-4.862,-4.8152,-4.8968,-4.9127,-4.8562,-4.9017,-4.9238,-4.9303,-4.9329,-4.9378,-4.9563,-4.9604,-4.9451,-4.9094,-4.903,-4.903,-4.903,-4.903,-4.903,-4.903,-4.903,-4.9076,-4.9235,-4.9726,-5.0112,-5.0273,-5.094,-5.1339,-5.1339,-5.1797,-5.2105,-5.2216,-5.2381,-5.2733,-5.3182,-5.36,-5.3871,-5.4259,-5.4013,-5.3815,-5.4077,-5.4453,-5.4698,-5.4677,-5.5075,-5.5399,-5.5462,-5.5904,-5.5967,-5.5557,-5.5778,-5.6031,-5.5531,-5.56,-5.5426,-5.475,-5.4021,-5.3586,-5.3375,-5.2129,-5.1043,-5.1104,-5.0511,-4.993,-4.9756,-4.9698,-4.9698,-4.9698,-4.9698,-4.9698,-4.9698,-4.9502,-4.9305,-4.9305,-4.8909,-4.861,-4.8481,-4.8308,-4.8134,-4.8134,-4.8078,-4.7965,-4.7544,-4.7459,-4.7291,-6.3252,-6.2339,-6.1484,-6.0818,-6.0351,-5.9438,-5.8775,-5.813,-5.71,-5.6366,-5.6019,-5.5773,-5.512,-5.4161,-5.3506,-5.3541,-5.3998,-5.3436,-5.2904,-5.2477,-5.2502,-5.2475,-5.2459,-5.2132,-5.2236,-5.2471,-5.0892,-4.962,-4.8685,-4.9206,-4.9322,-4.89,-4.9134,-4.9062,-4.8997,-4.9094,-4.9386,-4.9969,-5.0066,-5.0357,-5.094,-5.1038,-5.0357,-4.9289,-4.9062,-4.9087,-4.9094,-4.9062,-4.9094,-4.9062,-4.9054,-4.9296,-4.9733,-4.9831,-5.0048,-5.057,-5.1165,-5.1549,-5.1613,-5.2189,-5.2524,-5.2394,-5.2409,-5.2581,-5.3248,-5.3291,-5.3576,-5.4062,-5.4147,-5.4264,-5.4729,-5.5038,-5.5248,-5.5051,-5.5683,-5.6094,-5.6125,-5.6283,-5.622,-5.6157,-5.622,-5.6252,-5.6157,-5.5496,-5.5132,-5.4357,-5.3471,-5.2931,-5.3006,-5.2209,-5.1831,-5.1977,-5.1381,-5.0394,-4.9872,-4.9698,-4.9698,-4.9698,-4.9698,-4.9698,-4.9669,-4.9669,-4.9502,-4.9305,-4.9009,-4.881,-4.8509,-4.8308,-4.8134,-4.8134,-4.8134,-4.7993,-4.7881,-4.8021,-4.7881,-6.3201,-6.2331,-6.1772,-6.1144,-6.0415,-5.9176,-5.8399,-5.7926,-5.6778,-5.6126,-5.5879,-5.5648,-5.5391,-5.5051,-5.4805,-5.4524,-5.4221,-5.3707,-5.3515,-5.3625,-5.319,-5.2838,-5.2775,-5.1999,-5.1693,-5.1724,-5.0753,-4.9849,-4.9337,-4.9785,-4.97,-4.9256,-4.9969,-5.0196,-4.9872,-5.0163,-5.0552,-5.0778,-5.0778,-5.094,-5.1135,-5.1199,-5.0908,-5.0455,-5.0273,-5.0199,-5.0199,-5.0199,-5.0199,-5.0048,-5.0123,-5.0231,-5.0295,-5.0294,-5.0333,-5.0621,-5.1229,-5.1645,-5.1694,-5.2539,-5.3177,-5.3209,-5.3343,-5.366,-5.403,-5.4094,-5.4073,-5.4497,-5.456,-5.4772,-5.508,-5.528,-5.5233,-5.5272,-5.6157,-5.6852,-5.6947,-5.72,-5.7358,-5.6979,-5.6852,-5.6852,-5.6857,-5.6927,-5.6837,-5.6061,-5.4905,-5.4338,-5.4201,-5.2994,-5.1933,-5.2194,-5.1527,-5.0598,-5.0394,-4.9901,-4.9698,-4.9698,-4.9698,-4.9698,-4.9669,-4.9669,-4.96,-4.9433,-4.9136,-4.8924,-4.8651,-4.8449,-4.8246,-4.8134,-4.8134,-4.8134,-4.8134,-4.8218,-4.819,-6.3222,-6.2695,-6.204,-6.136,-6.0494,-5.9139,-5.8196,-5.762,-5.673,-5.6091,-5.5683,-5.5566,-5.5507,-5.5448,-5.5329,-5.5049,-5.4583,-5.4096,-5.4005,-5.4038,-5.3178,-5.2808,-5.2736,-5.1822,-5.1413,-5.1545,-5.1111,-5.0505,-4.9987,-5.0497,-5.0343,-4.9839,-5.0746,-5.094,-5.0617,-5.094,-5.1199,-5.1199,-5.1199,-5.1167,-5.1199,-5.1124,-5.1124,-5.1048,-5.0896,-5.082,-5.0896,-5.0928,-5.082,-5.0666,-5.0743,-5.0807,-5.0813,-5.1008,-5.1089,-5.112,-5.1726,-5.2076,-5.2203,-5.3025,-5.3629,-5.3828,-5.3957,-5.4337,-5.4815,-5.4762,-5.4857,-5.5134,-5.5229,-5.5366,-5.5661,-5.5771,-5.5809,-5.5936,-5.6852,-5.7548,-5.7579,-5.799,-5.799,-5.7674,-5.7579,-5.7579,-5.7519,-5.7589,-5.7277,-5.6902,-5.5608,-5.484,-5.485,-5.3655,-5.2339,-5.2688,-5.2049,-5.1527,-5.1265,-5.0917,-5.0046,-4.9901,-4.9785,-4.9756,-4.9698,-4.9698,-4.96,-4.9433,-4.9222,-4.9038,-4.8793,-4.8517,-4.8331,-4.8218,-4.8134,-4.8134,-4.8218,-4.8359,-4.8443,-6.3474,-6.3113,-6.2214,-6.1422,-6.0659,-5.9457,-5.8315,-5.7326,-5.6952,-5.6353,-5.5683,-5.5543,-5.5507,-5.5389,-5.4992,-5.4861,-5.4913,-5.4572,-5.4004,-5.3281,-5.2472,-5.2232,-5.2378,-5.1711,-5.1711,-5.217,-5.2092,-5.1441,-5.0489,-5.1043,-5.1187,-5.1102,-5.107,-5.1135,-5.1135,-5.1135,-5.1199,-5.1199,-5.1199,-5.1199,-5.1199,-5.0972,-5.0896,-5.0896,-5.0743,-5.0698,-5.0884,-5.0928,-5.0775,-5.0653,-5.0653,-5.0863,-5.1264,-5.1706,-5.1922,-5.1954,-5.2618,-5.2997,-5.3092,-5.3597,-5.4062,-5.4094,-5.4103,-5.4451,-5.498,-5.5083,-5.5367,-5.5898,-5.6056,-5.6214,-5.6341,-5.6663,-5.701,-5.7231,-5.7706,-5.8116,-5.818,-5.8243,-5.8243,-5.818,-5.8148,-5.8243,-5.7965,-5.7275,-5.6638,-5.6189,-5.517,-5.4186,-5.4274,-5.3714,-5.3413,-5.3326,-5.2746,-5.2136,-5.2107,-5.1962,-5.0946,-5.0133,-4.9959,-4.9843,-4.9727,-4.9698,-4.9698,-4.956,-4.9467,-4.9307,-4.9239,-4.9033,-4.8864,-4.8724,-4.8471,-4.8415,-4.864,-4.8864,-4.8977,-6.3086,-6.2251,-6.1618,-6.0777,-5.9835,-5.8923,-5.8307,-5.7883,-5.7057,-5.655,-5.621,-5.5718,-5.5507,-5.5389,-5.4992,-5.4586,-5.4299,-5.3847,-5.355,-5.3382,-5.2635,-5.232,-5.2274,-5.1999,-5.1855,-5.198,-5.1794,-5.1549,-5.1238,-5.1252,-5.1275,-5.1167,-5.1199,-5.1199,-5.1199,-5.1199,-5.1199,-5.1199,-5.1199,-5.1124,-5.0972,-5.0896,-5.082,-5.0666,-5.0666,-5.0781,-5.1182,-5.0845,-5.0767,-5.0866,-5.0978,-5.1296,-5.1688,-5.1903,-5.2029,-5.2112,-5.2712,-5.3123,-5.3186,-5.3724,-5.4166,-5.4198,-5.4545,-5.4861,-5.5146,-5.562,-5.5936,-5.6189,-5.6189,-5.6347,-5.6821,-5.7073,-5.7231,-5.7231,-5.7832,-5.8274,-5.8274,-5.8274,-5.8274,-5.8274,-5.7965,-5.7778,-5.7684,-5.6988,-5.6506,-5.6213,-5.532,-5.4611,-5.4406,-5.3815,-5.35,-5.3471,-5.2978,-5.2659,-5.2572,-5.231,-5.1585,-5.0772,-5.0423,-4.9959,-4.9785,-4.9698,-4.96,-4.9779,-4.9652,-4.9717,-4.9643,-4.9623,-4.9483,-4.9398,-4.9342,-4.9342,-4.9398,-4.9483,-4.9623,-6.2456,-6.1617,-6.05,-5.976,-5.9149,-5.8566,-5.8249,-5.8154,-5.7701,-5.7333,-5.6921,-5.6318,-5.5872,-5.5506,-5.4874,-5.4316,-5.3749,-5.3145,-5.3008,-5.3315,-5.2797,-5.2373,-5.2302,-5.2086,-5.1868,-5.1786,-5.1834,-5.1685,-5.1382,-5.1761,-5.1718,-5.1297,-5.1685,-5.1685,-5.1297,-5.1426,-5.1459,-5.1232,-5.1199,-5.1092,-5.0908,-5.0788,-5.0794,-5.0863,-5.0817,-5.1089,-5.1501,-5.1343,-5.1232,-5.1403,-5.1738,-5.2118,-5.2396,-5.266,-5.2786,-5.2934,-5.3439,-5.3882,-5.3913,-5.4577,-5.4861,-5.4956,-5.5272,-5.5651,-5.5904,-5.6378,-5.6599,-5.6915,-5.701,-5.7137,-5.7516,-5.7611,-5.7611,-5.7611,-5.799,-5.8243,-5.8274,-5.8274,-5.8274,-5.8274,-5.7965,-5.7871,-5.7684,-5.6988,-5.6603,-5.6213,-5.532,-5.4611,-5.4304,-5.3919,-5.3605,-5.3471,-5.3239,-5.3036,-5.2949,-5.2601,-5.2136,-5.1527,-5.0975,-5.0307,-4.9843,-4.9756,-4.9727,-5.0155,-5.0321,-5.0379,-5.0375,-5.0297,-5.0213,-5.0213,-5.0073,-4.9848,-4.9764,-5.0129,-5.0269,-6.1666,-6.1129,-5.9175,-5.8556,-5.8729,-5.8485,-5.833,-5.8245,-5.8624,-5.8457,-5.7806,-5.7143,-5.6542,-5.58,-5.4974,-5.4296,-5.3619,-5.3135,-5.2853,-5.2927,-5.2748,-5.2494,-5.2046,-5.1868,-5.1647,-5.1597,-5.2042,-5.1967,-5.1534,-5.2527,-5.2657,-5.1685,-5.256,-5.2657,-5.1815,-5.1977,-5.1944,-5.135,-5.1361,-5.1286,-5.1016,-5.0871,-5.0912,-5.1279,-5.1311,-5.1597,-5.2036,-5.2277,-5.2277,-5.2175,-5.2733,-5.3081,-5.325,-5.3787,-5.4049,-5.4103,-5.4767,-5.5051,-5.5304,-5.5588,-5.5999,-5.5967,-5.6125,-5.6505,-5.6947,-5.7137,-5.7484,-5.7958,-5.8053,-5.8148,-5.818,-5.818,-5.818,-5.8243,-5.8243,-5.8274,-5.8274,-5.8274,-5.8274,-5.8274,-5.8274,-5.8274,-5.8058,-5.6988,-5.6311,-5.5918,-5.4917,-5.42,-5.3919,-5.371,-5.35,-5.3442,-5.3384,-5.3326,-5.321,-5.3123,-5.2688,-5.2107,-5.1585,-5.1033,-5.0365,-5.0121,-5.0067,-5.0554,-5.0844,-5.0925,-5.0995,-5.0995,-5.0803,-5.0635,-5.041,-5.0129,-5.0241,-5.0663,-5.0668,-6.0713,-5.9103,-5.8933,-5.8446,-5.789,-5.8567,-5.8915,-5.8853,-5.8976,-5.8913,-5.8535,-5.7751,-5.7057,-5.6586,-5.5792,-5.4938,-5.4222,-5.3923,-5.3559,-5.3228,-5.3585,-5.2828,-5.1917,-5.1606,-5.1531,-5.1512,-5.2085,-5.2183,-5.2009,-5.2948,-5.3142,-5.2786,-5.3142,-5.3129,-5.2695,-5.2838,-5.2469,-5.1752,-5.2184,-5.2055,-5.1371,-5.1582,-5.1787,-5.1783,-5.1815,-5.2194,-5.2776,-5.3313,-5.3366,-5.2902,-5.3439,-5.3818,-5.3913,-5.4435,-5.4781,-5.4988,-5.5493,-5.5904,-5.5967,-5.6125,-5.622,-5.6252,-5.6694,-5.701,-5.72,-5.7706,-5.8022,-5.8274,-5.8274,-5.8274,-5.8274,-5.8274,-5.8274,-5.8274,-5.8274,-5.8274,-5.8274,-5.8274,-5.8274,-5.8274,-5.7965,-5.7871,-5.759,-5.67,-5.572,-5.5421,-5.4611,-5.3815,-5.371,-5.3605,-5.35,-5.35,-5.3471,-5.3471,-5.3471,-5.3471,-5.321,-5.263,-5.2223,-5.1962,-5.1338,-5.0948,-5.0915,-5.11,-5.1193,-5.1214,-5.1445,-5.1506,-5.1309,-5.1056,-5.1112,-5.1,-5.092,-5.1145,-5.098,-5.9568,-5.8538,-5.841,-5.8289,-5.8166,-5.8905,-5.9346,-5.953,-5.9538,-5.9411,-5.9144,-5.8307,-5.7527,-5.6917,-5.6089,-5.5291,-5.4434,-5.4402,-5.4039,-5.3733,-5.377,-5.3357,-5.2541,-5.2335,-5.2183,-5.2171,-5.2786,-5.2916,-5.2916,-5.3693,-5.3855,-5.3499,-5.392,-5.3728,-5.2956,-5.339,-5.31,-5.2284,-5.254,-5.2429,-5.1853,-5.2108,-5.2321,-5.2376,-5.2471,-5.2807,-5.3471,-5.3882,-5.3913,-5.3692,-5.3913,-5.4229,-5.4545,-5.4844,-5.5254,-5.5557,-5.622,-5.6631,-5.6694,-5.6852,-5.7073,-5.7105,-5.7484,-5.7611,-5.7737,-5.8053,-5.8274,-5.8274,-5.8274,-5.8274,-5.8274,-5.8274,-5.8274,-5.8274,-5.8274,-5.8274,-5.8274,-5.8274,-5.8274,-5.8182,-5.8089,-5.7778,-5.7778,-5.6506,-5.5819,-5.532,-5.4509,-5.3919,-5.35,-5.35,-5.35,-5.35,-5.35,-5.35,-5.35,-5.35,-5.35,-5.3007,-5.2729,-5.2497,-5.1989,-5.1494,-5.1337,-5.1364,-5.1406,-5.1525,-5.1699,-5.1787,-5.1674,-5.1562,-5.1759,-5.1537,-5.1369,-5.1067,-5.0958,-5.8538,-5.8824,-5.7875,-5.8166,-5.9056,-5.917,-5.9425,-5.9826,-5.9685,-5.9657,-5.9369,-5.8737,-5.7842,-5.7151,-5.6359,-5.5397,-5.4659,-5.4665,-5.4514,-5.4328,-5.4162,-5.3799,-5.3766,-5.3221,-5.3078,-5.3207,-5.4017,-5.392,-5.3823,-5.4729,-5.4616,-5.4131,-5.4778,-5.4422,-5.3648,-5.3809,-5.352,-5.2813,-5.2893,-5.2794,-5.244,-5.2581,-5.2891,-5.3112,-5.3197,-5.3439,-5.3882,-5.4103,-5.4071,-5.4103,-5.4103,-5.4419,-5.4988,-5.5121,-5.5626,-5.6283,-5.6915,-5.7326,-5.739,-5.78,-5.8148,-5.8116,-5.8148,-5.8274,-5.8211,-5.8243,-5.8274,-5.8274,-5.8274,-5.8274,-5.8274,-5.8274,-5.8274,-5.8274,-5.8274,-5.8274,-5.8274,-5.8274,-5.8274,-5.8274,-5.8274,-5.8274,-5.7871,-5.7084,-5.6017,-5.6017,-5.5018,-5.42,-5.3815,-5.3605,-5.3605,-5.35,-5.35,-5.35,-5.35,-5.35,-5.35,-5.3355,-5.3116,-5.2809,-5.211,-5.1699,-5.1526,-5.1541,-5.1581,-5.1642,-5.1783,-5.1787,-5.1787,-5.1787,-5.1787,-5.1397,-5.0928,-5.0875,-5.0656,-5.8446,-5.7769,-5.852,-5.8976,-5.9135,-5.9108,-5.9089,-5.9194,-5.8597,-5.8612,-5.8741,-5.825,-5.7912,-5.7793,-5.6955,-5.6127,-5.5292,-5.539,-5.5627,-5.539,-5.515,-5.5037,-5.4745,-5.3952,-5.3402,-5.3596,-5.4082,-5.4308,-5.4358,-5.4761,-5.5067,-5.4791,-5.4709,-5.4621,-5.4282,-5.4301,-5.4051,-5.3271,-5.3597,-5.3533,-5.3123,-5.3429,-5.3629,-5.3828,-5.3882,-5.3913,-5.404,-5.4103,-5.4103,-5.4103,-5.4134,-5.4419,-5.5027,-5.561,-5.6207,-5.6888,-5.7579,-5.8022,-5.8053,-5.8148,-5.8274,-5.8274,-5.8274,-5.8274,-5.8274,-5.8274,-5.8274,-5.8274,-5.8274,-5.8274,-5.8274,-5.8274,-5.8274,-5.8274,-5.8274,-5.8274,-5.8274,-5.8274,-5.8274,-5.8274,-5.8274,-5.8274,-5.8274,-5.7401,-5.67,-5.6603,-5.569,-5.4611,-5.4097,-5.3815,-5.3605,-5.35,-5.35,-5.35,-5.35,-5.35,-5.35,-5.3395,-5.3213,-5.3001,-5.2301,-5.1946,-5.1768,-5.1694,-5.1755,-5.1759,-5.1787,-5.1787,-5.1787,-5.1787,-5.1759,-5.1344,-5.0958,-5.0793,-5.0354,-5.7982,-5.7742,-5.8376,-5.8607,-5.8545,-5.8519,-5.8667,-5.8745,-5.7856,-5.8044,-5.865,-5.7775,-5.7352,-5.7741,-5.6954,-5.6216,-5.5817,-5.5889,-5.5846,-5.5572,-5.5377,-5.5377,-5.5345,-5.4762,-5.4308,-5.4373,-5.4665,-5.4778,-5.4858,-5.4888,-5.4998,-5.4948,-5.4781,-5.4665,-5.4412,-5.4528,-5.42,-5.3787,-5.3999,-5.403,-5.3765,-5.3891,-5.4103,-5.4103,-5.4103,-5.4103,-5.4103,-5.4103,-5.4103,-5.4103,-5.4134,-5.4419,-5.509,-5.5771,-5.6492,-5.7204,-5.7864,-5.8243,-5.8274,-5.8274,-5.8274,-5.8274,-5.8274,-5.8274,-5.8274,-5.8274,-5.8274,-5.8274,-5.8274,-5.8274,-5.8274,-5.8274,-5.8274,-5.8274,-5.8274,-5.8274,-5.8274,-5.8274,-5.8274,-5.8274,-5.8274,-5.8274,-5.8058,-5.7306,-5.67,-5.6213,-5.5018,-5.3993,-5.389,-5.3605,-5.3605,-5.35,-5.35,-5.35,-5.35,-5.35,-5.35,-5.329,-5.3107,-5.2894,-5.2615,-5.2187,-5.1948,-5.1896,-5.1759,-5.1759,-5.1787,-5.1787,-5.1787,-5.1787,-5.1621,-5.14,-5.1098,-5.0795,-5.0161,-5.7494,-5.7857,-5.7963,-5.7912,-5.779,-5.7684,-5.7965,-5.8359,-5.7393,-5.7513,-5.8527,-5.6972,-5.6808,-5.708,-5.6525,-5.6086,-5.5894,-5.5814,-5.5604,-5.5409,-5.5409,-5.5409,-5.5345,-5.528,-5.5134,-5.5328,-5.5263,-5.5213,-5.5049,-5.5031,-5.4864,-5.4697,-5.4729,-5.4528,-5.4412,-5.4327,-5.421,-5.404,-5.4071,-5.4071,-5.404,-5.4071,-5.4103,-5.4103,-5.4103,-5.4103,-5.4103,-5.4103,-5.4166,-5.4229,-5.4229,-5.4609,-5.5248,-5.5857,-5.6618,-5.7326,-5.799,-5.8211,-5.8274,-5.8274,-5.8274,-5.8274,-5.8274,-5.8274,-5.8274,-5.8274,-5.8274,-5.8274,-5.8274,-5.8274,-5.8274,-5.8274,-5.8274,-5.8274,-5.8274,-5.8274,-5.8274,-5.8274,-5.8274,-5.8274,-5.8274,-5.8274,-5.7778,-5.7084,-5.6409,-5.572,-5.4509,-5.3605,-5.3605,-5.35,-5.35,-5.35,-5.35,-5.35,-5.35,-5.35,-5.35,-5.3319,-5.3107,-5.2894,-5.268,-5.225,-5.1896,-5.1896,-5.1787,-5.1787,-5.1787,-5.1787,-5.1787,-5.1787,-5.1649,-5.1456,-5.1044,-5.0768,-5.016,-5.7175,-5.7258,-5.763,-5.7825,-5.7684,-5.7087,-5.6912,-5.6921,-5.6391,-5.6353,-5.6883,-5.6352,-5.6329,-5.6591,-5.6165,-5.5766,-5.5572,-5.5491,-5.5491,-5.5409,-5.5409,-5.5409,-5.5328,-5.5328,-5.5246,-5.5196,-5.5113,-5.5031,-5.4864,-5.4613,-5.4581,-5.4497,-5.4359,-5.4157,-5.4189,-5.4189,-5.4189,-5.4103,-5.4103,-5.4103,-5.4103,-5.4103,-5.4103,-5.4103,-5.4103,-5.4134,-5.4166,-5.4166,-5.4356,-5.4861,-5.494,-5.5352,-5.5841,-5.6194,-5.6857,-5.7706,-5.8116,-5.8274,-5.8274,-5.8274,-5.8274,-5.8274,-5.8274,-5.8274,-5.8274,-5.8274,-5.8274,-5.8274,-5.8274,-5.8274,-5.8274,-5.8338,-5.8274,-5.8274,-5.8338,-5.8306,-5.8274,-5.8274,-5.8274,-5.8274,-5.8274,-5.8182,-5.7684,-5.7084,-5.6409,-5.572,-5.4713,-5.4097,-5.3993,-5.371,-5.35,-5.35,-5.35,-5.35,-5.35,-5.353,-5.353,-5.3319,-5.3107,-5.2787,-5.2465,-5.2113,-5.1896,-5.1787,-5.1787,-5.1787,-5.1787,-5.1787,-5.1787,-5.1787,-5.1649,-5.154,-5.1155,-5.0768,-5.0462,-5.7011,-5.6905,-5.7078,-5.6947,-5.6596,-5.621,-5.622,-5.6379,-5.5952,-5.6122,-5.6439,-5.6236,-5.6103,-5.6282,-5.5927,-5.5523,-5.5409,-5.5409,-5.5409,-5.5409,-5.5409,-5.5328,-5.5278,-5.5246,-5.4998,-5.4832,-5.4749,-5.4781,-5.4813,-5.4697,-5.4497,-5.4412,-5.4157,-5.4103,-5.4103,-5.4103,-5.4103,-5.4103,-5.4103,-5.4103,-5.4134,-5.4134,-5.4103,-5.4134,-5.4166,-5.4292,-5.4609,-5.464,-5.4988,-5.5493,-5.5645,-5.6024,-5.6441,-5.6762,-5.7046,-5.7706,-5.8085,-5.8274,-5.8274,-5.8274,-5.8274,-5.8274,-5.8274,-5.8274,-5.8274,-5.8274,-5.8274,-5.8274,-5.8274,-5.8274,-5.8274,-5.859,-5.8622,-5.8432,-5.8559,-5.8622,-5.8432,-5.8338,-5.8369,-5.8401,-5.8369,-5.8277,-5.7871,-5.718,-5.6409,-5.559,-5.4815,-5.4406,-5.42,-5.389,-5.35,-5.35,-5.35,-5.35,-5.35,-5.35,-5.3424,-5.3213,-5.3001,-5.2759,-5.2437,-5.2004,-5.1896,-5.1787,-5.1787,-5.1787,-5.1787,-5.1787,-5.1787,-5.1787,-5.1677,-5.154,-5.1128,-5.0795,-5.0572,-5.6682,-5.6445,-5.6385,-5.6139,-5.5729,-5.5694,-5.6029,-5.6404,-5.624,-5.6438,-5.6913,-5.6278,-5.5963,-5.5968,-5.5733,-5.5409,-5.5409,-5.5409,-5.5409,-5.5409,-5.5409,-5.5278,-5.5113,-5.5031,-5.4948,-5.4581,-5.4581,-5.4528,-5.4528,-5.4528,-5.4528,-5.4327,-5.4189,-5.4103,-5.4103,-5.4103,-5.4103,-5.4103,-5.4103,-5.4134,-5.4261,-5.4292,-5.4387,-5.4514,-5.4514,-5.483,-5.5272,-5.5335,-5.5626,-5.6068,-5.632,-5.6573,-5.7231,-5.7304,-5.7336,-5.7488,-5.799,-5.8211,-5.8274,-5.8274,-5.8274,-5.8274,-5.8274,-5.8274,-5.8274,-5.8274,-5.8274,-5.8274,-5.8274,-5.8401,-5.859,-5.897,-5.9064,-5.9033,-5.9191,-5.9349,-5.9033,-5.8906,-5.897,-5.8875,-5.8654,-5.8216,-5.7556,-5.6475,-5.5491,-5.5018,-5.4126,-5.3993,-5.3815,-5.371,-5.35,-5.35,-5.35,-5.35,-5.35,-5.35,-5.3424,-5.3213,-5.2894,-5.2652,-5.2329,-5.2004,-5.1896,-5.1787,-5.1787,-5.1787,-5.1787,-5.1787,-5.1787,-5.1787,-5.1787,-5.1458,-5.1128,-5.0795,-5.046,-5.5963,-5.5824,-5.5707,-5.5904,-5.6274,-5.6309,-5.6641,-5.715,-5.7219,-5.6951,-5.6622,-5.6521,-5.6159,-5.562,-5.5491,-5.5409,-5.5409,-5.5409,-5.5409,-5.5409,-5.5409,-5.5278,-5.5113,-5.5113,-5.4749,-5.4412,-5.4613,-5.4528,-5.4359,-5.4274,-5.4189,-5.4189,-5.4189,-5.4103,-5.4103,-5.4229,-5.4103,-5.4134,-5.4166,-5.4451,-5.4925,-5.5019,-5.5335,-5.5651,-5.5809,-5.5873,-5.5999,-5.6005,-5.632,-5.6615,-5.6709,-5.7055,-5.7651,-5.784,-5.7933,-5.8087,-5.8211,-5.8274,-5.8274,-5.8274,-5.8274,-5.8274,-5.8274,-5.8274,-5.8274,-5.8274,-5.8274,-5.8274,-5.8306,-5.8559,-5.897,-5.9317,-5.957,-5.9823,-6.0012,-6.0107,-5.9918,-5.9507,-5.957,-5.9507,-5.9381,-5.8117,-5.7131,-5.5771,-5.4582,-5.4126,-5.3635,-5.3722,-5.3704,-5.3849,-5.3907,-5.3994,-5.4052,-5.4023,-5.3936,-5.3878,-5.3521,-5.328,-5.2923,-5.2573,-5.2221,-5.1896,-5.1896,-5.1787,-5.1787,-5.1787,-5.1677,-5.1677,-5.1787,-5.1677,-5.1596,-5.1348,-5.1017,-5.0683,-5.0487,-5.6223,-5.608,-5.6019,-5.6353,-5.6892,-5.6927,-5.6976,-5.7201,-5.7697,-5.7467,-5.6867,-5.6921,-5.6414,-5.5572,-5.5409,-5.5409,-5.5409,-5.5409,-5.5409,-5.5328,-5.5246,-5.5113,-5.4948,-5.4749,-5.4497,-5.4391,-5.4359,-5.4274,-5.4189,-5.4306,-5.4242,-5.4274,-5.4189,-5.4103,-5.4292,-5.4514,-5.464,-5.483,-5.5083,-5.543,-5.5651,-5.5746,-5.5873,-5.6189,-5.622,-5.6352,-5.6514,-5.6486,-5.6741,-5.7089,-5.7184,-5.7309,-5.7559,-5.7684,-5.7684,-5.7778,-5.7871,-5.7965,-5.8274,-5.8274,-5.8274,-5.8274,-5.8274,-5.8274,-5.8274,-5.8274,-5.8274,-5.8274,-5.8654,-5.9001,-5.9475,-6.0044,-6.0234,-6.0455,-6.0739,-6.0613,-6.0518,-6.0329,-6.017,-6.0138,-5.9977,-5.886,-5.7863,-5.7334,-5.6504,-5.5738,-5.5201,-5.4943,-5.4847,-5.4778,-5.4778,-5.4749,-5.4749,-5.4749,-5.4633,-5.4517,-5.3934,-5.3575,-5.2902,-5.2551,-5.2141,-5.1896,-5.1815,-5.1815,-5.1787,-5.1815,-5.1706,-5.1677,-5.1677,-5.1596,-5.1514,-5.1155,-5.0795,-5.0599,-5.015,-5.6834,-5.6823,-5.671,-5.6934,-5.7503,-5.7503,-5.7409,-5.7282,-5.8043,-5.7741,-5.6968,-5.6663,-5.6179,-5.5572,-5.5409,-5.5409,-5.5409,-5.5409,-5.5328,-5.5278,-5.5196,-5.4948,-5.4697,-5.4497,-5.4422,-5.4324,-5.4537,-5.4577,-5.479,-5.4845,-5.4845,-5.4613,-5.4822,-5.4735,-5.4798,-5.5114,-5.5399,-5.543,-5.5809,-5.6157,-5.641,-5.6441,-5.6568,-5.6694,-5.6757,-5.6825,-5.6992,-5.7086,-5.7339,-5.7214,-5.7275,-5.7306,-5.7399,-5.7399,-5.7461,-5.7494,-5.7589,-5.7778,-5.7965,-5.8058,-5.8182,-5.8182,-5.8274,-5.8274,-5.8274,-5.8274,-5.8274,-5.8274,-5.8875,-5.9254,-5.976,-6.0676,-6.1055,-6.1182,-6.1274,-6.1053,-6.0895,-6.0895,-6.083,-6.0956,-6.076,-6.0178,-5.9463,-5.9325,-5.8665,-5.7613,-5.696,-5.6172,-5.5879,-5.5503,-5.5358,-5.5242,-5.5213,-5.5184,-5.5126,-5.4873,-5.4345,-5.3898,-5.3252,-5.2778,-5.2371,-5.2012,-5.1899,-5.1871,-5.1955,-5.1902,-5.1932,-5.1736,-5.1568,-5.1376,-5.1155,-5.0934,-5.0599,-5.0402,-4.9945,-5.7701,-5.8068,-5.7468,-5.7642,-5.8106,-5.8106,-5.7941,-5.7774,-5.8531,-5.7803,-5.6196,-5.5772,-5.5733,-5.5409,-5.5409,-5.5409,-5.5409,-5.5409,-5.5246,-5.5196,-5.5031,-5.4864,-5.4581,-5.4476,-5.4528,-5.4798,-5.4861,-5.5272,-5.5841,-5.5866,-5.5613,-5.5209,-5.5493,-5.5873,-5.5967,-5.5936,-5.6189,-5.6252,-5.6473,-5.6726,-5.701,-5.72,-5.7421,-5.7864,-5.8053,-5.8056,-5.7777,-5.7714,-5.7434,-5.718,-5.7115,-5.7177,-5.7143,-5.7177,-5.7304,-5.7366,-5.7494,-5.7684,-5.7871,-5.7871,-5.7778,-5.7965,-5.815,-5.8274,-5.8274,-5.8274,-5.8274,-5.8369,-5.9033,-5.9602,-6.017,-6.0897,-6.1593,-6.1747,-6.1743,-6.1581,-6.1519,-6.1514,-6.1577,-6.1702,-6.1346,-6.0833,-6.0188,-5.985,-5.9088,-5.7918,-5.7024,-5.6326,-5.61,-5.5852,-5.5707,-5.562,-5.5562,-5.5533,-5.5394,-5.5169,-5.484,-5.4309,-5.3717,-5.3241,-5.2797,-5.2489,-5.2349,-5.2377,-5.2517,-5.2268,-5.21,-5.1905,-5.1627,-5.11,-5.0822,-5.0654,-5.0286,-4.9798,-4.9409,-5.8064,-5.821,-5.8282,-5.8457,-5.8666,-5.8666,-5.8599,-5.8497,-5.846,-5.7606,-5.6172,-5.5968,-5.5701,-5.5491,-5.5409,-5.5328,-5.5246,-5.5164,-5.5113,-5.4948,-5.4781,-5.4581,-5.4412,-5.4274,-5.4347,-5.4609,-5.4925,-5.5209,-5.5462,-5.6378,-5.6663,-5.6505,-5.6378,-5.6157,-5.6252,-5.6694,-5.701,-5.7326,-5.7421,-5.7642,-5.7737,-5.7864,-5.799,-5.8211,-5.8274,-5.8058,-5.7746,-5.7684,-5.7401,-5.7115,-5.6923,-5.6985,-5.7047,-5.705,-5.7211,-5.7273,-5.737,-5.759,-5.7684,-5.7684,-5.7871,-5.8089,-5.8274,-5.8274,-5.8274,-5.8274,-5.8274,-5.8559,-5.9254,-6.0012,-6.0297,-6.1277,-6.2063,-6.2153,-6.2016,-6.1916,-6.1815,-6.1815,-6.1613,-6.1489,-6.1496,-6.1208,-6.0609,-5.9986,-5.9121,-5.8178,-5.7298,-5.652,-5.6403,-5.6345,-5.6287,-5.6258,-5.6229,-5.6206,-5.6095,-5.5756,-5.5361,-5.4768,-5.4176,-5.3726,-5.3304,-5.3276,-5.3192,-5.3164,-5.3079,-5.2799,-5.2519,-5.2128,-5.1655,-5.107,-5.0652,-5.0426,-4.9966,-4.9488,-4.9049,-5.8455,-5.849,-5.8564,-5.8737,-5.8978,-5.8703,-5.8428,-5.8187,-5.7978,-5.7426,-5.6492,-5.6179,-5.5781,-5.5523,-5.5701,-5.5407,-5.5357,-5.5306,-5.5108,-5.4761,-5.4497,-5.4412,-5.4242,-5.422,-5.4261,-5.4482,-5.5083,-5.5557,-5.6031,-5.701,-5.7358,-5.7326,-5.7105,-5.6947,-5.701,-5.7263,-5.78,-5.8148,-5.8274,-5.8274,-5.8243,-5.8243,-5.8243,-5.8274,-5.8274,-5.8058,-5.7778,-5.7684,-5.7495,-5.7211,-5.705,-5.6985,-5.7112,-5.7146,-5.7181,-5.7308,-5.7339,-5.7464,-5.759,-5.7778,-5.7965,-5.8089,-5.8274,-5.8274,-5.8182,-5.8274,-5.8274,-5.8277,-5.9318,-6.0329,-6.0327,-6.1271,-6.1927,-6.1916,-6.1714,-6.1613,-6.1512,-6.1512,-6.1308,-6.1175,-6.1113,-6.0949,-6.015,-5.9375,-5.8605,-5.793,-5.7459,-5.6955,-5.6955,-5.6955,-5.7013,-5.7013,-5.6901,-5.6933,-5.6822,-5.625,-5.5595,-5.5396,-5.4771,-5.4318,-5.4064,-5.3922,-5.3894,-5.3866,-5.3726,-5.3444,-5.3078,-5.2825,-5.2014,-5.1038,-5.0921,-5.0851,-5.0121,-4.9627,-4.8972,-5.9114,-5.8875,-5.8084,-5.8256,-5.8772,-5.805,-5.7295,-5.6885,-5.7189,-5.7229,-5.6823,-5.6072,-5.5588,-5.5636,-5.6089,-5.5795,-5.5306,-5.5577,-5.5409,-5.4592,-5.4412,-5.4242,-5.4189,-5.4166,-5.4387,-5.5146,-5.5683,-5.6283,-5.6979,-5.7674,-5.8053,-5.8116,-5.7927,-5.7927,-5.8148,-5.8211,-5.8243,-5.8274,-5.8274,-5.8274,-5.8274,-5.8274,-5.8274,-5.8274,-5.8274,-5.815,-5.7871,-5.7778,-5.759,-5.7401,-5.7401,-5.7304,-5.7332,-5.7368,-5.7465,-5.7402,-5.7434,-5.7495,-5.7527,-5.7809,-5.7997,-5.7965,-5.8152,-5.8278,-5.809,-5.8184,-5.8466,-5.8594,-5.9538,-6.0137,-6.0544,-6.1106,-6.1502,-6.1714,-6.141,-6.1308,-6.1308,-6.1206,-6.1,-6.0794,-6.0481,-6.0061,-5.9255,-5.8525,-5.7863,-5.7387,-5.7303,-5.7303,-5.7303,-5.7303,-5.7303,-5.722,-5.7078,-5.688,-5.6652,-5.6336,-5.5935,-5.5763,-5.545,-5.4852,-5.4456,-5.4344,-5.4372,-5.4456,-5.4372,-5.4089,-5.389,-5.3577,-5.2619,-5.1889,-5.1762,-5.1485,-5.0565,-4.975,-4.9025,-5.9081,-5.8944,-5.805,-5.7912,-5.8015,-5.7158,-5.6816,-5.7054,-5.7133,-5.7096,-5.6962,-5.6368,-5.6122,-5.6251,-5.6085,-5.5789,-5.5056,-5.4761,-5.4507,-5.4306,-5.4242,-5.4157,-5.4103,-5.4166,-5.4482,-5.5146,-5.5841,-5.6536,-5.7168,-5.7927,-5.8211,-5.8274,-5.8274,-5.8274,-5.8243,-5.8274,-5.8274,-5.8274,-5.8274,-5.8274,-5.8274,-5.8274,-5.8274,-5.8274,-5.8274,-5.8182,-5.7965,-5.7965,-5.7778,-5.759,-5.759,-5.7401,-5.7368,-5.7402,-5.7402,-5.734,-5.7433,-5.7714,-5.8119,-5.8527,-5.8465,-5.8216,-5.8122,-5.8436,-5.8372,-5.9033,-5.9159,-5.9316,-6.004,-6.0446,-6.0886,-6.1252,-6.1551,-6.141,-6.1237,-6.1134,-6.1,-6.1,-6.0794,-6.0451,-6.0136,-5.9713,-5.9069,-5.8386,-5.764,-5.7303,-5.7303,-5.7303,-5.7303,-5.7303,-5.7191,-5.7107,-5.688,-5.6652,-5.6423,-5.6077,-5.5874,-5.5644,-5.55,-5.5271,-5.5046,-5.4793,-5.4906,-5.5018,-5.4934,-5.485,-5.4422,-5.3879,-5.3392,-5.2877,-5.2489,-5.1683,-5.0568,-4.9806,-4.9087,-5.9012,-5.8841,-5.7981,-5.7604,-5.7432,-5.6577,-5.6542,-5.6938,-5.688,-5.69,-5.6708,-5.6645,-5.6284,-5.6053,-5.6015,-5.5537,-5.4761,-5.4815,-5.4422,-5.4166,-5.4103,-5.4103,-5.4103,-5.4198,-5.4514,-5.5146,-5.5873,-5.6536,-5.7231,-5.7927,-5.8211,-5.8274,-5.8274,-5.8274,-5.8274,-5.8274,-5.8274,-5.8274,-5.8274,-5.8274,-5.8274,-5.8274,-5.8274,-5.8274,-5.8274,-5.8182,-5.8089,-5.7965,-5.7871,-5.7684,-5.7559,-5.7465,-5.7402,-5.7339,-5.7525,-5.7552,-5.7959,-5.827,-5.8705,-5.8856,-5.8639,-5.8173,-5.8584,-5.874,-5.8802,-5.9308,-5.9465,-5.9746,-6.0469,-6.0689,-6.0808,-6.1169,-6.1348,-6.1103,-6.1,-6.0897,-6.069,-6.0586,-6.069,-6.0241,-6.0136,-5.9606,-5.8852,-5.8305,-5.764,-5.7416,-5.7303,-5.7332,-5.7332,-5.7191,-5.7107,-5.708,-5.668,-5.6423,-5.6077,-5.5845,-5.5729,-5.5496,-5.5496,-5.5496,-5.544,-5.5187,-5.5383,-5.5496,-5.5327,-5.5042,-5.4786,-5.4296,-5.3771,-5.3298,-5.2728,-5.1785,-5.0525,-4.9722,-4.9064,-5.9012,-5.8841,-5.7809,-5.7328,-5.726,-5.6438,-5.6119,-5.6251,-5.6611,-5.6513,-5.6315,-5.6727,-5.6366,-5.5564,-5.5697,-5.5432,-5.4911,-5.5239,-5.4971,-5.46,-5.4545,-5.4419,-5.4419,-5.4451,-5.4988,-5.5399,-5.5999,-5.6821,-5.7295,-5.7927,-5.8243,-5.8274,-5.8274,-5.8274,-5.8274,-5.8274,-5.8274,-5.8274,-5.8274,-5.8274,-5.8274,-5.8274,-5.8274,-5.8274,-5.8274,-5.8274,-5.8182,-5.8182,-5.8058,-5.7871,-5.7871,-5.7683,-5.7527,-5.7527,-5.7956,-5.8406,-5.8876,-5.903,-5.9222,-5.9178,-5.917,-5.9024,-5.9352,-5.9352,-5.9384,-5.9638,-5.9955,-5.998,-6.0484,-6.0446,-6.0532,-6.0803,-6.1072,-6.1,-6.0897,-6.069,-6.0346,-6.0346,-6.0481,-6.0377,-6.0377,-5.9819,-5.8743,-5.8085,-5.7669,-5.7503,-5.7419,-5.7335,-5.7306,-5.7107,-5.7051,-5.6996,-5.6709,-5.6105,-5.5874,-5.5729,-5.5613,-5.5496,-5.5496,-5.5496,-5.5496,-5.5496,-5.5496,-5.5524,-5.5552,-5.5233,-5.4686,-5.4505,-5.4405,-5.3806,-5.2769,-5.1733,-5.0558,-4.985,-4.9082,-5.9012,-5.8806,-5.7329,-5.6884,-5.7259,-5.6491,-5.6342,-5.6612,-5.6687,-5.7099,-5.7997,-5.6856,-5.6344,-5.6626,-5.6358,-5.5802,-5.5566,-5.5637,-5.5771,-5.5588,-5.5367,-5.5525,-5.5525,-5.5493,-5.5999,-5.6378,-5.6852,-5.72,-5.7832,-5.8274,-5.8274,-5.8274,-5.8274,-5.8274,-5.8274,-5.8274,-5.8274,-5.8274,-5.8274,-5.8338,-5.8338,-5.8369,-5.8369,-5.8432,-5.8464,-5.8371,-5.8247,-5.809,-5.7965,-5.7778,-5.7621,-5.7465,-5.7246,-5.7617,-5.8195,-5.8708,-5.9201,-5.9602,-5.9664,-6.0034,-6.0116,-6.0055,-6.029,-6.0074,-6.0012,-6.0113,-6.0462,-6.0524,-6.0555,-6.0679,-6.0639,-6.0815,-6.0897,-6.0897,-6.0794,-6.069,-6.0346,-6.0346,-6.0346,-6.0167,-6.0167,-5.9392,-5.8415,-5.7974,-5.7557,-5.7561,-5.7536,-5.748,-5.7396,-5.711,-5.6852,-5.6795,-5.6507,-5.5874,-5.5729,-5.5613,-5.5496,-5.5496,-5.5496,-5.5496,-5.5496,-5.5496,-5.5496,-5.5547,-5.5681,-5.5186,-5.4433,-5.4386,-5.4798,-5.3511,-5.2562,-5.157,-5.0588,-4.9719,-4.8918,-5.8944,-5.8772,-5.7672,-5.7327,-5.7457,-5.7094,-5.7021,-5.7229,-5.7196,-5.7417,-5.7217,-5.6626,-5.624,-5.5901,-5.5811,-5.5669,-5.5383,-5.5866,-5.6094,-5.6062,-5.6283,-5.6094,-5.6157,-5.6283,-5.6505,-5.6979,-5.7326,-5.7516,-5.8085,-5.8274,-5.8274,-5.8274,-5.8274,-5.8274,-5.8274,-5.8274,-5.8274,-5.8274,-5.8306,-5.8432,-5.8559,-5.8685,-5.8812,-5.8908,-5.8845,-5.8719,-5.8467,-5.8373,-5.8121,-5.8055,-5.7959,-5.7806,-5.7865,-5.8479,-5.8869,-5.9378,-5.9809,-6.0116,-6.024,-6.0486,-6.0701,-6.0794,-6.0794,-6.0578,-6.0558,-6.063,-6.0784,-6.0877,-6.0939,-6.0969,-6.1,-6.0897,-6.0897,-6.0794,-6.0794,-6.069,-6.0555,-6.0451,-6.0241,-5.9955,-5.9529,-5.8773,-5.8195,-5.7781,-5.7644,-5.7681,-5.7741,-5.7685,-5.7542,-5.7484,-5.6938,-5.6536,-5.6103,-5.5729,-5.5613,-5.5496,-5.5496,-5.5496,-5.5496,-5.5496,-5.5496,-5.558,-5.5519,-5.5765,-5.5945,-5.5353,-5.4907,-5.5032,-5.5128,-5.3831,-5.2615,-5.1482,-5.0383,-4.9277,-4.8469,-5.8909,-5.8771,-5.8561,-5.8106,-5.7887,-5.778,-5.7741,-5.7836,-5.772,-5.6887,-5.583,-5.6104,-5.5834,-5.5538,-5.5605,-5.5683,-5.5841,-5.6347,-5.6726,-5.6378,-5.6663,-5.6694,-5.6631,-5.6441,-5.7042,-5.7231,-5.7453,-5.78,-5.8116,-5.8274,-5.8274,-5.8274,-5.8274,-5.8274,-5.8274,-5.8274,-5.8274,-5.8274,-5.8464,-5.8624,-5.9002,-5.9255,-5.9412,-5.9724,-5.9721,-5.9593,-5.9274,-5.902,-5.8802,-5.8794,-5.8665,-5.839,-5.8913,-5.9294,-5.9614,-5.9922,-6.0393,-6.0517,-6.0609,-6.0732,-6.0763,-6.0794,-6.0794,-6.0732,-6.0701,-6.0701,-6.0897,-6.0897,-6.0897,-6.1113,-6.1175,-6.1163,-6.1194,-6.1274,-6.1291,-6.1186,-6.0943,-6.07,-6.018,-5.9994,-5.9588,-5.8926,-5.8649,-5.8286,-5.8288,-5.8203,-5.8205,-5.8205,-5.7742,-5.774,-5.7163,-5.6475,-5.5958,-5.5641,-5.5613,-5.5496,-5.5496,-5.5496,-5.5496,-5.5496,-5.5496,-5.5519,-5.5569,-5.5806,-5.5917,-5.6004,-5.5744,-5.5757,-5.5453,-5.453,-5.3102,-5.164,-5.0398,-4.9413,-4.8475,-5.884,-5.8805,-5.8419,-5.7793,-5.7171,-5.7645,-5.7514,-5.7053,-5.7363,-5.7197,-5.6824,-5.6247,-5.6029,-5.5939,-5.6309,-5.6536,-5.6726,-5.7105,-5.7674,-5.7642,-5.7611,-5.7453,-5.7674,-5.7516,-5.7769,-5.7958,-5.8053,-5.8022,-5.8211,-5.8274,-5.8274,-5.8274,-5.8274,-5.8274,-5.8274,-5.8274,-5.8274,-5.8274,-5.8562,-5.8782,-5.9064,-5.9096,-5.9222,-5.9465,-5.9617,-5.9612,-5.942,-5.9228,-5.8938,-5.8869,-5.8739,-5.8924,-5.958,-5.9696,-6.0064,-6.0444,-6.0671,-6.0763,-6.0794,-6.0794,-6.0794,-6.0794,-6.0794,-6.0794,-6.0794,-6.0794,-6.0794,-6.0794,-6.0917,-6.1194,-6.1409,-6.1502,-6.1581,-6.1752,-6.1783,-6.146,-6.1213,-6.0686,-6.0156,-5.9964,-5.9658,-5.9379,-5.9126,-5.887,-5.89,-5.8928,-5.9186,-5.9008,-5.8075,-5.7724,-5.7412,-5.6694,-5.5955,-5.5552,-5.5524,-5.5496,-5.5496,-5.5496,-5.5496,-5.5496,-5.5524,-5.5709,-5.589,-5.5861,-5.6004,-5.61,-5.6177,-5.6052,-5.5591,-5.4922,-5.3605,-5.2075,-5.1078,-5.0107,-4.9084,-5.8392,-5.8631,-5.8277,-5.7823,-5.7476,-5.7938,-5.7867,-5.7543,-5.754,-5.7511,-5.7314,-5.6541,-5.6248,-5.6461,-5.6915,-5.7263,-5.739,-5.7927,-5.8053,-5.8211,-5.8274,-5.818,-5.8274,-5.8274,-5.818,-5.8274,-5.8274,-5.8243,-5.8274,-5.8274,-5.8274,-5.8306,-5.8306,-5.8338,-5.8306,-5.8306,-5.8338,-5.8306,-5.8719,-5.9032,-5.9215,-5.9433,-5.9871,-6.0142,-6.0229,-6.0129,-5.9835,-5.9703,-5.9641,-5.9593,-5.9716,-5.9809,-6.0147,-6.029,-6.0475,-6.0701,-6.0763,-6.0794,-6.0794,-6.0794,-6.0794,-6.0794,-6.0824,-6.0824,-6.0794,-6.0794,-6.0794,-6.0824,-6.1286,-6.1563,-6.1673,-6.169,-6.1645,-6.1703,-6.1217,-6.0886,-6.0663,-6.0298,-5.993,-5.9589,-5.9419,-5.9448,-5.9161,-5.89,-5.8986,-5.9068,-5.9381,-5.9257,-5.8434,-5.791,-5.7598,-5.7084,-5.6345,-5.5664,-5.5524,-5.5496,-5.5496,-5.5496,-5.5496,-5.5603,-5.5681,-5.5881,-5.6083,-5.6224,-5.6416,-5.6586,-5.6677,-5.6495,-5.6293,-5.5698,-5.4158,-5.2481,-5.1632,-5.0776,-4.9791,-5.8049,-5.8385,-5.8061,-5.7881,-5.7949,-5.8152,-5.826,-5.823,-5.7937,-5.7748,-5.7538,-5.7029,-5.6556,-5.6657,-5.701,-5.7231,-5.7548,-5.8022,-5.8243,-5.8274,-5.8274,-5.8274,-5.8274,-5.8274,-5.8274,-5.8274,-5.8274,-5.8274,-5.8274,-5.8401,-5.8527,-5.8432,-5.8496,-5.8559,-5.8527,-5.8559,-5.8717,-5.8938,-5.9255,-5.9502,-5.984,-6.0204,-6.0602,-6.0967,-6.1103,-6.1,-6.0681,-6.0424,-6.0332,-6.0424,-6.0578,-6.0578,-6.0609,-6.0671,-6.0701,-6.0794,-6.0794,-6.0794,-6.0794,-6.0794,-6.0794,-6.0794,-6.0855,-6.0917,-6.0948,-6.1071,-6.1071,-6.1286,-6.1717,-6.1888,-6.1997,-6.195,-6.1789,-6.1649,-6.1088,-6.0432,-6.0203,-6.0147,-5.983,-5.951,-5.951,-5.9539,-5.945,-5.9186,-5.9094,-5.9291,-5.9137,-5.8895,-5.8503,-5.8156,-5.7781,-5.7415,-5.6788,-5.6283,-5.5777,-5.5608,-5.5636,-5.5496,-5.5552,-5.5653,-5.5806,-5.601,-5.6347,-5.6663,-5.6877,-5.6949,-5.6984,-5.6956,-5.665,-5.6363,-5.4628,-5.3043,-5.2346,-5.1482,-5.0312,-5.8212,-5.8027,-5.7881,-5.7881,-5.7915,-5.8011,-5.7976,-5.7885,-5.797,-5.7975,-5.79,-5.791,-5.7611,-5.7073,-5.7769,-5.799,-5.7927,-5.8243,-5.8243,-5.8274,-5.8274,-5.8274,-5.8274,-5.8274,-5.8274,-5.8306,-5.8306,-5.8306,-5.8559,-5.8906,-5.9096,-5.9096,-5.9696,-5.9823,-5.9854,-5.9791,-5.9665,-5.9791,-6.0074,-6.0442,-6.0397,-6.0602,-6.0687,-6.0825,-6.1,-6.1,-6.0939,-6.0805,-6.0701,-6.0763,-6.0794,-6.0794,-6.0794,-6.0794,-6.0794,-6.0794,-6.0794,-6.0794,-6.0794,-6.0794,-6.0794,-6.1009,-6.1163,-6.1532,-6.1717,-6.2086,-6.2117,-6.221,-6.2548,-6.2564,-6.2564,-6.2414,-6.2303,-6.2211,-6.1816,-6.0969,-6.0355,-6.0559,-6.0615,-6.0438,-6.038,-6.0349,-6.0225,-5.9985,-5.9743,-5.9794,-5.955,-5.9182,-5.8974,-5.8569,-5.8109,-5.7772,-5.7378,-5.6873,-5.6367,-5.5917,-5.5805,-5.5636,-5.5603,-5.5898,-5.6076,-5.611,-5.6445,-5.6867,-5.7022,-5.7065,-5.7174,-5.7174,-5.7174,-5.6574,-5.4968,-5.3605,-5.3012,-5.1979,-5.0634]}]]